| time (UTC) | temp C | wind direction | speed KPH | gust KPH | rain 1hr cm | rain 24hr cm | rain mn cm | humidity % | barometer mb |
| 20260508182307 | 15 | 251 | 6.4 | 16.1 | 0.00 | 0.00 | 0.00 | 35 | 1008.7 |
| 20260508182206 | 15 | 251 | 6.4 | 16.1 | 0.00 | 0.00 | 0.00 | 35 | 1008.7 |
| 20260508182127 | 15 | 247 | 6.4 | 16.1 | 0.00 | 0.00 | 0.00 | 34 | 1008.7 |
| 20260508182006 | 15 | 246 | 6.4 | 16.1 | 0.00 | 0.00 | 0.00 | 33 | 1008.8 |
| 20260508181906 | 15 | 243 | 6.4 | 16.1 | 0.00 | 0.00 | 0.00 | 33 | 1008.8 |
| 20260508181806 | 15 | 240 | 6.4 | 16.1 | 0.00 | 0.00 | 0.00 | 34 | 1008.8 |
| 20260508181706 | 14 | 241 | 6.4 | 16.1 | 0.00 | 0.00 | 0.00 | 34 | 1008.8 |
| 20260508181606 | 15 | 244 | 6.4 | 16.1 | 0.00 | 0.00 | 0.00 | 33 | 1008.8 |
| 20260508181506 | 15 | 245 | 8.0 | 16.1 | 0.00 | 0.00 | 0.00 | 33 | 1008.9 |
| 20260508181407 | 15 | 247 | 8.0 | 17.7 | 0.00 | 0.00 | 0.00 | 32 | 1008.9 |
| 20260508181328 | 15 | 248 | 8.0 | 17.7 | 0.00 | 0.00 | 0.00 | 32 | 1008.8 |
| 20260508181207 | 15 | 249 | 8.0 | 17.7 | 0.00 | 0.00 | 0.00 | 34 | 1008.8 |
| 20260508181106 | 15 | 252 | 8.0 | 17.7 | 0.00 | 0.00 | 0.00 | 34 | 1008.8 |
| 20260508181027 | 15 | 252 | 8.0 | 20.9 | 0.00 | 0.00 | 0.00 | 33 | 1008.8 |
| 20260508180906 | 15 | 252 | 9.7 | 20.9 | 0.00 | 0.00 | 0.00 | 33 | 1008.9 |
| 20260508180806 | 15 | 253 | 8.0 | 20.9 | 0.00 | 0.00 | 0.00 | 33 | 1008.9 |
| 20260508180706 | 15 | 254 | 8.0 | 20.9 | 0.00 | 0.00 | 0.00 | 33 | 1008.9 |
| 20260508180606 | 15 | 254 | 8.0 | 20.9 | 0.00 | 0.00 | 0.00 | 32 | 1008.9 |
| 20260508180506 | 15 | 255 | 8.0 | 20.9 | 0.00 | 0.00 | 0.00 | 32 | 1009.0 |
| 20260508180427 | 15 | 256 | 8.0 | 20.9 | 0.00 | 0.00 | 0.00 | 33 | 1009.0 |
| 20260508180307 | 15 | 262 | 8.0 | 20.9 | 0.00 | 0.00 | 0.00 | 34 | 1009.0 |
| 20260508180206 | 15 | 263 | 8.0 | 20.9 | 0.00 | 0.00 | 0.00 | 32 | 1009.0 |
| 20260508180127 | 15 | 261 | 8.0 | 20.9 | 0.00 | 0.00 | 0.00 | 32 | 1009.0 |
| 20260508180006 | 15 | 266 | 6.4 | 16.1 | 0.00 | 0.00 | 0.00 | 33 | 1009.0 |
| 20260508175906 | 15 | 266 | 6.4 | 16.1 | 0.00 | 0.00 | 0.00 | 32 | 1009.0 |
| 20260508175807 | 15 | 263 | 6.4 | 14.5 | 0.00 | 0.00 | 0.00 | 32 | 1009.1 |
| 20260508175706 | 15 | 258 | 6.4 | 14.5 | 0.00 | 0.00 | 0.00 | 31 | 1009.1 |
| 20260508175606 | 15 | 252 | 6.4 | 14.5 | 0.00 | 0.00 | 0.00 | 32 | 1009.1 |
| 20260508175506 | 15 | 243 | 6.4 | 16.1 | 0.00 | 0.00 | 0.00 | 31 | 1009.1 |
| 20260508175406 | 15 | 237 | 6.4 | 16.1 | 0.00 | 0.00 | 0.00 | 30 | 1009.1 |
| 20260508175306 | 15 | 230 | 4.8 | 16.1 | 0.00 | 0.00 | 0.00 | 31 | 1009.1 |
| 20260508175227 | 15 | 226 | 4.8 | 16.1 | 0.00 | 0.00 | 0.00 | 30 | 1009.1 |
| 20260508175106 | 15 | 220 | 4.8 | 16.1 | 0.00 | 0.00 | 0.00 | 32 | 1009.2 |
| 20260508175006 | 15 | 214 | 4.8 | 16.1 | 0.00 | 0.00 | 0.00 | 31 | 1009.2 |
| 20260508174906 | 15 | 211 | 4.8 | 16.1 | 0.00 | 0.00 | 0.00 | 31 | 1009.2 |
| 20260508174806 | 15 | 220 | 4.8 | 16.1 | 0.00 | 0.00 | 0.00 | 32 | 1009.2 |
| 20260508174706 | 15 | 227 | 6.4 | 16.1 | 0.00 | 0.00 | 0.00 | 32 | 1009.2 |
| 20260508174606 | 15 | 234 | 6.4 | 17.7 | 0.00 | 0.00 | 0.00 | 32 | 1009.2 |
| 20260508174506 | 15 | 240 | 6.4 | 17.7 | 0.00 | 0.00 | 0.00 | 32 | 1009.3 |
| 20260508174406 | 15 | 242 | 6.4 | 17.7 | 0.00 | 0.00 | 0.00 | 32 | 1009.3 |
| 20260508174306 | 15 | 244 | 6.4 | 17.7 | 0.00 | 0.00 | 0.00 | 32 | 1009.3 |
| 20260508174206 | 15 | 248 | 6.4 | 17.7 | 0.00 | 0.00 | 0.00 | 33 | 1009.3 |
| 20260508174106 | 15 | 251 | 6.4 | 17.7 | 0.00 | 0.00 | 0.00 | 33 | 1009.3 |
| 20260508174006 | 15 | 255 | 6.4 | 17.7 | 0.00 | 0.00 | 0.00 | 33 | 1009.3 |
| 20260508173906 | 15 | 258 | 6.4 | 17.7 | 0.00 | 0.00 | 0.00 | 31 | 1009.3 |
| 20260508173806 | 15 | 257 | 6.4 | 17.7 | 0.00 | 0.00 | 0.00 | 31 | 1009.3 |
| 20260508173706 | 15 | 256 | 6.4 | 17.7 | 0.00 | 0.00 | 0.00 | 32 | 1009.3 |
| 20260508173606 | 15 | 253 | 4.8 | 17.7 | 0.00 | 0.00 | 0.00 | 33 | 1009.4 |
| 20260508173506 | 15 | 249 | 4.8 | 17.7 | 0.00 | 0.00 | 0.00 | 33 | 1009.4 |
| 20260508173406 | 15 | 249 | 4.8 | 17.7 | 0.00 | 0.00 | 0.00 | 33 | 1009.4 |
| 20260508173306 | 15 | 248 | 4.8 | 17.7 | 0.00 | 0.00 | 0.00 | 32 | 1009.4 |
| 20260508173206 | 15 | 244 | 4.8 | 17.7 | 0.00 | 0.00 | 0.00 | 32 | 1009.4 |
| 20260508173106 | 15 | 242 | 4.8 | 12.9 | 0.00 | 0.00 | 0.00 | 32 | 1009.5 |
| 20260508173027 | 15 | 243 | 4.8 | 12.9 | 0.00 | 0.00 | 0.00 | 31 | 1009.5 |
| 20260508172927 | 15 | 239 | 4.8 | 12.9 | 0.00 | 0.00 | 0.00 | 33 | 1009.4 |
| 20260508172827 | 15 | 239 | 4.8 | 16.1 | 0.00 | 0.00 | 0.00 | 32 | 1009.4 |
| 20260508172706 | 15 | 237 | 4.8 | 16.1 | 0.00 | 0.00 | 0.00 | 32 | 1009.5 |
| 20260508172606 | 15 | 239 | 4.8 | 16.1 | 0.00 | 0.00 | 0.00 | 33 | 1009.5 |
| 20260508172506 | 15 | 239 | 4.8 | 16.1 | 0.00 | 0.00 | 0.00 | 32 | 1009.5 |
| 20260508172406 | 15 | 237 | 4.8 | 16.1 | 0.00 | 0.00 | 0.00 | 33 | 1009.5 |
| 20260508172307 | 15 | 236 | 4.8 | 16.1 | 0.00 | 0.00 | 0.00 | 33 | 1009.5 |
| 20260508172206 | 14 | 235 | 4.8 | 16.1 | 0.00 | 0.00 | 0.00 | 33 | 1009.5 |
| 20260508172106 | 14 | 232 | 6.4 | 16.1 | 0.00 | 0.00 | 0.00 | 33 | 1009.5 |
| 20260508172006 | 14 | 233 | 6.4 | 16.1 | 0.00 | 0.00 | 0.00 | 32 | 1009.5 |
| 20260508171907 | 15 | 239 | 6.4 | 16.1 | 0.00 | 0.00 | 0.00 | 30 | 1009.5 |
| 20260508171806 | 15 | 239 | 6.4 | 16.1 | 0.00 | 0.00 | 0.00 | 30 | 1009.6 |
| 20260508171706 | 15 | 242 | 4.8 | 16.1 | 0.00 | 0.00 | 0.00 | 30 | 1009.6 |
| 20260508171606 | 15 | 246 | 6.4 | 16.1 | 0.00 | 0.00 | 0.00 | 30 | 1009.6 |
| 20260508171506 | 15 | 250 | 4.8 | 16.1 | 0.00 | 0.00 | 0.00 | 31 | 1009.6 |
| 20260508171406 | 15 | 253 | 6.4 | 16.1 | 0.00 | 0.00 | 0.00 | 31 | 1009.6 |
| 20260508171306 | 15 | 253 | 6.4 | 16.1 | 0.00 | 0.00 | 0.00 | 31 | 1009.6 |
| 20260508171206 | 14 | 257 | 6.4 | 16.1 | 0.00 | 0.00 | 0.00 | 31 | 1009.6 |
| 20260508171106 | 14 | 259 | 6.4 | 16.1 | 0.00 | 0.00 | 0.00 | 33 | 1009.6 |
| 20260508171006 | 14 | 258 | 6.4 | 19.3 | 0.00 | 0.00 | 0.00 | 33 | 1009.6 |
| 20260508170906 | 14 | 255 | 6.4 | 19.3 | 0.00 | 0.00 | 0.00 | 30 | 1009.7 |
| 20260508170806 | 15 | 258 | 8.0 | 19.3 | 0.00 | 0.00 | 0.00 | 31 | 1009.7 |
| 20260508170707 | 15 | 257 | 8.0 | 19.3 | 0.00 | 0.00 | 0.00 | 31 | 1009.7 |
| 20260508170606 | 15 | 257 | 8.0 | 19.3 | 0.00 | 0.00 | 0.00 | 32 | 1009.7 |
| 20260508170506 | 15 | 257 | 9.7 | 19.3 | 0.00 | 0.00 | 0.00 | 33 | 1009.7 |
| 20260508170406 | 15 | 258 | 9.7 | 19.3 | 0.00 | 0.00 | 0.00 | 33 | 1009.7 |
| 20260508170306 | 15 | 257 | 9.7 | 19.3 | 0.00 | 0.00 | 0.00 | 32 | 1009.8 |
| 20260508170227 | 15 | 255 | 9.7 | 19.3 | 0.00 | 0.00 | 0.00 | 32 | 1009.8 |
| 20260508170107 | 15 | 253 | 8.0 | 19.3 | 0.00 | 0.00 | 0.00 | 31 | 1009.8 |
| 20260508170006 | 15 | 248 | 8.0 | 19.3 | 0.00 | 0.00 | 0.00 | 33 | 1009.9 |
| 20260508165906 | 15 | 247 | 8.0 | 19.3 | 0.00 | 0.00 | 0.00 | 32 | 1009.9 |
| 20260508165806 | 15 | 245 | 8.0 | 19.3 | 0.00 | 0.00 | 0.00 | 32 | 1009.9 |
| 20260508165728 | 15 | 244 | 8.0 | 19.3 | 0.00 | 0.00 | 0.00 | 32 | 1009.9 |
| 20260508165607 | 15 | 241 | 6.4 | 17.7 | 0.00 | 0.00 | 0.00 | 29 | 1009.9 |
| 20260508165506 | 15 | 235 | 6.4 | 14.5 | 0.00 | 0.00 | 0.00 | 32 | 1009.9 |
| 20260508165427 | 15 | 235 | 6.4 | 14.5 | 0.00 | 0.00 | 0.00 | 33 | 1009.9 |
| 20260508165307 | 15 | 240 | 6.4 | 14.5 | 0.00 | 0.00 | 0.00 | 33 | 1010.0 |
| 20260508165206 | 15 | 246 | 6.4 | 14.5 | 0.00 | 0.00 | 0.00 | 33 | 1010.0 |
| 20260508165127 | 15 | 247 | 6.4 | 14.5 | 0.00 | 0.00 | 0.00 | 33 | 1010.1 |
| 20260508165027 | 15 | 250 | 6.4 | 14.5 | 0.00 | 0.00 | 0.00 | 34 | 1010.1 |
| 20260508164906 | 15 | 254 | 6.4 | 14.5 | 0.00 | 0.00 | 0.00 | 33 | 1010.1 |
| 20260508164806 | 15 | 254 | 6.4 | 14.5 | 0.00 | 0.00 | 0.00 | 35 | 1010.2 |
| 20260508164706 | 14 | 254 | 8.0 | 17.7 | 0.00 | 0.00 | 0.00 | 35 | 1010.2 |
| 20260508164606 | 14 | 254 | 8.0 | 17.7 | 0.00 | 0.00 | 0.00 | 35 | 1010.2 |
| 20260508164506 | 14 | 257 | 8.0 | 17.7 | 0.00 | 0.00 | 0.00 | 33 | 1010.2 |
| 20260508164406 | 14 | 253 | 6.4 | 17.7 | 0.00 | 0.00 | 0.00 | 33 | 1010.2 |
| 20260508164306 | 15 | 252 | 6.4 | 17.7 | 0.00 | 0.00 | 0.00 | 34 | 1010.2 |
| 20260508164206 | 15 | 251 | 6.4 | 17.7 | 0.00 | 0.00 | 0.00 | 35 | 1010.2 |
| 20260508164106 | 14 | 251 | 8.0 | 17.7 | 0.00 | 0.00 | 0.00 | 35 | 1010.2 |
| 20260508164006 | 14 | 250 | 6.4 | 17.7 | 0.00 | 0.00 | 0.00 | 37 | 1010.2 |
| 20260508163906 | 14 | 251 | 6.4 | 17.7 | 0.00 | 0.00 | 0.00 | 37 | 1010.2 |
| 20260508163827 | 14 | 251 | 6.4 | 17.7 | 0.00 | 0.00 | 0.00 | 37 | 1010.2 |
| 20260508163706 | 14 | 253 | 6.4 | 17.7 | 0.00 | 0.00 | 0.00 | 35 | 1010.2 |
| 20260508163606 | 14 | 252 | 6.4 | 17.7 | 0.00 | 0.00 | 0.00 | 33 | 1010.2 |
| 20260508163527 | 14 | 251 | 6.4 | 17.7 | 0.00 | 0.00 | 0.00 | 34 | 1010.2 |
| 20260508163407 | 14 | 246 | 6.4 | 17.7 | 0.00 | 0.00 | 0.00 | 34 | 1010.2 |
| 20260508163306 | 15 | 244 | 6.4 | 17.7 | 0.00 | 0.00 | 0.00 | 33 | 1010.2 |
| 20260508163206 | 14 | 242 | 6.4 | 17.7 | 0.00 | 0.00 | 0.00 | 31 | 1010.2 |
| 20260508163106 | 15 | 242 | 6.4 | 17.7 | 0.00 | 0.00 | 0.00 | 32 | 1010.2 |
| 20260508163006 | 15 | 240 | 6.4 | 16.1 | 0.00 | 0.00 | 0.00 | 34 | 1010.3 |
| 20260508162927 | 15 | 237 | 6.4 | 16.1 | 0.00 | 0.00 | 0.00 | 36 | 1010.3 |
| 20260508162806 | 14 | 233 | 6.4 | 16.1 | 0.00 | 0.00 | 0.00 | 37 | 1010.2 |
| 20260508162706 | 14 | 233 | 6.4 | 16.1 | 0.00 | 0.00 | 0.00 | 37 | 1010.2 |
| 20260508162606 | 14 | 230 | 6.4 | 16.1 | 0.00 | 0.00 | 0.00 | 34 | 1010.2 |
| 20260508162506 | 14 | 229 | 6.4 | 16.1 | 0.00 | 0.00 | 0.00 | 33 | 1010.2 |
| 20260508162406 | 14 | 231 | 6.4 | 16.1 | 0.00 | 0.00 | 0.00 | 37 | 1010.2 |
| 20260508162307 | 14 | 230 | 6.4 | 16.1 | 0.00 | 0.00 | 0.00 | 36 | 1010.2 |
| 20260508162227 | 14 | 228 | 6.4 | 16.1 | 0.00 | 0.00 | 0.00 | 37 | 1010.2 |
| 20260508162106 | 14 | 229 | 4.8 | 16.1 | 0.00 | 0.00 | 0.00 | 37 | 1010.2 |
| 20260508162006 | 13 | 222 | 6.4 | 16.1 | 0.00 | 0.00 | 0.00 | 38 | 1010.2 |
| 20260508161906 | 13 | 226 | 6.4 | 16.1 | 0.00 | 0.00 | 0.00 | 40 | 1010.2 |
| 20260508161806 | 13 | 223 | 4.8 | 16.1 | 0.00 | 0.00 | 0.00 | 40 | 1010.2 |
| 20260508161706 | 14 | 217 | 4.8 | 16.1 | 0.00 | 0.00 | 0.00 | 39 | 1010.2 |
| 20260508161606 | 14 | 211 | 4.8 | 16.1 | 0.00 | 0.00 | 0.00 | 40 | 1010.2 |
| 20260508161527 | 14 | 209 | 4.8 | 16.1 | 0.00 | 0.00 | 0.00 | 40 | 1010.1 |
| 20260508161427 | 14 | 214 | 4.8 | 16.1 | 0.00 | 0.00 | 0.00 | 41 | 1010.1 |
| 20260508161306 | 13 | 219 | 6.4 | 16.1 | 0.00 | 0.00 | 0.00 | 42 | 1010.1 |
| 20260508161206 | 13 | 223 | 6.4 | 16.1 | 0.00 | 0.00 | 0.00 | 40 | 1010.2 |
| 20260508161107 | 13 | 223 | 8.0 | 16.1 | 0.00 | 0.00 | 0.00 | 38 | 1010.2 |
| 20260508161006 | 13 | 233 | 8.0 | 20.9 | 0.00 | 0.00 | 0.00 | 36 | 1010.2 |
| 20260508160906 | 13 | 237 | 8.0 | 20.9 | 0.00 | 0.00 | 0.00 | 39 | 1010.2 |
| 20260508160806 | 13 | 240 | 8.0 | 20.9 | 0.00 | 0.00 | 0.00 | 39 | 1010.2 |
| 20260508160706 | 13 | 241 | 8.0 | 20.9 | 0.00 | 0.00 | 0.00 | 37 | 1010.2 |
| 20260508160606 | 13 | 242 | 8.0 | 20.9 | 0.00 | 0.00 | 0.00 | 36 | 1010.3 |
| 20260508160506 | 13 | 243 | 6.4 | 20.9 | 0.00 | 0.00 | 0.00 | 44 | 1010.3 |
| 20260508160406 | 13 | 244 | 6.4 | 20.9 | 0.00 | 0.00 | 0.00 | 44 | 1010.3 |
| 20260508160306 | 13 | 243 | 6.4 | 20.9 | 0.00 | 0.00 | 0.00 | 42 | 1010.3 |
| 20260508160206 | 13 | 241 | 6.4 | 20.9 | 0.00 | 0.00 | 0.00 | 42 | 1010.2 |
| 20260508160106 | 13 | 245 | 6.4 | 20.9 | 0.00 | 0.00 | 0.00 | 43 | 1010.2 |
| 20260508160006 | 13 | 241 | 4.8 | 19.3 | 0.00 | 0.00 | 0.00 | 42 | 1010.2 |
| 20260508155906 | 13 | 233 | 4.8 | 16.1 | 0.00 | 0.00 | 0.00 | 43 | 1010.2 |
| 20260508155806 | 14 | 227 | 4.8 | 16.1 | 0.00 | 0.00 | 0.00 | 45 | 1010.2 |
| 20260508155706 | 14 | 228 | 4.8 | 16.1 | 0.00 | 0.00 | 0.00 | 46 | 1010.2 |
| 20260508155606 | 13 | 231 | 4.8 | 16.1 | 0.00 | 0.00 | 0.00 | 46 | 1010.1 |
| 20260508155506 | 13 | 233 | 4.8 | 16.1 | 0.00 | 0.00 | 0.00 | 46 | 1010.1 |
| 20260508155406 | 13 | 233 | 4.8 | 16.1 | 0.00 | 0.00 | 0.00 | 45 | 1010.1 |
| 20260508155306 | 13 | 231 | 6.4 | 16.1 | 0.00 | 0.00 | 0.00 | 43 | 1010.1 |
| 20260508155206 | 13 | 224 | 4.8 | 16.1 | 0.00 | 0.00 | 0.00 | 43 | 1010.1 |
| 20260508155128 | 13 | 221 | 4.8 | 12.9 | 0.00 | 0.00 | 0.00 | 46 | 1010.2 |
| 20260508155006 | 13 | 221 | 4.8 | 11.3 | 0.00 | 0.00 | 0.00 | 46 | 1010.2 |
| 20260508154906 | 13 | 226 | 4.8 | 11.3 | 0.00 | 0.00 | 0.00 | 47 | 1010.2 |
| 20260508154806 | 13 | 227 | 4.8 | 11.3 | 0.00 | 0.00 | 0.00 | 47 | 1010.2 |
| 20260508154727 | 13 | 229 | 4.8 | 11.3 | 0.00 | 0.00 | 0.00 | 49 | 1010.2 |
| 20260508154606 | 13 | 224 | 3.2 | 11.3 | 0.00 | 0.00 | 0.00 | 52 | 1010.2 |
| 20260508154506 | 13 | 218 | 3.2 | 11.3 | 0.00 | 0.00 | 0.00 | 53 | 1010.2 |
| 20260508154406 | 13 | 216 | 3.2 | 11.3 | 0.00 | 0.00 | 0.00 | 53 | 1010.2 |
| 20260508154327 | 13 | 215 | 3.2 | 11.3 | 0.00 | 0.00 | 0.00 | 52 | 1010.2 |
| 20260508154227 | 13 | 234 | 3.2 | 11.3 | 0.00 | 0.00 | 0.00 | 50 | 1010.2 |
| 20260508154106 | 13 | 238 | 4.8 | 14.5 | 0.00 | 0.00 | 0.00 | 52 | 1010.2 |
| 20260508154027 | 13 | 239 | 4.8 | 14.5 | 0.00 | 0.00 | 0.00 | 52 | 1010.2 |
| 20260508153906 | 13 | 240 | 4.8 | 14.5 | 0.00 | 0.00 | 0.00 | 54 | 1010.2 |
| 20260508153806 | 13 | 241 | 4.8 | 14.5 | 0.00 | 0.00 | 0.00 | 55 | 1010.2 |
| 20260508153706 | 13 | 236 | 4.8 | 14.5 | 0.00 | 0.00 | 0.00 | 56 | 1010.2 |
| 20260508153606 | 13 | 236 | 4.8 | 14.5 | 0.00 | 0.00 | 0.00 | 57 | 1010.2 |
| 20260508153506 | 13 | 241 | 4.8 | 14.5 | 0.00 | 0.00 | 0.00 | 56 | 1010.2 |
| 20260508153406 | 13 | 245 | 4.8 | 14.5 | 0.00 | 0.00 | 0.00 | 55 | 1010.2 |
| 20260508153306 | 13 | 244 | 4.8 | 14.5 | 0.00 | 0.00 | 0.00 | 55 | 1010.2 |
| 20260508153206 | 13 | 244 | 3.2 | 14.5 | 0.00 | 0.00 | 0.00 | 55 | 1010.2 |
| 20260508153106 | 13 | 236 | 4.8 | 12.9 | 0.00 | 0.00 | 0.00 | 57 | 1010.2 |
| 20260508153006 | 13 | 224 | 4.8 | 12.9 | 0.00 | 0.00 | 0.00 | 60 | 1010.2 |
| 20260508152906 | 13 | 220 | 4.8 | 12.9 | 0.00 | 0.00 | 0.00 | 60 | 1010.2 |
| 20260508152827 | 13 | 217 | 4.8 | 12.9 | 0.00 | 0.00 | 0.00 | 60 | 1010.2 |
| 20260508152706 | 12 | 227 | 4.8 | 12.9 | 0.00 | 0.00 | 0.00 | 61 | 1010.2 |
| 20260508152606 | 12 | 221 | 4.8 | 12.9 | 0.00 | 0.00 | 0.00 | 62 | 1010.3 |
| 20260508152506 | 12 | 219 | 4.8 | 12.9 | 0.00 | 0.00 | 0.00 | 62 | 1010.3 |
| 20260508152406 | 12 | 215 | 4.8 | 12.9 | 0.00 | 0.00 | 0.00 | 62 | 1010.3 |
| 20260508152307 | 12 | 208 | 4.8 | 12.9 | 0.00 | 0.00 | 0.00 | 63 | 1010.2 |
| 20260508152227 | 12 | 211 | 4.8 | 12.9 | 0.00 | 0.00 | 0.00 | 63 | 1010.2 |
| 20260508152106 | 12 | 216 | 4.8 | 12.9 | 0.00 | 0.00 | 0.00 | 64 | 1010.2 |
| 20260508152006 | 12 | 221 | 4.8 | 12.9 | 0.00 | 0.00 | 0.00 | 64 | 1010.3 |
| 20260508151906 | 12 | 220 | 4.8 | 12.9 | 0.00 | 0.00 | 0.00 | 63 | 1010.3 |
| 20260508151806 | 12 | 221 | 4.8 | 12.9 | 0.00 | 0.00 | 0.00 | 64 | 1010.4 |
| 20260508151706 | 12 | 218 | 4.8 | 12.9 | 0.00 | 0.00 | 0.00 | 65 | 1010.4 |
| 20260508151606 | 12 | 230 | 4.8 | 12.9 | 0.00 | 0.00 | 0.00 | 65 | 1010.4 |
| 20260508151506 | 12 | 231 | 4.8 | 12.9 | 0.00 | 0.00 | 0.00 | 64 | 1010.4 |
| 20260508151427 | 12 | 229 | 4.8 | 12.9 | 0.00 | 0.00 | 0.00 | 65 | 1010.4 |
| 20260508151307 | 12 | 239 | 4.8 | 12.9 | 0.00 | 0.00 | 0.00 | 65 | 1010.4 |
| 20260508151206 | 12 | 242 | 4.8 | 12.9 | 0.00 | 0.00 | 0.00 | 64 | 1010.3 |
| 20260508151127 | 12 | 245 | 4.8 | 12.9 | 0.00 | 0.00 | 0.00 | 64 | 1010.3 |
| 20260508151006 | 12 | 250 | 4.8 | 12.9 | 0.00 | 0.00 | 0.00 | 65 | 1010.3 |
| 20260508150906 | 12 | 249 | 4.8 | 12.9 | 0.00 | 0.00 | 0.00 | 66 | 1010.3 |
| 20260508150806 | 12 | 251 | 4.8 | 12.9 | 0.00 | 0.00 | 0.00 | 66 | 1010.4 |
| 20260508150706 | 12 | 252 | 4.8 | 12.9 | 0.00 | 0.00 | 0.00 | 66 | 1010.4 |
| 20260508150606 | 12 | 248 | 4.8 | 12.9 | 0.00 | 0.00 | 0.00 | 66 | 1010.4 |
| 20260508150506 | 12 | 246 | 4.8 | 12.9 | 0.00 | 0.00 | 0.00 | 65 | 1010.4 |
| 20260508150427 | 12 | 245 | 4.8 | 12.9 | 0.00 | 0.00 | 0.00 | 65 | 1010.4 |
| 20260508150327 | 12 | 243 | 4.8 | 12.9 | 0.00 | 0.00 | 0.00 | 65 | 1010.4 |
| 20260508150206 | 12 | 240 | 4.8 | 14.5 | 0.00 | 0.00 | 0.00 | 64 | 1010.5 |
| 20260508150127 | 12 | 236 | 4.8 | 14.5 | 0.00 | 0.00 | 0.00 | 66 | 1010.5 |
| 20260508150006 | 12 | 225 | 4.8 | 14.5 | 0.00 | 0.00 | 0.00 | 68 | 1010.4 |
| 20260508145907 | 12 | 224 | 4.8 | 14.5 | 0.00 | 0.00 | 0.00 | 68 | 1010.4 |
| 20260508145827 | 12 | 225 | 4.8 | 14.5 | 0.00 | 0.00 | 0.00 | 68 | 1010.4 |
| 20260508145727 | 12 | 222 | 4.8 | 14.5 | 0.00 | 0.00 | 0.00 | 68 | 1010.4 |
| 20260508145605 | 12 | 222 | 4.8 | 14.5 | 0.00 | 0.00 | 0.00 | 67 | 1010.4 |
| 20260508145506 | 12 | 217 | 4.8 | 14.5 | 0.00 | 0.00 | 0.00 | 68 | 1010.4 |
| 20260508145406 | 12 | 219 | 4.8 | 14.5 | 0.00 | 0.00 | 0.00 | 67 | 1010.5 |
| 20260508145307 | 12 | 216 | 4.8 | 14.5 | 0.00 | 0.00 | 0.00 | 67 | 1010.5 |
| 20260508145206 | 12 | 212 | 4.8 | 12.9 | 0.00 | 0.00 | 0.00 | 66 | 1010.5 |
| 20260508145106 | 12 | 212 | 4.8 | 12.9 | 0.00 | 0.00 | 0.00 | 67 | 1010.5 |
| 20260508145006 | 12 | 212 | 4.8 | 12.9 | 0.00 | 0.00 | 0.00 | 68 | 1010.5 |
| 20260508144906 | 12 | 213 | 4.8 | 12.9 | 0.00 | 0.00 | 0.00 | 67 | 1010.5 |
| 20260508144806 | 12 | 203 | 4.8 | 12.9 | 0.00 | 0.00 | 0.00 | 66 | 1010.5 |
| 20260508144706 | 12 | 201 | 4.8 | 12.9 | 0.00 | 0.00 | 0.00 | 66 | 1010.5 |
| 20260508144606 | 12 | 201 | 4.8 | 12.9 | 0.00 | 0.00 | 0.00 | 65 | 1010.5 |
| 20260508144506 | 12 | 209 | 4.8 | 11.3 | 0.00 | 0.00 | 0.00 | 65 | 1010.5 |
| 20260508144427 | 12 | 213 | 4.8 | 12.9 | 0.00 | 0.00 | 0.00 | 65 | 1010.5 |
| 20260508144306 | 12 | 216 | 4.8 | 12.9 | 0.00 | 0.00 | 0.00 | 66 | 1010.5 |
| 20260508144206 | 12 | 215 | 4.8 | 12.9 | 0.00 | 0.00 | 0.00 | 65 | 1010.5 |
| 20260508144106 | 12 | 216 | 4.8 | 12.9 | 0.00 | 0.00 | 0.00 | 64 | 1010.5 |
| 20260508144006 | 12 | 213 | 4.8 | 12.9 | 0.00 | 0.00 | 0.00 | 64 | 1010.5 |
| 20260508143906 | 12 | 216 | 4.8 | 12.9 | 0.00 | 0.00 | 0.00 | 64 | 1010.5 |
| 20260508143806 | 12 | 219 | 4.8 | 12.9 | 0.00 | 0.00 | 0.00 | 66 | 1010.5 |
| 20260508143727 | 12 | 225 | 4.8 | 12.9 | 0.00 | 0.00 | 0.00 | 67 | 1010.5 |
| 20260508143606 | 11 | 230 | 4.8 | 12.9 | 0.00 | 0.00 | 0.00 | 67 | 1010.4 |
| 20260508143527 | 12 | 231 | 4.8 | 12.9 | 0.00 | 0.00 | 0.00 | 67 | 1010.4 |
| 20260508143427 | 12 | 226 | 4.8 | 12.9 | 0.00 | 0.00 | 0.00 | 67 | 1010.5 |
| 20260508143306 | 12 | 228 | 6.4 | 12.9 | 0.00 | 0.00 | 0.00 | 66 | 1010.5 |
| 20260508143206 | 12 | 231 | 6.4 | 12.9 | 0.00 | 0.00 | 0.00 | 66 | 1010.5 |
| 20260508143107 | 12 | 234 | 6.4 | 12.9 | 0.00 | 0.00 | 0.00 | 66 | 1010.5 |
| 20260508143027 | 12 | 238 | 6.4 | 12.9 | 0.00 | 0.00 | 0.00 | 66 | 1010.5 |
| 20260508142906 | 12 | 238 | 6.4 | 12.9 | 0.00 | 0.00 | 0.00 | 66 | 1010.4 |
| 20260508142806 | 12 | 240 | 4.8 | 12.9 | 0.00 | 0.00 | 0.00 | 65 | 1010.4 |
| 20260508142727 | 12 | 241 | 4.8 | 12.9 | 0.00 | 0.00 | 0.00 | 64 | 1010.4 |
| 20260508142606 | 12 | 239 | 4.8 | 12.9 | 0.00 | 0.00 | 0.00 | 62 | 1010.5 |
| 20260508142527 | 12 | 238 | 4.8 | 12.9 | 0.00 | 0.00 | 0.00 | 63 | 1010.5 |
| 20260508142406 | 12 | 238 | 4.8 | 12.9 | 0.00 | 0.00 | 0.00 | 61 | 1010.4 |
| 20260508142327 | 12 | 237 | 4.8 | 12.9 | 0.00 | 0.00 | 0.00 | 62 | 1010.4 |
| 20260508142206 | 12 | 233 | 4.8 | 12.9 | 0.00 | 0.00 | 0.00 | 62 | 1010.5 |
| 20260508142106 | 12 | 225 | 4.8 | 12.9 | 0.00 | 0.00 | 0.00 | 61 | 1010.5 |
| 20260508142006 | 12 | 217 | 4.8 | 12.9 | 0.00 | 0.00 | 0.00 | 59 | 1010.5 |
| 20260508141906 | 12 | 212 | 4.8 | 9.7 | 0.00 | 0.00 | 0.00 | 60 | 1010.5 |
| 20260508141806 | 12 | 216 | 4.8 | 9.7 | 0.00 | 0.00 | 0.00 | 61 | 1010.5 |
| 20260508141727 | 12 | 214 | 4.8 | 9.7 | 0.00 | 0.00 | 0.00 | 61 | 1010.5 |
| 20260508141606 | 12 | 206 | 3.2 | 9.7 | 0.00 | 0.00 | 0.00 | 62 | 1010.5 |
| 20260508141506 | 12 | 193 | 3.2 | 9.7 | 0.00 | 0.00 | 0.00 | 61 | 1010.5 |
| 20260508141406 | 12 | 190 | 3.2 | 9.7 | 0.00 | 0.00 | 0.00 | 61 | 1010.5 |
| 20260508141327 | 12 | 189 | 3.2 | 9.7 | 0.00 | 0.00 | 0.00 | 61 | 1010.5 |
| 20260508141227 | 12 | 192 | 3.2 | 9.7 | 0.00 | 0.00 | 0.00 | 60 | 1010.5 |
| 20260508141106 | 12 | 196 | 3.2 | 9.7 | 0.00 | 0.00 | 0.00 | 59 | 1010.5 |
| 20260508141006 | 12 | 197 | 3.2 | 9.7 | 0.00 | 0.00 | 0.00 | 59 | 1010.5 |
| 20260508140906 | 12 | 205 | 3.2 | 9.7 | 0.00 | 0.00 | 0.00 | 59 | 1010.5 |
| 20260508140806 | 12 | 205 | 3.2 | 9.7 | 0.00 | 0.00 | 0.00 | 61 | 1010.5 |
| 20260508140706 | 12 | 207 | 3.2 | 9.7 | 0.00 | 0.00 | 0.00 | 61 | 1010.5 |
| 20260508140607 | 12 | 207 | 3.2 | 9.7 | 0.00 | 0.00 | 0.00 | 61 | 1010.5 |
| 20260508140506 | 12 | 216 | 3.2 | 9.7 | 0.00 | 0.00 | 0.00 | 61 | 1010.4 |
| 20260508140406 | 12 | 221 | 3.2 | 9.7 | 0.00 | 0.00 | 0.00 | 61 | 1010.4 |
| 20260508140306 | 12 | 225 | 3.2 | 9.7 | 0.00 | 0.00 | 0.00 | 60 | 1010.5 |
| 20260508140206 | 12 | 227 | 3.2 | 9.7 | 0.00 | 0.00 | 0.00 | 60 | 1010.5 |
| 20260508140106 | 12 | 232 | 3.2 | 9.7 | 0.00 | 0.00 | 0.00 | 59 | 1010.5 |
| 20260508140006 | 12 | 236 | 3.2 | 9.7 | 0.00 | 0.00 | 0.00 | 60 | 1010.5 |
| 20260508135906 | 12 | 230 | 3.2 | 8.0 | 0.00 | 0.00 | 0.00 | 63 | 1010.5 |
| 20260508135806 | 12 | 230 | 3.2 | 8.0 | 0.00 | 0.00 | 0.00 | 64 | 1010.5 |
| 20260508135706 | 12 | 228 | 1.6 | 8.0 | 0.00 | 0.00 | 0.00 | 63 | 1010.5 |
| 20260508135605 | 12 | 229 | 3.2 | 8.0 | 0.00 | 0.00 | 0.00 | 64 | 1010.5 |
| 20260508135506 | 12 | 217 | 3.2 | 8.0 | 0.00 | 0.00 | 0.00 | 63 | 1010.5 |
| 20260508135406 | 12 | 208 | 3.2 | 8.0 | 0.00 | 0.00 | 0.00 | 63 | 1010.5 |
| 20260508135306 | 12 | 206 | 1.6 | 8.0 | 0.00 | 0.00 | 0.00 | 62 | 1010.6 |
| 20260508135206 | 12 | 203 | 1.6 | 8.0 | 0.00 | 0.00 | 0.00 | 61 | 1010.5 |
| 20260508135106 | 12 | 203 | 1.6 | 8.0 | 0.00 | 0.00 | 0.00 | 62 | 1010.5 |
| 20260508135005 | 12 | 209 | 1.6 | 8.0 | 0.00 | 0.00 | 0.00 | 62 | 1010.5 |
| 20260508134906 | 12 | 215 | 1.6 | 8.0 | 0.00 | 0.00 | 0.00 | 63 | 1010.5 |
| 20260508134806 | 12 | 208 | 1.6 | 8.0 | 0.00 | 0.00 | 0.00 | 63 | 1010.5 |
| 20260508134706 | 12 | 214 | 1.6 | 8.0 | 0.00 | 0.00 | 0.00 | 63 | 1010.5 |
| 20260508134606 | 12 | 218 | 1.6 | 8.0 | 0.00 | 0.00 | 0.00 | 63 | 1010.5 |
| 20260508134506 | 11 | 218 | 1.6 | 8.0 | 0.00 | 0.00 | 0.00 | 65 | 1010.5 |
| 20260508134406 | 11 | 213 | 3.2 | 8.0 | 0.00 | 0.00 | 0.00 | 67 | 1010.5 |
| 20260508134306 | 11 | 213 | 3.2 | 8.0 | 0.00 | 0.00 | 0.00 | 66 | 1010.5 |
| 20260508134206 | 11 | 226 | 3.2 | 12.9 | 0.00 | 0.00 | 0.00 | 66 | 1010.5 |
| 20260508134106 | 11 | 230 | 3.2 | 12.9 | 0.00 | 0.00 | 0.00 | 66 | 1010.5 |
| 20260508134006 | 11 | 232 | 3.2 | 12.9 | 0.00 | 0.00 | 0.00 | 67 | 1010.5 |
| 20260508133905 | 11 | 237 | 4.8 | 12.9 | 0.00 | 0.00 | 0.00 | 68 | 1010.5 |
| 20260508133806 | 11 | 241 | 4.8 | 12.9 | 0.00 | 0.00 | 0.00 | 68 | 1010.5 |
| 20260508133706 | 11 | 237 | 3.2 | 12.9 | 0.00 | 0.00 | 0.00 | 68 | 1010.5 |
| 20260508133605 | 11 | 238 | 3.2 | 12.9 | 0.00 | 0.00 | 0.00 | 68 | 1010.5 |
| 20260508133526 | 11 | 243 | 3.2 | 12.9 | 0.00 | 0.00 | 0.00 | 68 | 1010.5 |
| 20260508133406 | 11 | 252 | 3.2 | 12.9 | 0.00 | 0.00 | 0.00 | 68 | 1010.5 |
| 20260508133307 | 11 | 254 | 3.2 | 12.9 | 0.00 | 0.00 | 0.00 | 68 | 1010.5 |
| 20260508133226 | 11 | 252 | 3.2 | 12.9 | 0.00 | 0.00 | 0.00 | 68 | 1010.5 |
| 20260508133105 | 11 | 242 | 1.6 | 8.0 | 0.00 | 0.00 | 0.00 | 68 | 1010.4 |
| 20260508133027 | 11 | 242 | 1.6 | 8.0 | 0.00 | 0.00 | 0.00 | 67 | 1010.4 |
| 20260508132906 | 11 | 236 | 1.6 | 8.0 | 0.00 | 0.00 | 0.00 | 68 | 1010.5 |
| 20260508132806 | 11 | 233 | 1.6 | 6.4 | 0.00 | 0.00 | 0.00 | 68 | 1010.6 |
| 20260508132705 | 11 | 237 | 1.6 | 6.4 | 0.00 | 0.00 | 0.00 | 68 | 1010.6 |
| 20260508132606 | 11 | 229 | 1.6 | 6.4 | 0.00 | 0.00 | 0.00 | 69 | 1010.6 |
| 20260508132527 | 11 | 223 | 1.6 | 6.4 | 0.00 | 0.00 | 0.00 | 69 | 1010.6 |
| 20260508132406 | 11 | 223 | 1.6 | 6.4 | 0.00 | 0.00 | 0.00 | 69 | 1010.6 |
| 20260508132306 | 11 | 219 | 1.6 | 6.4 | 0.00 | 0.00 | 0.00 | 69 | 1010.6 |
| 20260508132206 | 10 | 211 | 1.6 | 6.4 | 0.00 | 0.00 | 0.00 | 69 | 1010.6 |
| 20260508132106 | 10 | 216 | 1.6 | 6.4 | 0.00 | 0.00 | 0.00 | 70 | 1010.6 |
| 20260508132006 | 10 | 211 | 1.6 | 6.4 | 0.00 | 0.00 | 0.00 | 71 | 1010.6 |
| 20260508131907 | 10 | 206 | 1.6 | 6.4 | 0.00 | 0.00 | 0.00 | 72 | 1010.6 |
| 20260508131806 | 10 | 211 | 1.6 | 6.4 | 0.00 | 0.00 | 0.00 | 72 | 1010.6 |
| 20260508131706 | 10 | 209 | 1.6 | 6.4 | 0.00 | 0.00 | 0.00 | 72 | 1010.6 |
| 20260508131606 | 10 | 208 | 1.6 | 6.4 | 0.00 | 0.00 | 0.00 | 72 | 1010.6 |
| 20260508131505 | 10 | 213 | 1.6 | 6.4 | 0.00 | 0.00 | 0.00 | 72 | 1010.6 |
| 20260508131406 | 10 | 211 | 1.6 | 6.4 | 0.00 | 0.00 | 0.00 | 71 | 1010.6 |
| 20260508131305 | 10 | 215 | 1.6 | 6.4 | 0.00 | 0.00 | 0.00 | 72 | 1010.6 |
| 20260508131206 | 10 | 221 | 1.6 | 6.4 | 0.00 | 0.00 | 0.00 | 72 | 1010.6 |
| 20260508131127 | 10 | 224 | 1.6 | 6.4 | 0.00 | 0.00 | 0.00 | 72 | 1010.6 |
| 20260508131006 | 10 | 213 | 1.6 | 6.4 | 0.00 | 0.00 | 0.00 | 73 | 1010.7 |
| 20260508130906 | 10 | 213 | 1.6 | 6.4 | 0.00 | 0.00 | 0.00 | 73 | 1010.7 |
| 20260508130806 | 10 | 208 | 1.6 | 6.4 | 0.00 | 0.00 | 0.00 | 73 | 1010.7 |
| 20260508130706 | 10 | 206 | 1.6 | 6.4 | 0.00 | 0.00 | 0.00 | 73 | 1010.7 |
| 20260508130627 | 10 | 206 | 1.6 | 6.4 | 0.00 | 0.00 | 0.00 | 73 | 1010.7 |
| 20260508130505 | 10 | 199 | 1.6 | 6.4 | 0.00 | 0.00 | 0.00 | 73 | 1010.7 |
| 20260508130406 | 9 | 194 | 1.6 | 6.4 | 0.00 | 0.00 | 0.00 | 73 | 1010.7 |
| 20260508130306 | 9 | 189 | 1.6 | 6.4 | 0.00 | 0.00 | 0.00 | 73 | 1010.7 |
| 20260508130206 | 9 | 198 | 1.6 | 6.4 | 0.00 | 0.00 | 0.00 | 74 | 1010.7 |
| 20260508130105 | 9 | 206 | 1.6 | 6.4 | 0.00 | 0.00 | 0.00 | 74 | 1010.7 |
| 20260508130005 | 9 | 215 | 1.6 | 6.4 | 0.00 | 0.00 | 0.00 | 74 | 1010.7 |
| 20260508125906 | 9 | 215 | 1.6 | 6.4 | 0.00 | 0.00 | 0.00 | 74 | 1010.7 |
| 20260508125806 | 9 | 212 | 1.6 | 6.4 | 0.00 | 0.00 | 0.00 | 75 | 1010.8 |
| 20260508125705 | 8 | 216 | 1.6 | 6.4 | 0.00 | 0.00 | 0.00 | 75 | 1010.8 |
| 20260508125626 | 8 | 216 | 1.6 | 6.4 | 0.00 | 0.00 | 0.00 | 75 | 1010.8 |
| 20260508125506 | 8 | 220 | 1.6 | 6.4 | 0.00 | 0.00 | 0.00 | 76 | 1010.8 |
| 20260508125406 | 8 | 233 | 1.6 | 6.4 | 0.00 | 0.00 | 0.00 | 76 | 1010.8 |
| 20260508125306 | 8 | 234 | 1.6 | 6.4 | 0.00 | 0.00 | 0.00 | 75 | 1010.9 |
| 20260508125205 | 8 | 0 | 0.0 | 6.4 | 0.00 | 0.00 | 0.00 | 77 | 1010.8 |
| 20260508125127 | 8 | 0 | 0.0 | 4.8 | 0.00 | 0.00 | 0.00 | 77 | 1010.8 |
| 20260508125027 | 8 | 0 | 0.0 | 3.2 | 0.00 | 0.00 | 0.00 | 77 | 1010.8 |
| 20260508124905 | 8 | 0 | 0.0 | 3.2 | 0.00 | 0.00 | 0.00 | 77 | 1010.8 |
| 20260508124805 | 8 | 0 | 0.0 | 3.2 | 0.00 | 0.00 | 0.00 | 77 | 1010.8 |
| 20260508124705 | 8 | 0 | 0.0 | 3.2 | 0.00 | 0.00 | 0.00 | 77 | 1010.8 |
| 20260508124606 | 8 | 0 | 0.0 | 3.2 | 0.00 | 0.00 | 0.00 | 78 | 1010.8 |
| 20260508124506 | 7 | 0 | 0.0 | 3.2 | 0.00 | 0.00 | 0.00 | 77 | 1010.8 |
| 20260508124406 | 7 | 0 | 0.0 | 3.2 | 0.00 | 0.00 | 0.00 | 78 | 1010.8 |
| 20260508124305 | 7 | 0 | 0.0 | 3.2 | 0.00 | 0.00 | 0.00 | 78 | 1010.8 |
| 20260508124205 | 7 | 0 | 0.0 | 3.2 | 0.00 | 0.00 | 0.00 | 80 | 1010.8 |
| 20260508124106 | 7 | 0 | 0.0 | 3.2 | 0.00 | 0.00 | 0.00 | 81 | 1010.8 |
| 20260508124006 | 7 | 0 | 0.0 | 3.2 | 0.00 | 0.00 | 0.00 | 79 | 1010.8 |
| 20260508123905 | 7 | 0 | 0.0 | 3.2 | 0.00 | 0.00 | 0.00 | 80 | 1010.8 |
| 20260508123805 | 7 | 0 | 0.0 | 3.2 | 0.00 | 0.00 | 0.00 | 80 | 1010.8 |
| 20260508123705 | 7 | 0 | 0.0 | 4.8 | 0.00 | 0.00 | 0.00 | 80 | 1010.7 |
| 20260508123606 | 7 | 0 | 0.0 | 4.8 | 0.00 | 0.00 | 0.00 | 81 | 1010.7 |
| 20260508123505 | 7 | 0 | 0.0 | 4.8 | 0.00 | 0.00 | 0.00 | 81 | 1010.7 |
| 20260508123406 | 6 | 0 | 0.0 | 4.8 | 0.00 | 0.00 | 0.00 | 82 | 1010.7 |
| 20260508123326 | 6 | 0 | 0.0 | 4.8 | 0.00 | 0.00 | 0.00 | 82 | 1010.7 |
| 20260508123206 | 6 | 208 | 1.6 | 4.8 | 0.00 | 0.00 | 0.00 | 82 | 1010.7 |
| 20260508123106 | 6 | 210 | 1.6 | 4.8 | 0.00 | 0.00 | 0.00 | 83 | 1010.7 |
| 20260508123005 | 6 | 0 | 0.0 | 4.8 | 0.00 | 0.00 | 0.00 | 83 | 1010.8 |
| 20260508122906 | 6 | 0 | 0.0 | 4.8 | 0.00 | 0.00 | 0.00 | 83 | 1010.8 |
| 20260508122806 | 6 | 0 | 0.0 | 4.8 | 0.00 | 0.00 | 0.00 | 84 | 1010.8 |
| 20260508122706 | 6 | 0 | 0.0 | 3.2 | 0.00 | 0.00 | 0.00 | 85 | 1010.8 |
| 20260508122627 | 5 | 0 | 0.0 | 3.2 | 0.00 | 0.00 | 0.00 | 85 | 1010.8 |
| 20260508122526 | 5 | 0 | 0.0 | 3.2 | 0.00 | 0.00 | 0.00 | 85 | 1010.8 |
| 20260508122405 | 5 | 0 | 0.0 | 3.2 | 0.00 | 0.00 | 0.00 | 86 | 1010.7 |
| 20260508122307 | 5 | 0 | 0.0 | 3.2 | 0.00 | 0.00 | 0.00 | 86 | 1010.7 |
| 20260508122227 | 5 | 0 | 0.0 | 3.2 | 0.00 | 0.00 | 0.00 | 86 | 1010.8 |
| 20260508122105 | 5 | 0 | 0.0 | 1.6 | 0.00 | 0.00 | 0.00 | 87 | 1010.7 |
| 20260508122005 | 4 | 0 | 0.0 | 1.6 | 0.00 | 0.00 | 0.00 | 88 | 1010.7 |
| 20260508121905 | 4 | 0 | 0.0 | 1.6 | 0.00 | 0.00 | 0.00 | 88 | 1010.8 |
| 20260508121805 | 4 | 0 | 0.0 | 1.6 | 0.00 | 0.00 | 0.00 | 88 | 1010.8 |
| 20260508121706 | 4 | 0 | 0.0 | 1.6 | 0.00 | 0.00 | 0.00 | 88 | 1010.8 |
| 20260508121627 | 4 | 0 | 0.0 | 1.6 | 0.00 | 0.00 | 0.00 | 88 | 1010.8 |
| 20260508121506 | 4 | 0 | 0.0 | 0.0 | 0.00 | 0.00 | 0.00 | 88 | 1010.7 |
| 20260508121405 | 3 | 0 | 0.0 | 0.0 | 0.00 | 0.00 | 0.00 | 88 | 1010.7 |
| 20260508121305 | 3 | 0 | 0.0 | 0.0 | 0.00 | 0.00 | 0.00 | 88 | 1010.7 |
| 20260508121206 | 3 | 0 | 0.0 | 0.0 | 0.00 | 0.00 | 0.00 | 88 | 1010.6 |
| 20260508121106 | 3 | 0 | 0.0 | 1.6 | 0.00 | 0.00 | 0.00 | 88 | 1010.7 |
| 20260508121006 | 3 | 0 | 0.0 | 1.6 | 0.00 | 0.00 | 0.00 | 88 | 1010.7 |
| 20260508120905 | 3 | 0 | 0.0 | 1.6 | 0.00 | 0.00 | 0.00 | 88 | 1010.7 |
| 20260508120806 | 3 | 0 | 0.0 | 1.6 | 0.00 | 0.00 | 0.00 | 89 | 1010.7 |
| 20260508120706 | 3 | 0 | 0.0 | 1.6 | 0.00 | 0.00 | 0.00 | 89 | 1010.6 |
| 20260508120605 | 3 | 0 | 0.0 | 1.6 | 0.00 | 0.00 | 0.00 | 89 | 1010.6 |
| 20260508120506 | 3 | 0 | 0.0 | 1.6 | 0.00 | 0.00 | 0.00 | 89 | 1010.6 |
| 20260508120405 | 3 | 0 | 0.0 | 1.6 | 0.00 | 0.00 | 0.00 | 90 | 1010.6 |
| 20260508120305 | 3 | 0 | 0.0 | 1.6 | 0.00 | 0.00 | 0.00 | 90 | 1010.6 |
| 20260508120205 | 3 | 0 | 0.0 | 1.6 | 0.00 | 0.00 | 0.00 | 90 | 1010.6 |
| 20260508120105 | 3 | 0 | 0.0 | 1.6 | 0.00 | 0.00 | 0.00 | 90 | 1010.6 |
| 20260508120026 | 3 | 0 | 0.0 | 1.6 | 0.00 | 0.00 | 0.00 | 91 | 1010.6 |
| 20260508115905 | 2 | 0 | 0.0 | 1.6 | 0.00 | 0.00 | 0.00 | 91 | 1010.5 |
| 20260508115805 | 2 | 0 | 0.0 | 1.6 | 0.00 | 0.00 | 0.00 | 92 | 1010.5 |
| 20260508115705 | 2 | 0 | 0.0 | 1.6 | 0.00 | 0.00 | 0.00 | 92 | 1010.5 |
| 20260508115605 | 2 | 0 | 0.0 | 1.6 | 0.00 | 0.00 | 0.00 | 92 | 1010.5 |
| 20260508115505 | 2 | 0 | 0.0 | 1.6 | 0.00 | 0.00 | 0.00 | 93 | 1010.5 |
| 20260508115405 | 2 | 0 | 0.0 | 1.6 | 0.00 | 0.00 | 0.00 | 93 | 1010.5 |
| 20260508115306 | 2 | 0 | 0.0 | 1.6 | 0.00 | 0.00 | 0.00 | 94 | 1010.5 |
| 20260508115226 | 2 | 0 | 0.0 | 1.6 | 0.00 | 0.00 | 0.00 | 94 | 1010.5 |
| 20260508115106 | 1 | 0 | 0.0 | 1.6 | 0.00 | 0.00 | 0.00 | 94 | 1010.5 |
| 20260508115006 | 1 | 0 | 0.0 | 1.6 | 0.00 | 0.00 | 0.00 | 94 | 1010.5 |
| 20260508114905 | 1 | 0 | 0.0 | 1.6 | 0.00 | 0.00 | 0.00 | 94 | 1010.5 |
| 20260508114805 | 1 | 0 | 0.0 | 0.0 | 0.00 | 0.00 | 0.00 | 94 | 1010.5 |
| 20260508114726 | 1 | 0 | 0.0 | 0.0 | 0.00 | 0.00 | 0.00 | 94 | 1010.5 |
| 20260508114626 | 1 | 0 | 0.0 | 0.0 | 0.00 | 0.00 | 0.00 | 94 | 1010.5 |
| 20260508114506 | 1 | 0 | 0.0 | 0.0 | 0.00 | 0.00 | 0.00 | 94 | 1010.5 |
| 20260508114405 | 1 | 0 | 0.0 | 0.0 | 0.00 | 0.00 | 0.00 | 94 | 1010.5 |
| 20260508114305 | 1 | 0 | 0.0 | 0.0 | 0.00 | 0.00 | 0.00 | 94 | 1010.5 |
| 20260508114226 | 1 | 0 | 0.0 | 0.0 | 0.00 | 0.00 | 0.00 | 94 | 1010.5 |
| 20260508114105 | 1 | 0 | 0.0 | 0.0 | 0.00 | 0.00 | 0.00 | 94 | 1010.4 |
| 20260508114006 | 1 | 0 | 0.0 | 0.0 | 0.00 | 0.00 | 0.00 | 94 | 1010.4 |
| 20260508113927 | 1 | 0 | 0.0 | 0.0 | 0.00 | 0.00 | 0.00 | 94 | 1010.4 |
| 20260508113805 | 1 | 0 | 0.0 | 0.0 | 0.00 | 0.00 | 0.00 | 94 | 1010.4 |
| 20260508113705 | 0 | 0 | 0.0 | 0.0 | 0.00 | 0.00 | 0.00 | 94 | 1010.4 |
| 20260508113605 | 0 | 0 | 0.0 | 0.0 | 0.00 | 0.00 | 0.00 | 94 | 1010.4 |
| 20260508113505 | 0 | 0 | 0.0 | 0.0 | 0.00 | 0.00 | 0.00 | 94 | 1010.4 |
| 20260508113406 | 0 | 0 | 0.0 | 0.0 | 0.00 | 0.00 | 0.00 | 94 | 1010.4 |
| 20260508113306 | 0 | 0 | 0.0 | 0.0 | 0.00 | 0.00 | 0.00 | 94 | 1010.4 |
| 20260508113205 | 0 | 0 | 0.0 | 0.0 | 0.00 | 0.00 | 0.00 | 94 | 1010.4 |
| 20260508113126 | 0 | 0 | 0.0 | 0.0 | 0.00 | 0.00 | 0.00 | 94 | 1010.4 |
| 20260508113005 | 0 | 0 | 0.0 | 0.0 | 0.00 | 0.00 | 0.00 | 94 | 1010.3 |
| 20260508112905 | 0 | 0 | 0.0 | 0.0 | 0.00 | 0.00 | 0.00 | 94 | 1010.3 |
| 20260508112805 | 0 | 0 | 0.0 | 0.0 | 0.00 | 0.00 | 0.00 | 94 | 1010.3 |
| 20260508112705 | 0 | 0 | 0.0 | 0.0 | 0.00 | 0.00 | 0.00 | 94 | 1010.3 |
| 20260508112605 | 0 | 0 | 0.0 | 0.0 | 0.00 | 0.00 | 0.00 | 94 | 1010.3 |
| 20260508112506 | 0 | 0 | 0.0 | 0.0 | 0.00 | 0.00 | 0.00 | 94 | 1010.3 |
| 20260508112426 | 0 | 0 | 0.0 | 0.0 | 0.00 | 0.00 | 0.00 | 94 | 1010.3 |
| 20260508112307 | 0 | 0 | 0.0 | 0.0 | 0.00 | 0.00 | 0.00 | 94 | 1010.3 |
| 20260508112205 | 0 | 0 | 0.0 | 0.0 | 0.00 | 0.00 | 0.00 | 94 | 1010.3 |
| 20260508112126 | 0 | 0 | 0.0 | 0.0 | 0.00 | 0.00 | 0.00 | 94 | 1010.3 |
| 20260508112005 | 0 | 0 | 0.0 | 0.0 | 0.00 | 0.00 | 0.00 | 94 | 1010.3 |
| 20260508111926 | 0 | 0 | 0.0 | 0.0 | 0.00 | 0.00 | 0.00 | 94 | 1010.3 |
| 20260508111805 | 0 | 0 | 0.0 | 0.0 | 0.00 | 0.00 | 0.00 | 94 | 1010.3 |
| 20260508111705 | 0 | 0 | 0.0 | 0.0 | 0.00 | 0.00 | 0.00 | 94 | 1010.3 |
| 20260508111605 | 0 | 0 | 0.0 | 0.0 | 0.00 | 0.00 | 0.00 | 94 | 1010.3 |
| 20260508111526 | 0 | 0 | 0.0 | 0.0 | 0.00 | 0.00 | 0.00 | 94 | 1010.3 |
| 20260508111405 | 0 | 0 | 0.0 | 0.0 | 0.00 | 0.00 | 0.00 | 94 | 1010.3 |
| 20260508111306 | 0 | 0 | 0.0 | 0.0 | 0.00 | 0.00 | 0.00 | 94 | 1010.3 |
| 20260508111205 | 0 | 0 | 0.0 | 0.0 | 0.00 | 0.00 | 0.00 | 94 | 1010.3 |
| 20260508111126 | 0 | 0 | 0.0 | 0.0 | 0.00 | 0.00 | 0.00 | 94 | 1010.3 |
| 20260508111005 | 0 | 0 | 0.0 | 0.0 | 0.00 | 0.00 | 0.00 | 94 | 1010.3 |
| 20260508110905 | 0 | 0 | 0.0 | 0.0 | 0.00 | 0.00 | 0.00 | 94 | 1010.3 |
| 20260508110805 | 0 | 0 | 0.0 | 0.0 | 0.00 | 0.00 | 0.00 | 94 | 1010.3 |
| 20260508110706 | 0 | 0 | 0.0 | 0.0 | 0.00 | 0.00 | 0.00 | 94 | 1010.3 |
| 20260508110605 | 0 | 0 | 0.0 | 0.0 | 0.00 | 0.00 | 0.00 | 93 | 1010.3 |
| 20260508110505 | 0 | 0 | 0.0 | 0.0 | 0.00 | 0.00 | 0.00 | 93 | 1010.3 |
| 20260508110405 | 0 | 0 | 0.0 | 0.0 | 0.00 | 0.00 | 0.00 | 93 | 1010.3 |
| 20260508110305 | 0 | 0 | 0.0 | 0.0 | 0.00 | 0.00 | 0.00 | 93 | 1010.3 |
| 20260508110205 | 0 | 0 | 0.0 | 0.0 | 0.00 | 0.00 | 0.00 | 93 | 1010.3 |
| 20260508110105 | 0 | 0 | 0.0 | 0.0 | 0.00 | 0.00 | 0.00 | 93 | 1010.3 |
| 20260508110026 | 0 | 0 | 0.0 | 0.0 | 0.00 | 0.00 | 0.00 | 93 | 1010.2 |
| 20260508105905 | 0 | 0 | 0.0 | 0.0 | 0.00 | 0.00 | 0.00 | 93 | 1010.2 |
| 20260508105805 | 0 | 0 | 0.0 | 0.0 | 0.00 | 0.00 | 0.00 | 93 | 1010.2 |
| 20260508105726 | 0 | 0 | 0.0 | 0.0 | 0.00 | 0.00 | 0.00 | 93 | 1010.2 |
| 20260508105626 | 0 | 0 | 0.0 | 0.0 | 0.00 | 0.00 | 0.00 | 93 | 1010.2 |
| 20260508105506 | 0 | 0 | 0.0 | 0.0 | 0.00 | 0.00 | 0.00 | 93 | 1010.2 |
| 20260508105426 | 0 | 0 | 0.0 | 0.0 | 0.00 | 0.00 | 0.00 | 93 | 1010.2 |
| 20260508105306 | 0 | 0 | 0.0 | 0.0 | 0.00 | 0.00 | 0.00 | 93 | 1010.2 |
| 20260508105205 | 0 | 0 | 0.0 | 0.0 | 0.00 | 0.00 | 0.00 | 93 | 1010.2 |
| 20260508105106 | 0 | 0 | 0.0 | 0.0 | 0.00 | 0.00 | 0.00 | 93 | 1010.2 |
| 20260508105006 | 0 | 0 | 0.0 | 0.0 | 0.00 | 0.00 | 0.00 | 93 | 1010.2 |
| 20260508104905 | 0 | 0 | 0.0 | 0.0 | 0.00 | 0.00 | 0.00 | 93 | 1010.1 |
| 20260508104805 | 0 | 0 | 0.0 | 0.0 | 0.00 | 0.00 | 0.00 | 93 | 1010.1 |
| 20260508104726 | 0 | 0 | 0.0 | 0.0 | 0.00 | 0.00 | 0.00 | 93 | 1010.1 |
| 20260508104605 | 0 | 0 | 0.0 | 0.0 | 0.00 | 0.00 | 0.00 | 93 | 1010.1 |
| 20260508104505 | 0 | 0 | 0.0 | 0.0 | 0.00 | 0.00 | 0.00 | 93 | 1010.1 |
| 20260508104405 | 0 | 0 | 0.0 | 0.0 | 0.00 | 0.00 | 0.00 | 93 | 1010.1 |
| 20260508104326 | 0 | 0 | 0.0 | 0.0 | 0.00 | 0.00 | 0.00 | 93 | 1010.1 |
| 20260508104205 | 0 | 0 | 0.0 | 0.0 | 0.00 | 0.00 | 0.00 | 93 | 1010.2 |
| 20260508104105 | 0 | 0 | 0.0 | 0.0 | 0.00 | 0.00 | 0.00 | 93 | 1010.1 |
| 20260508104026 | 0 | 0 | 0.0 | 0.0 | 0.00 | 0.00 | 0.00 | 93 | 1010.1 |
| 20260508103905 | 0 | 0 | 0.0 | 0.0 | 0.00 | 0.00 | 0.00 | 93 | 1010.1 |
| 20260508103805 | 0 | 0 | 0.0 | 0.0 | 0.00 | 0.00 | 0.00 | 93 | 1010.1 |
| 20260508103705 | 0 | 0 | 0.0 | 0.0 | 0.00 | 0.00 | 0.00 | 93 | 1010.1 |
| 20260508103605 | 0 | 0 | 0.0 | 0.0 | 0.00 | 0.00 | 0.00 | 93 | 1010.1 |
| 20260508103505 | 0 | 0 | 0.0 | 0.0 | 0.00 | 0.00 | 0.00 | 93 | 1010.1 |
| 20260508103405 | 0 | 0 | 0.0 | 0.0 | 0.00 | 0.00 | 0.00 | 93 | 1010.1 |
| 20260508103305 | 0 | 0 | 0.0 | 0.0 | 0.00 | 0.00 | 0.00 | 93 | 1010.1 |
| 20260508103206 | 0 | 0 | 0.0 | 0.0 | 0.00 | 0.00 | 0.00 | 93 | 1010.1 |
| 20260508103105 | 0 | 0 | 0.0 | 0.0 | 0.00 | 0.00 | 0.00 | 93 | 1010.0 |
| 20260508103026 | 0 | 0 | 0.0 | 0.0 | 0.00 | 0.00 | 0.00 | 93 | 1010.0 |
| 20260508102905 | 0 | 0 | 0.0 | 0.0 | 0.00 | 0.00 | 0.00 | 93 | 1010.1 |
| 20260508102805 | 0 | 0 | 0.0 | 0.0 | 0.00 | 0.00 | 0.00 | 93 | 1010.1 |
| 20260508102705 | 0 | 0 | 0.0 | 0.0 | 0.00 | 0.00 | 0.00 | 93 | 1010.1 |
| 20260508102605 | 0 | 0 | 0.0 | 0.0 | 0.00 | 0.00 | 0.00 | 93 | 1010.0 |
| 20260508102526 | 0 | 0 | 0.0 | 0.0 | 0.00 | 0.00 | 0.00 | 93 | 1010.0 |
| 20260508102405 | 0 | 0 | 0.0 | 0.0 | 0.00 | 0.00 | 0.00 | 93 | 1010.0 |
| 20260508102327 | 0 | 0 | 0.0 | 0.0 | 0.00 | 0.00 | 0.00 | 93 | 1010.1 |
| 20260508102205 | 0 | 0 | 0.0 | 0.0 | 0.00 | 0.00 | 0.00 | 93 | 1010.1 |
| 20260508102105 | 0 | 0 | 0.0 | 0.0 | 0.00 | 0.00 | 0.00 | 93 | 1010.1 |
| 20260508102026 | 0 | 0 | 0.0 | 0.0 | 0.00 | 0.00 | 0.00 | 93 | 1010.1 |
| 20260508101905 | 0 | 0 | 0.0 | 0.0 | 0.00 | 0.00 | 0.00 | 93 | 1010.1 |
| 20260508101806 | 0 | 0 | 0.0 | 0.0 | 0.00 | 0.00 | 0.00 | 93 | 1010.1 |
| 20260508101706 | 0 | 0 | 0.0 | 0.0 | 0.00 | 0.00 | 0.00 | 93 | 1010.1 |
| 20260508101605 | 0 | 0 | 0.0 | 0.0 | 0.00 | 0.00 | 0.00 | 93 | 1010.1 |
| 20260508101526 | 0 | 0 | 0.0 | 0.0 | 0.00 | 0.00 | 0.00 | 93 | 1010.1 |
| 20260508101405 | 0 | 0 | 0.0 | 0.0 | 0.00 | 0.00 | 0.00 | 93 | 1010.2 |
| 20260508101306 | 0 | 0 | 0.0 | 0.0 | 0.00 | 0.00 | 0.00 | 93 | 1010.1 |
| 20260508101205 | 0 | 0 | 0.0 | 0.0 | 0.00 | 0.00 | 0.00 | 93 | 1010.1 |
| 20260508101126 | 0 | 0 | 0.0 | 0.0 | 0.00 | 0.00 | 0.00 | 93 | 1010.1 |
| 20260508101005 | 0 | 0 | 0.0 | 0.0 | 0.00 | 0.00 | 0.00 | 93 | 1010.1 |
| 20260508100905 | 0 | 0 | 0.0 | 0.0 | 0.00 | 0.00 | 0.00 | 93 | 1010.1 |
| 20260508100806 | 0 | 0 | 0.0 | 0.0 | 0.00 | 0.00 | 0.00 | 92 | 1010.2 |
| 20260508100705 | 0 | 0 | 0.0 | 0.0 | 0.00 | 0.00 | 0.00 | 92 | 1010.2 |
| 20260508100605 | 0 | 0 | 0.0 | 0.0 | 0.00 | 0.00 | 0.00 | 92 | 1010.2 |
| 20260508100505 | 0 | 0 | 0.0 | 0.0 | 0.00 | 0.00 | 0.00 | 92 | 1010.2 |
| 20260508100405 | 0 | 0 | 0.0 | 0.0 | 0.00 | 0.00 | 0.00 | 92 | 1010.2 |
| 20260508100305 | 0 | 0 | 0.0 | 0.0 | 0.00 | 0.00 | 0.00 | 92 | 1010.2 |
| 20260508100205 | 0 | 0 | 0.0 | 0.0 | 0.00 | 0.00 | 0.00 | 92 | 1010.1 |
| 20260508100105 | 0 | 0 | 0.0 | 0.0 | 0.00 | 0.00 | 0.00 | 92 | 1010.1 |
| 20260508100005 | 0 | 0 | 0.0 | 0.0 | 0.00 | 0.00 | 0.00 | 92 | 1010.2 |
| 20260508095905 | 0 | 0 | 0.0 | 0.0 | 0.00 | 0.00 | 0.00 | 92 | 1010.2 |
| 20260508095806 | 0 | 0 | 0.0 | 0.0 | 0.00 | 0.00 | 0.00 | 92 | 1010.2 |
| 20260508095705 | 0 | 0 | 0.0 | 0.0 | 0.00 | 0.00 | 0.00 | 92 | 1010.2 |
| 20260508095605 | 0 | 0 | 0.0 | 0.0 | 0.00 | 0.00 | 0.00 | 92 | 1010.2 |
| 20260508095505 | 0 | 0 | 0.0 | 0.0 | 0.00 | 0.00 | 0.00 | 92 | 1010.2 |
| 20260508095405 | 0 | 0 | 0.0 | 0.0 | 0.00 | 0.00 | 0.00 | 92 | 1010.2 |
| 20260508095307 | 0 | 0 | 0.0 | 0.0 | 0.00 | 0.00 | 0.00 | 92 | 1010.2 |
| 20260508095205 | 0 | 0 | 0.0 | 0.0 | 0.00 | 0.00 | 0.00 | 92 | 1010.2 |
| 20260508095106 | 0 | 0 | 0.0 | 0.0 | 0.00 | 0.00 | 0.00 | 92 | 1010.2 |
| 20260508095005 | 0 | 0 | 0.0 | 0.0 | 0.00 | 0.00 | 0.00 | 92 | 1010.2 |
| 20260508094905 | 0 | 0 | 0.0 | 0.0 | 0.00 | 0.00 | 0.00 | 92 | 1010.2 |
| 20260508094805 | 0 | 0 | 0.0 | 0.0 | 0.00 | 0.00 | 0.00 | 92 | 1010.2 |
| 20260508094705 | 0 | 0 | 0.0 | 0.0 | 0.00 | 0.00 | 0.00 | 92 | 1010.3 |
| 20260508094605 | 0 | 0 | 0.0 | 0.0 | 0.00 | 0.00 | 0.00 | 92 | 1010.3 |
| 20260508094505 | 0 | 0 | 0.0 | 0.0 | 0.00 | 0.00 | 0.00 | 92 | 1010.3 |
| 20260508094405 | 0 | 0 | 0.0 | 0.0 | 0.00 | 0.00 | 0.00 | 92 | 1010.3 |
| 20260508094305 | 0 | 0 | 0.0 | 0.0 | 0.00 | 0.00 | 0.00 | 92 | 1010.3 |
| 20260508094205 | 0 | 0 | 0.0 | 0.0 | 0.00 | 0.00 | 0.00 | 92 | 1010.3 |
| 20260508094105 | 0 | 0 | 0.0 | 0.0 | 0.00 | 0.00 | 0.00 | 92 | 1010.3 |
| 20260508094005 | 0 | 0 | 0.0 | 0.0 | 0.00 | 0.00 | 0.00 | 92 | 1010.3 |
| 20260508093905 | 0 | 0 | 0.0 | 0.0 | 0.00 | 0.00 | 0.00 | 92 | 1010.3 |
| 20260508093805 | 0 | 0 | 0.0 | 0.0 | 0.00 | 0.00 | 0.00 | 92 | 1010.3 |
| 20260508093705 | 0 | 0 | 0.0 | 0.0 | 0.00 | 0.00 | 0.00 | 92 | 1010.3 |
| 20260508093605 | 0 | 0 | 0.0 | 0.0 | 0.00 | 0.00 | 0.00 | 92 | 1010.3 |
| 20260508093505 | 0 | 0 | 0.0 | 0.0 | 0.00 | 0.00 | 0.00 | 92 | 1010.3 |
| 20260508093405 | 0 | 0 | 0.0 | 0.0 | 0.00 | 0.00 | 0.00 | 92 | 1010.3 |
| 20260508093305 | 0 | 0 | 0.0 | 0.0 | 0.00 | 0.00 | 0.00 | 92 | 1010.3 |
| 20260508093226 | 0 | 0 | 0.0 | 0.0 | 0.00 | 0.00 | 0.00 | 92 | 1010.3 |
| 20260508093105 | 0 | 0 | 0.0 | 0.0 | 0.00 | 0.00 | 0.00 | 92 | 1010.3 |
| 20260508093005 | 0 | 0 | 0.0 | 0.0 | 0.00 | 0.00 | 0.00 | 92 | 1010.3 |
| 20260508092906 | 0 | 0 | 0.0 | 0.0 | 0.00 | 0.00 | 0.00 | 92 | 1010.4 |
| 20260508092805 | 0 | 0 | 0.0 | 0.0 | 0.00 | 0.00 | 0.00 | 92 | 1010.4 |
| 20260508092705 | 0 | 0 | 0.0 | 0.0 | 0.00 | 0.00 | 0.00 | 92 | 1010.4 |
| 20260508092605 | 0 | 0 | 0.0 | 0.0 | 0.00 | 0.00 | 0.00 | 92 | 1010.4 |
| 20260508092505 | 0 | 0 | 0.0 | 0.0 | 0.00 | 0.00 | 0.00 | 92 | 1010.4 |
| 20260508092405 | 0 | 0 | 0.0 | 0.0 | 0.00 | 0.00 | 0.00 | 92 | 1010.4 |
| 20260508092312 | 0 | 0 | 0.0 | 0.0 | 0.00 | 0.00 | 0.00 | 92 | 1010.4 |
| 20260508092205 | 0 | 0 | 0.0 | 0.0 | 0.00 | 0.00 | 0.00 | 92 | 1010.4 |
| 20260508092105 | 0 | 0 | 0.0 | 0.0 | 0.00 | 0.00 | 0.00 | 92 | 1010.4 |
| 20260508092005 | 0 | 0 | 0.0 | 0.0 | 0.00 | 0.00 | 0.00 | 92 | 1010.4 |
| 20260508091905 | 0 | 0 | 0.0 | 0.0 | 0.00 | 0.00 | 0.00 | 92 | 1010.4 |
| 20260508091826 | 0 | 0 | 0.0 | 0.0 | 0.00 | 0.00 | 0.00 | 92 | 1010.4 |
| 20260508091705 | 0 | 0 | 0.0 | 0.0 | 0.00 | 0.00 | 0.00 | 91 | 1010.4 |
| 20260508091626 | 0 | 0 | 0.0 | 0.0 | 0.00 | 0.00 | 0.00 | 91 | 1010.4 |
| 20260508091505 | 0 | 0 | 0.0 | 0.0 | 0.00 | 0.00 | 0.00 | 91 | 1010.4 |
| 20260508091405 | 0 | 0 | 0.0 | 0.0 | 0.00 | 0.00 | 0.00 | 91 | 1010.5 |
| 20260508091305 | 0 | 0 | 0.0 | 0.0 | 0.00 | 0.00 | 0.00 | 91 | 1010.5 |
| 20260508091205 | 0 | 0 | 0.0 | 0.0 | 0.00 | 0.00 | 0.00 | 91 | 1010.5 |
| 20260508091126 | 0 | 0 | 0.0 | 0.0 | 0.00 | 0.00 | 0.00 | 91 | 1010.6 |
| 20260508091005 | 0 | 0 | 0.0 | 0.0 | 0.00 | 0.00 | 0.00 | 91 | 1010.6 |
| 20260508090905 | 0 | 0 | 0.0 | 0.0 | 0.00 | 0.00 | 0.00 | 91 | 1010.5 |
| 20260508090805 | 0 | 0 | 0.0 | 0.0 | 0.00 | 0.00 | 0.00 | 91 | 1010.5 |
| 20260508090726 | 0 | 0 | 0.0 | 0.0 | 0.00 | 0.00 | 0.00 | 91 | 1010.5 |
| 20260508090605 | 0 | 0 | 0.0 | 0.0 | 0.00 | 0.00 | 0.00 | 91 | 1010.5 |
| 20260508090506 | 0 | 0 | 0.0 | 0.0 | 0.00 | 0.00 | 0.00 | 91 | 1010.5 |
| 20260508090405 | 0 | 0 | 0.0 | 0.0 | 0.00 | 0.00 | 0.00 | 91 | 1010.5 |
| 20260508090326 | 0 | 0 | 0.0 | 0.0 | 0.00 | 0.00 | 0.00 | 91 | 1010.5 |
| 20260508090226 | 0 | 0 | 0.0 | 0.0 | 0.00 | 0.00 | 0.00 | 91 | 1010.5 |
| 20260508090105 | 0 | 0 | 0.0 | 0.0 | 0.00 | 0.00 | 0.00 | 91 | 1010.5 |
| 20260508090005 | 0 | 0 | 0.0 | 0.0 | 0.00 | 0.00 | 0.00 | 91 | 1010.6 |
| 20260508085905 | 0 | 0 | 0.0 | 0.0 | 0.00 | 0.00 | 0.00 | 91 | 1010.6 |
| 20260508085805 | 0 | 0 | 0.0 | 0.0 | 0.00 | 0.00 | 0.00 | 91 | 1010.6 |
| 20260508085705 | 0 | 0 | 0.0 | 0.0 | 0.00 | 0.00 | 0.00 | 91 | 1010.6 |
| 20260508085626 | 0 | 0 | 0.0 | 0.0 | 0.00 | 0.00 | 0.00 | 91 | 1010.5 |
| 20260508085505 | 0 | 0 | 0.0 | 0.0 | 0.00 | 0.00 | 0.00 | 91 | 1010.5 |
| 20260508085405 | 0 | 0 | 0.0 | 0.0 | 0.00 | 0.00 | 0.00 | 91 | 1010.5 |
| 20260508085307 | 0 | 0 | 0.0 | 0.0 | 0.00 | 0.00 | 0.00 | 91 | 1010.6 |
| 20260508085205 | 0 | 0 | 0.0 | 0.0 | 0.00 | 0.00 | 0.00 | 91 | 1010.6 |
| 20260508085105 | 0 | 0 | 0.0 | 0.0 | 0.00 | 0.00 | 0.00 | 91 | 1010.5 |
| 20260508085026 | 0 | 0 | 0.0 | 0.0 | 0.00 | 0.00 | 0.00 | 91 | 1010.5 |
| 20260508084905 | 0 | 0 | 0.0 | 0.0 | 0.00 | 0.00 | 0.00 | 90 | 1010.6 |
| 20260508084826 | 0 | 0 | 0.0 | 0.0 | 0.00 | 0.00 | 0.00 | 90 | 1010.6 |
| 20260508084705 | 0 | 0 | 0.0 | 0.0 | 0.00 | 0.00 | 0.00 | 90 | 1010.6 |
| 20260508084605 | 0 | 0 | 0.0 | 0.0 | 0.00 | 0.00 | 0.00 | 90 | 1010.6 |
| 20260508084505 | 0 | 0 | 0.0 | 0.0 | 0.00 | 0.00 | 0.00 | 90 | 1010.6 |
| 20260508084405 | 0 | 0 | 0.0 | 0.0 | 0.00 | 0.00 | 0.00 | 90 | 1010.6 |
| 20260508084305 | 0 | 0 | 0.0 | 0.0 | 0.00 | 0.00 | 0.00 | 90 | 1010.6 |
| 20260508084205 | 0 | 0 | 0.0 | 0.0 | 0.00 | 0.00 | 0.00 | 90 | 1010.6 |
| 20260508084105 | 0 | 0 | 0.0 | 0.0 | 0.00 | 0.00 | 0.00 | 90 | 1010.6 |
| 20260508084005 | 0 | 0 | 0.0 | 0.0 | 0.00 | 0.00 | 0.00 | 90 | 1010.6 |
| 20260508083905 | 0 | 0 | 0.0 | 0.0 | 0.00 | 0.00 | 0.00 | 90 | 1010.6 |
| 20260508083805 | 0 | 0 | 0.0 | 0.0 | 0.00 | 0.00 | 0.00 | 90 | 1010.6 |
| 20260508083705 | 0 | 0 | 0.0 | 0.0 | 0.00 | 0.00 | 0.00 | 90 | 1010.6 |
| 20260508083605 | 0 | 0 | 0.0 | 0.0 | 0.00 | 0.00 | 0.00 | 90 | 1010.6 |
| 20260508083505 | 0 | 0 | 0.0 | 0.0 | 0.00 | 0.00 | 0.00 | 89 | 1010.6 |
| 20260508083405 | 0 | 0 | 0.0 | 0.0 | 0.00 | 0.00 | 0.00 | 89 | 1010.6 |
| 20260508083305 | 0 | 0 | 0.0 | 0.0 | 0.00 | 0.00 | 0.00 | 89 | 1010.6 |
| 20260508083205 | 0 | 0 | 0.0 | 0.0 | 0.00 | 0.00 | 0.00 | 89 | 1010.6 |
| 20260508083105 | 0 | 0 | 0.0 | 0.0 | 0.00 | 0.00 | 0.00 | 89 | 1010.6 |
| 20260508083026 | 0 | 0 | 0.0 | 0.0 | 0.00 | 0.00 | 0.00 | 89 | 1010.6 |
| 20260508082926 | 0 | 0 | 0.0 | 0.0 | 0.00 | 0.00 | 0.00 | 90 | 1010.6 |
| 20260508082806 | 0 | 0 | 0.0 | 0.0 | 0.00 | 0.00 | 0.00 | 90 | 1010.6 |
| 20260508082705 | 0 | 0 | 0.0 | 0.0 | 0.00 | 0.00 | 0.00 | 90 | 1010.6 |
| 20260508082605 | 0 | 0 | 0.0 | 0.0 | 0.00 | 0.00 | 0.00 | 90 | 1010.6 |
| 20260508082505 | 0 | 0 | 0.0 | 0.0 | 0.00 | 0.00 | 0.00 | 89 | 1010.6 |
| 20260508082405 | 0 | 0 | 0.0 | 0.0 | 0.00 | 0.00 | 0.00 | 89 | 1010.6 |
| 20260508082306 | 0 | 0 | 0.0 | 0.0 | 0.00 | 0.00 | 0.00 | 89 | 1010.6 |
| 20260508082205 | 0 | 0 | 0.0 | 0.0 | 0.00 | 0.00 | 0.00 | 89 | 1010.7 |
| 20260508082105 | 0 | 0 | 0.0 | 0.0 | 0.00 | 0.00 | 0.00 | 89 | 1010.7 |
| 20260508082005 | 0 | 0 | 0.0 | 0.0 | 0.00 | 0.00 | 0.00 | 89 | 1010.7 |
| 20260508081926 | 0 | 0 | 0.0 | 0.0 | 0.00 | 0.00 | 0.00 | 89 | 1010.7 |
| 20260508081805 | 1 | 0 | 0.0 | 0.0 | 0.00 | 0.00 | 0.00 | 89 | 1010.7 |
| 20260508081726 | 1 | 0 | 0.0 | 0.0 | 0.00 | 0.00 | 0.00 | 89 | 1010.7 |
| 20260508081605 | 1 | 0 | 0.0 | 0.0 | 0.00 | 0.00 | 0.00 | 89 | 1010.7 |
| 20260508081505 | 1 | 0 | 0.0 | 0.0 | 0.00 | 0.00 | 0.00 | 89 | 1010.6 |
| 20260508081405 | 1 | 0 | 0.0 | 0.0 | 0.00 | 0.00 | 0.00 | 89 | 1010.7 |
| 20260508081326 | 1 | 0 | 0.0 | 0.0 | 0.00 | 0.00 | 0.00 | 89 | 1010.7 |
| 20260508081205 | 1 | 0 | 0.0 | 0.0 | 0.00 | 0.00 | 0.00 | 89 | 1010.7 |
| 20260508081105 | 1 | 0 | 0.0 | 0.0 | 0.00 | 0.00 | 0.00 | 89 | 1010.7 |
| 20260508081005 | 1 | 0 | 0.0 | 0.0 | 0.00 | 0.00 | 0.00 | 89 | 1010.7 |
| 20260508080926 | 1 | 0 | 0.0 | 0.0 | 0.00 | 0.00 | 0.00 | 89 | 1010.8 |
| 20260508080805 | 1 | 0 | 0.0 | 0.0 | 0.00 | 0.00 | 0.00 | 89 | 1010.8 |
| 20260508080705 | 1 | 0 | 0.0 | 0.0 | 0.00 | 0.00 | 0.00 | 89 | 1010.8 |
| 20260508080605 | 1 | 0 | 0.0 | 0.0 | 0.00 | 0.00 | 0.00 | 89 | 1010.8 |
| 20260508080526 | 1 | 0 | 0.0 | 0.0 | 0.00 | 0.00 | 0.00 | 89 | 1010.8 |
| 20260508080405 | 1 | 0 | 0.0 | 0.0 | 0.00 | 0.00 | 0.00 | 89 | 1010.8 |
| 20260508080305 | 1 | 0 | 0.0 | 0.0 | 0.00 | 0.00 | 0.00 | 89 | 1010.8 |
| 20260508080205 | 1 | 0 | 0.0 | 0.0 | 0.00 | 0.00 | 0.00 | 89 | 1010.8 |
| 20260508080105 | 1 | 0 | 0.0 | 0.0 | 0.00 | 0.00 | 0.00 | 89 | 1010.8 |
| 20260508080005 | 1 | 0 | 0.0 | 0.0 | 0.00 | 0.00 | 0.00 | 89 | 1010.8 |
| 20260508075905 | 1 | 0 | 0.0 | 0.0 | 0.00 | 0.00 | 0.00 | 89 | 1010.8 |
| 20260508075805 | 1 | 0 | 0.0 | 0.0 | 0.00 | 0.00 | 0.00 | 89 | 1010.8 |
| 20260508075726 | 1 | 0 | 0.0 | 0.0 | 0.00 | 0.00 | 0.00 | 89 | 1010.8 |
| 20260508075605 | 1 | 0 | 0.0 | 0.0 | 0.00 | 0.00 | 0.00 | 89 | 1010.8 |
| 20260508075505 | 1 | 0 | 0.0 | 0.0 | 0.00 | 0.00 | 0.00 | 89 | 1010.8 |
| 20260508075405 | 1 | 0 | 0.0 | 0.0 | 0.00 | 0.00 | 0.00 | 89 | 1010.7 |
| 20260508075326 | 1 | 0 | 0.0 | 0.0 | 0.00 | 0.00 | 0.00 | 89 | 1010.7 |
| 20260508075205 | 1 | 0 | 0.0 | 0.0 | 0.00 | 0.00 | 0.00 | 88 | 1010.8 |
| 20260508075105 | 1 | 0 | 0.0 | 0.0 | 0.00 | 0.00 | 0.00 | 88 | 1010.8 |
| 20260508075005 | 1 | 0 | 0.0 | 0.0 | 0.00 | 0.00 | 0.00 | 88 | 1010.8 |
| 20260508074905 | 1 | 0 | 0.0 | 0.0 | 0.00 | 0.00 | 0.00 | 88 | 1010.8 |
| 20260508074805 | 1 | 0 | 0.0 | 0.0 | 0.00 | 0.00 | 0.00 | 88 | 1010.8 |
| 20260508074705 | 1 | 0 | 0.0 | 0.0 | 0.00 | 0.00 | 0.00 | 88 | 1010.8 |
| 20260508074605 | 1 | 0 | 0.0 | 0.0 | 0.00 | 0.00 | 0.00 | 88 | 1010.7 |
| 20260508074505 | 1 | 0 | 0.0 | 0.0 | 0.00 | 0.00 | 0.00 | 88 | 1010.7 |
| 20260508074405 | 1 | 0 | 0.0 | 0.0 | 0.00 | 0.00 | 0.00 | 88 | 1010.7 |
| 20260508074305 | 1 | 0 | 0.0 | 0.0 | 0.00 | 0.00 | 0.00 | 88 | 1010.8 |
| 20260508074205 | 1 | 0 | 0.0 | 0.0 | 0.00 | 0.00 | 0.00 | 88 | 1010.8 |
| 20260508074126 | 1 | 0 | 0.0 | 0.0 | 0.00 | 0.00 | 0.00 | 88 | 1010.8 |
| 20260508074005 | 1 | 0 | 0.0 | 0.0 | 0.00 | 0.00 | 0.00 | 88 | 1010.8 |
| 20260508073905 | 1 | 0 | 0.0 | 0.0 | 0.00 | 0.00 | 0.00 | 88 | 1010.8 |
| 20260508073805 | 1 | 0 | 0.0 | 0.0 | 0.00 | 0.00 | 0.00 | 88 | 1010.8 |
| 20260508073705 | 1 | 0 | 0.0 | 0.0 | 0.00 | 0.00 | 0.00 | 88 | 1010.8 |
| 20260508073605 | 1 | 0 | 0.0 | 0.0 | 0.00 | 0.00 | 0.00 | 88 | 1010.8 |
| 20260508073505 | 1 | 0 | 0.0 | 0.0 | 0.00 | 0.00 | 0.00 | 88 | 1010.8 |
| 20260508073405 | 1 | 0 | 0.0 | 0.0 | 0.00 | 0.00 | 0.00 | 88 | 1010.8 |
| 20260508073305 | 1 | 0 | 0.0 | 0.0 | 0.00 | 0.00 | 0.00 | 88 | 1010.8 |
| 20260508073205 | 1 | 0 | 0.0 | 0.0 | 0.00 | 0.00 | 0.00 | 88 | 1010.8 |
| 20260508073126 | 1 | 0 | 0.0 | 0.0 | 0.00 | 0.00 | 0.00 | 88 | 1010.8 |
| 20260508073004 | 1 | 0 | 0.0 | 0.0 | 0.00 | 0.00 | 0.00 | 88 | 1010.8 |
| 20260508072905 | 1 | 0 | 0.0 | 0.0 | 0.00 | 0.00 | 0.00 | 88 | 1010.8 |
| 20260508072805 | 1 | 0 | 0.0 | 0.0 | 0.00 | 0.00 | 0.00 | 88 | 1010.8 |
| 20260508072726 | 1 | 0 | 0.0 | 0.0 | 0.00 | 0.00 | 0.00 | 88 | 1010.8 |
| 20260508072605 | 1 | 0 | 0.0 | 0.0 | 0.00 | 0.00 | 0.00 | 88 | 1010.8 |
| 20260508072505 | 1 | 0 | 0.0 | 0.0 | 0.00 | 0.00 | 0.00 | 88 | 1010.7 |
| 20260508072405 | 1 | 0 | 0.0 | 0.0 | 0.00 | 0.00 | 0.00 | 88 | 1010.7 |
| 20260508072307 | 1 | 0 | 0.0 | 0.0 | 0.00 | 0.00 | 0.00 | 88 | 1010.8 |
| 20260508072205 | 1 | 0 | 0.0 | 0.0 | 0.00 | 0.00 | 0.00 | 88 | 1010.8 |
| 20260508072105 | 1 | 0 | 0.0 | 0.0 | 0.00 | 0.00 | 0.00 | 88 | 1010.7 |
| 20260508072005 | 1 | 0 | 0.0 | 0.0 | 0.00 | 0.00 | 0.00 | 88 | 1010.8 |
| 20260508071905 | 1 | 0 | 0.0 | 0.0 | 0.00 | 0.00 | 0.00 | 88 | 1010.8 |
| 20260508071805 | 1 | 0 | 0.0 | 0.0 | 0.00 | 0.00 | 0.00 | 87 | 1010.8 |
| 20260508071705 | 1 | 0 | 0.0 | 0.0 | 0.00 | 0.00 | 0.00 | 87 | 1010.8 |
| 20260508071605 | 1 | 0 | 0.0 | 0.0 | 0.00 | 0.00 | 0.00 | 87 | 1010.8 |
| 20260508071505 | 1 | 0 | 0.0 | 0.0 | 0.00 | 0.00 | 0.00 | 87 | 1010.8 |
| 20260508071405 | 1 | 0 | 0.0 | 0.0 | 0.00 | 0.00 | 0.00 | 87 | 1010.8 |
| 20260508071305 | 1 | 0 | 0.0 | 0.0 | 0.00 | 0.00 | 0.00 | 87 | 1010.8 |
| 20260508071226 | 1 | 0 | 0.0 | 0.0 | 0.00 | 0.00 | 0.00 | 87 | 1010.8 |
| 20260508071105 | 1 | 0 | 0.0 | 0.0 | 0.00 | 0.00 | 0.00 | 87 | 1010.9 |
| 20260508071006 | 1 | 0 | 0.0 | 0.0 | 0.00 | 0.00 | 0.00 | 87 | 1010.9 |
| 20260508070905 | 1 | 0 | 0.0 | 0.0 | 0.00 | 0.00 | 0.00 | 87 | 1010.9 |
| 20260508070804 | 1 | 0 | 0.0 | 0.0 | 0.00 | 0.00 | 0.00 | 87 | 1010.9 |
| 20260508070704 | 1 | 0 | 0.0 | 0.0 | 0.00 | 0.00 | 0.00 | 87 | 1010.9 |
| 20260508070605 | 1 | 0 | 0.0 | 0.0 | 0.00 | 0.00 | 0.00 | 87 | 1010.9 |
| 20260508070505 | 1 | 0 | 0.0 | 0.0 | 0.00 | 0.00 | 0.00 | 87 | 1010.9 |
| 20260508070426 | 1 | 0 | 0.0 | 0.0 | 0.00 | 0.00 | 0.00 | 87 | 1010.9 |
| 20260508070305 | 1 | 0 | 0.0 | 0.0 | 0.00 | 0.00 | 0.00 | 87 | 1010.9 |
| 20260508070204 | 1 | 0 | 0.0 | 0.0 | 0.00 | 0.00 | 0.00 | 87 | 1011.0 |
| 20260508070126 | 1 | 0 | 0.0 | 0.0 | 0.00 | 0.00 | 0.00 | 87 | 1011.0 |
| 20260508070026 | 2 | 0 | 0.0 | 0.0 | 0.00 | 0.00 | 0.00 | 87 | 1011.0 |
| 20260508065905 | 2 | 0 | 0.0 | 0.0 | 0.00 | 0.00 | 0.00 | 86 | 1011.0 |
| 20260508065826 | 2 | 0 | 0.0 | 0.0 | 0.00 | 0.00 | 0.00 | 86 | 1011.0 |
| 20260508065705 | 2 | 0 | 0.0 | 0.0 | 0.00 | 0.00 | 0.00 | 86 | 1011.1 |
| 20260508065626 | 2 | 0 | 0.0 | 0.0 | 0.00 | 0.00 | 0.00 | 86 | 1011.1 |
| 20260508065505 | 2 | 0 | 0.0 | 0.0 | 0.00 | 0.00 | 0.00 | 86 | 1011.0 |
| 20260508065426 | 2 | 0 | 0.0 | 0.0 | 0.00 | 0.00 | 0.00 | 86 | 1011.0 |
| 20260508065307 | 2 | 0 | 0.0 | 0.0 | 0.00 | 0.00 | 0.00 | 86 | 1011.0 |
| 20260508065225 | 2 | 0 | 0.0 | 0.0 | 0.00 | 0.00 | 0.00 | 86 | 1011.0 |
| 20260508065105 | 2 | 0 | 0.0 | 0.0 | 0.00 | 0.00 | 0.00 | 86 | 1011.0 |
| 20260508065026 | 2 | 0 | 0.0 | 0.0 | 0.00 | 0.00 | 0.00 | 86 | 1011.1 |
| 20260508064905 | 2 | 0 | 0.0 | 0.0 | 0.00 | 0.00 | 0.00 | 86 | 1011.0 |
| 20260508064825 | 2 | 0 | 0.0 | 0.0 | 0.00 | 0.00 | 0.00 | 86 | 1011.0 |
| 20260508064705 | 2 | 0 | 0.0 | 0.0 | 0.00 | 0.00 | 0.00 | 86 | 1011.0 |
| 20260508064605 | 2 | 0 | 0.0 | 0.0 | 0.00 | 0.00 | 0.00 | 86 | 1011.0 |
| 20260508064505 | 2 | 0 | 0.0 | 0.0 | 0.00 | 0.00 | 0.00 | 86 | 1011.0 |
| 20260508064405 | 2 | 0 | 0.0 | 0.0 | 0.00 | 0.00 | 0.00 | 86 | 1011.0 |
| 20260508064304 | 2 | 0 | 0.0 | 0.0 | 0.00 | 0.00 | 0.00 | 86 | 1011.0 |
| 20260508064205 | 2 | 0 | 0.0 | 0.0 | 0.00 | 0.00 | 0.00 | 86 | 1010.9 |
| 20260508064105 | 2 | 0 | 0.0 | 0.0 | 0.00 | 0.00 | 0.00 | 86 | 1011.0 |
| 20260508064004 | 2 | 0 | 0.0 | 0.0 | 0.00 | 0.00 | 0.00 | 86 | 1011.0 |
| 20260508063905 | 2 | 0 | 0.0 | 0.0 | 0.00 | 0.00 | 0.00 | 85 | 1010.9 |
| 20260508063806 | 2 | 0 | 0.0 | 0.0 | 0.00 | 0.00 | 0.00 | 85 | 1010.9 |
| 20260508063705 | 2 | 0 | 0.0 | 0.0 | 0.00 | 0.00 | 0.00 | 85 | 1011.0 |
| 20260508063605 | 2 | 0 | 0.0 | 0.0 | 0.00 | 0.00 | 0.00 | 85 | 1011.0 |
| 20260508063505 | 2 | 0 | 0.0 | 0.0 | 0.00 | 0.00 | 0.00 | 85 | 1011.0 |
| 20260508063404 | 2 | 0 | 0.0 | 0.0 | 0.00 | 0.00 | 0.00 | 85 | 1011.1 |
| 20260508063305 | 2 | 0 | 0.0 | 0.0 | 0.00 | 0.00 | 0.00 | 85 | 1011.1 |
| 20260508063205 | 2 | 0 | 0.0 | 0.0 | 0.00 | 0.00 | 0.00 | 85 | 1011.1 |
| 20260508063105 | 2 | 0 | 0.0 | 0.0 | 0.00 | 0.00 | 0.00 | 85 | 1011.1 |
| 20260508063025 | 2 | 0 | 0.0 | 0.0 | 0.00 | 0.00 | 0.00 | 85 | 1011.1 |
| 20260508062926 | 2 | 0 | 0.0 | 0.0 | 0.00 | 0.00 | 0.00 | 85 | 1011.1 |
| 20260508062805 | 2 | 0 | 0.0 | 0.0 | 0.00 | 0.00 | 0.00 | 85 | 1011.1 |
| 20260508062726 | 2 | 0 | 0.0 | 0.0 | 0.00 | 0.00 | 0.00 | 85 | 1011.1 |
| 20260508062626 | 2 | 0 | 0.0 | 0.0 | 0.00 | 0.00 | 0.00 | 85 | 1011.1 |
| 20260508062505 | 2 | 0 | 0.0 | 0.0 | 0.00 | 0.00 | 0.00 | 85 | 1011.1 |
| 20260508062425 | 2 | 0 | 0.0 | 0.0 | 0.00 | 0.00 | 0.00 | 85 | 1011.1 |
| 20260508062306 | 2 | 0 | 0.0 | 0.0 | 0.00 | 0.00 | 0.00 | 85 | 1011.1 |
| 20260508062226 | 2 | 0 | 0.0 | 0.0 | 0.00 | 0.00 | 0.00 | 85 | 1011.1 |
| 20260508062104 | 2 | 0 | 0.0 | 0.0 | 0.00 | 0.00 | 0.00 | 85 | 1011.1 |
| 20260508062005 | 2 | 0 | 0.0 | 0.0 | 0.00 | 0.00 | 0.00 | 85 | 1011.1 |
| 20260508061904 | 2 | 0 | 0.0 | 0.0 | 0.00 | 0.00 | 0.00 | 86 | 1011.1 |
| 20260508061805 | 2 | 0 | 0.0 | 0.0 | 0.00 | 0.00 | 0.00 | 86 | 1011.1 |
| 20260508061705 | 2 | 0 | 0.0 | 0.0 | 0.00 | 0.00 | 0.00 | 86 | 1011.1 |
| 20260508061604 | 2 | 0 | 0.0 | 0.0 | 0.00 | 0.00 | 0.00 | 86 | 1011.1 |
| 20260508061504 | 2 | 0 | 0.0 | 0.0 | 0.00 | 0.00 | 0.00 | 86 | 1011.1 |
| 20260508061405 | 2 | 0 | 0.0 | 0.0 | 0.00 | 0.00 | 0.00 | 85 | 1011.1 |
| 20260508061305 | 2 | 0 | 0.0 | 0.0 | 0.00 | 0.00 | 0.00 | 85 | 1011.1 |
| 20260508061204 | 2 | 0 | 0.0 | 0.0 | 0.00 | 0.00 | 0.00 | 85 | 1011.1 |
| 20260508061105 | 2 | 0 | 0.0 | 0.0 | 0.00 | 0.00 | 0.00 | 85 | 1011.1 |
| 20260508061005 | 2 | 0 | 0.0 | 0.0 | 0.00 | 0.00 | 0.00 | 85 | 1011.1 |
| 20260508060926 | 2 | 0 | 0.0 | 0.0 | 0.00 | 0.00 | 0.00 | 85 | 1011.1 |
| 20260508060805 | 2 | 0 | 0.0 | 0.0 | 0.00 | 0.00 | 0.00 | 85 | 1011.1 |
| 20260508060726 | 2 | 0 | 0.0 | 0.0 | 0.00 | 0.00 | 0.00 | 85 | 1011.1 |
| 20260508060605 | 2 | 0 | 0.0 | 0.0 | 0.00 | 0.00 | 0.00 | 85 | 1011.2 |
| 20260508060505 | 2 | 0 | 0.0 | 0.0 | 0.00 | 0.00 | 0.00 | 85 | 1011.2 |
| 20260508060427 | 2 | 0 | 0.0 | 0.0 | 0.00 | 0.00 | 0.00 | 85 | 1011.2 |
| 20260508060306 | 2 | 0 | 0.0 | 0.0 | 0.00 | 0.00 | 0.00 | 85 | 1011.2 |
| 20260508060205 | 2 | 0 | 0.0 | 0.0 | 0.00 | 0.00 | 0.00 | 85 | 1011.2 |
| 20260508060125 | 2 | 0 | 0.0 | 0.0 | 0.00 | 0.00 | 0.00 | 85 | 1011.2 |
| 20260508060005 | 2 | 0 | 0.0 | 0.0 | 0.00 | 0.00 | 0.00 | 84 | 1011.2 |
| 20260508055905 | 2 | 0 | 0.0 | 0.0 | 0.00 | 0.00 | 0.00 | 84 | 1011.2 |
| 20260508055805 | 2 | 0 | 0.0 | 0.0 | 0.00 | 0.00 | 0.00 | 84 | 1011.2 |
| 20260508055704 | 2 | 0 | 0.0 | 0.0 | 0.00 | 0.00 | 0.00 | 84 | 1011.2 |
| 20260508055604 | 2 | 0 | 0.0 | 0.0 | 0.00 | 0.00 | 0.00 | 84 | 1011.2 |
| 20260508055526 | 2 | 0 | 0.0 | 0.0 | 0.00 | 0.00 | 0.00 | 84 | 1011.2 |
| 20260508055426 | 2 | 0 | 0.0 | 0.0 | 0.00 | 0.00 | 0.00 | 84 | 1011.3 |
| 20260508055326 | 2 | 0 | 0.0 | 0.0 | 0.00 | 0.00 | 0.00 | 84 | 1011.2 |
| 20260508055205 | 2 | 0 | 0.0 | 0.0 | 0.00 | 0.00 | 0.00 | 84 | 1011.2 |
| 20260508055125 | 2 | 0 | 0.0 | 0.0 | 0.00 | 0.00 | 0.00 | 84 | 1011.2 |
| 20260508055005 | 2 | 0 | 0.0 | 0.0 | 0.00 | 0.00 | 0.00 | 84 | 1011.2 |
| 20260508054905 | 2 | 0 | 0.0 | 0.0 | 0.00 | 0.00 | 0.00 | 83 | 1011.2 |
| 20260508054805 | 2 | 0 | 0.0 | 0.0 | 0.00 | 0.00 | 0.00 | 83 | 1011.2 |
| 20260508054705 | 2 | 0 | 0.0 | 0.0 | 0.00 | 0.00 | 0.00 | 83 | 1011.3 |
| 20260508054604 | 2 | 0 | 0.0 | 0.0 | 0.00 | 0.00 | 0.00 | 83 | 1011.3 |
| 20260508054504 | 2 | 0 | 0.0 | 0.0 | 0.00 | 0.00 | 0.00 | 83 | 1011.3 |
| 20260508054405 | 2 | 0 | 0.0 | 0.0 | 0.00 | 0.00 | 0.00 | 83 | 1011.3 |
| 20260508054305 | 2 | 0 | 0.0 | 0.0 | 0.00 | 0.00 | 0.00 | 82 | 1011.3 |
| 20260508054205 | 2 | 0 | 0.0 | 0.0 | 0.00 | 0.00 | 0.00 | 83 | 1011.3 |
| 20260508054105 | 2 | 0 | 0.0 | 0.0 | 0.00 | 0.00 | 0.00 | 83 | 1011.3 |
| 20260508054004 | 2 | 0 | 0.0 | 0.0 | 0.00 | 0.00 | 0.00 | 83 | 1011.3 |
| 20260508053905 | 2 | 0 | 0.0 | 0.0 | 0.00 | 0.00 | 0.00 | 83 | 1011.3 |
| 20260508053805 | 2 | 0 | 0.0 | 0.0 | 0.00 | 0.00 | 0.00 | 83 | 1011.3 |
| 20260508053705 | 2 | 0 | 0.0 | 0.0 | 0.00 | 0.00 | 0.00 | 83 | 1011.3 |
| 20260508053604 | 2 | 0 | 0.0 | 0.0 | 0.00 | 0.00 | 0.00 | 83 | 1011.3 |
| 20260508053504 | 2 | 0 | 0.0 | 0.0 | 0.00 | 0.00 | 0.00 | 83 | 1011.3 |
| 20260508053404 | 2 | 0 | 0.0 | 0.0 | 0.00 | 0.00 | 0.00 | 83 | 1011.3 |
| 20260508053305 | 2 | 0 | 0.0 | 0.0 | 0.00 | 0.00 | 0.00 | 83 | 1011.3 |
| 20260508053205 | 2 | 0 | 0.0 | 0.0 | 0.00 | 0.00 | 0.00 | 83 | 1011.3 |
| 20260508053105 | 2 | 0 | 0.0 | 0.0 | 0.00 | 0.00 | 0.00 | 83 | 1011.3 |
| 20260508053004 | 2 | 0 | 0.0 | 0.0 | 0.00 | 0.00 | 0.00 | 83 | 1011.3 |
| 20260508052904 | 2 | 0 | 0.0 | 0.0 | 0.00 | 0.00 | 0.00 | 83 | 1011.3 |
| 20260508052805 | 2 | 0 | 0.0 | 0.0 | 0.00 | 0.00 | 0.00 | 83 | 1011.3 |
| 20260508052705 | 2 | 0 | 0.0 | 0.0 | 0.00 | 0.00 | 0.00 | 83 | 1011.3 |
| 20260508052605 | 2 | 0 | 0.0 | 0.0 | 0.00 | 0.00 | 0.00 | 83 | 1011.3 |
| 20260508052504 | 2 | 0 | 0.0 | 0.0 | 0.00 | 0.00 | 0.00 | 83 | 1011.3 |
| 20260508052404 | 2 | 0 | 0.0 | 0.0 | 0.00 | 0.00 | 0.00 | 83 | 1011.3 |
| 20260508052307 | 2 | 0 | 0.0 | 0.0 | 0.00 | 0.00 | 0.00 | 83 | 1011.3 |
| 20260508052226 | 2 | 0 | 0.0 | 0.0 | 0.00 | 0.00 | 0.00 | 83 | 1011.3 |
| 20260508052105 | 2 | 0 | 0.0 | 0.0 | 0.00 | 0.00 | 0.00 | 83 | 1011.3 |
| 20260508052005 | 2 | 0 | 0.0 | 0.0 | 0.00 | 0.00 | 0.00 | 82 | 1011.3 |
| 20260508051904 | 2 | 0 | 0.0 | 0.0 | 0.00 | 0.00 | 0.00 | 82 | 1011.3 |
| 20260508051804 | 2 | 0 | 0.0 | 0.0 | 0.00 | 0.00 | 0.00 | 83 | 1011.3 |
| 20260508051704 | 2 | 0 | 0.0 | 0.0 | 0.00 | 0.00 | 0.00 | 83 | 1011.3 |
| 20260508051605 | 2 | 0 | 0.0 | 0.0 | 0.00 | 0.00 | 0.00 | 83 | 1011.3 |
| 20260508051505 | 2 | 0 | 0.0 | 0.0 | 0.00 | 0.00 | 0.00 | 82 | 1011.3 |
| 20260508051404 | 2 | 0 | 0.0 | 0.0 | 0.00 | 0.00 | 0.00 | 82 | 1011.4 |
| 20260508051304 | 2 | 0 | 0.0 | 0.0 | 0.00 | 0.00 | 0.00 | 82 | 1011.4 |
| 20260508051226 | 2 | 0 | 0.0 | 0.0 | 0.00 | 0.00 | 0.00 | 82 | 1011.4 |
| 20260508051105 | 2 | 0 | 0.0 | 0.0 | 0.00 | 0.00 | 0.00 | 82 | 1011.4 |
| 20260508051005 | 2 | 0 | 0.0 | 0.0 | 0.00 | 0.00 | 0.00 | 82 | 1011.4 |
| 20260508050904 | 2 | 0 | 0.0 | 0.0 | 0.00 | 0.00 | 0.00 | 82 | 1011.5 |
| 20260508050825 | 2 | 0 | 0.0 | 0.0 | 0.00 | 0.00 | 0.00 | 82 | 1011.5 |
| 20260508050705 | 2 | 0 | 0.0 | 0.0 | 0.00 | 0.00 | 0.00 | 82 | 1011.5 |
| 20260508050605 | 2 | 0 | 0.0 | 0.0 | 0.00 | 0.00 | 0.00 | 82 | 1011.5 |
| 20260508050505 | 2 | 0 | 0.0 | 0.0 | 0.00 | 0.00 | 0.00 | 82 | 1011.5 |
| 20260508050404 | 2 | 0 | 0.0 | 0.0 | 0.00 | 0.00 | 0.00 | 82 | 1011.5 |
| 20260508050304 | 2 | 0 | 0.0 | 0.0 | 0.00 | 0.00 | 0.00 | 82 | 1011.5 |
| 20260508050205 | 2 | 0 | 0.0 | 0.0 | 0.00 | 0.00 | 0.00 | 82 | 1011.5 |
| 20260508050105 | 2 | 0 | 0.0 | 0.0 | 0.00 | 0.00 | 0.00 | 82 | 1011.5 |
| 20260508050005 | 2 | 0 | 0.0 | 0.0 | 0.00 | 0.00 | 0.00 | 82 | 1011.5 |
| 20260508045905 | 3 | 0 | 0.0 | 0.0 | 0.00 | 0.00 | 0.00 | 82 | 1011.5 |
| 20260508045804 | 3 | 0 | 0.0 | 0.0 | 0.00 | 0.00 | 0.00 | 82 | 1011.5 |
| 20260508045726 | 3 | 0 | 0.0 | 0.0 | 0.00 | 0.00 | 0.00 | 82 | 1011.5 |
| 20260508045605 | 3 | 0 | 0.0 | 0.0 | 0.00 | 0.00 | 0.00 | 82 | 1011.6 |
| 20260508045505 | 3 | 0 | 0.0 | 0.0 | 0.00 | 0.00 | 0.00 | 82 | 1011.6 |
| 20260508045404 | 3 | 0 | 0.0 | 0.0 | 0.00 | 0.00 | 0.00 | 81 | 1011.6 |
| 20260508045307 | 3 | 0 | 0.0 | 0.0 | 0.00 | 0.00 | 0.00 | 81 | 1011.6 |
| 20260508045205 | 3 | 0 | 0.0 | 0.0 | 0.00 | 0.00 | 0.00 | 81 | 1011.6 |
| 20260508045104 | 3 | 0 | 0.0 | 0.0 | 0.00 | 0.00 | 0.00 | 81 | 1011.5 |
| 20260508045004 | 3 | 0 | 0.0 | 0.0 | 0.00 | 0.00 | 0.00 | 81 | 1011.5 |
| 20260508044904 | 3 | 0 | 0.0 | 0.0 | 0.00 | 0.00 | 0.00 | 81 | 1011.5 |
| 20260508044804 | 3 | 0 | 0.0 | 0.0 | 0.00 | 0.00 | 0.00 | 81 | 1011.5 |
| 20260508044726 | 3 | 0 | 0.0 | 0.0 | 0.00 | 0.00 | 0.00 | 81 | 1011.5 |
| 20260508044605 | 3 | 0 | 0.0 | 0.0 | 0.00 | 0.00 | 0.00 | 81 | 1011.5 |
| 20260508044505 | 3 | 0 | 0.0 | 0.0 | 0.00 | 0.00 | 0.00 | 81 | 1011.5 |
| 20260508044404 | 3 | 0 | 0.0 | 0.0 | 0.00 | 0.00 | 0.00 | 81 | 1011.5 |
| 20260508044304 | 3 | 0 | 0.0 | 0.0 | 0.00 | 0.00 | 0.00 | 81 | 1011.5 |
| 20260508044226 | 3 | 0 | 0.0 | 0.0 | 0.00 | 0.00 | 0.00 | 81 | 1011.5 |
| 20260508044104 | 3 | 0 | 0.0 | 0.0 | 0.00 | 0.00 | 0.00 | 80 | 1011.5 |
| 20260508044005 | 3 | 0 | 0.0 | 0.0 | 0.00 | 0.00 | 0.00 | 80 | 1011.5 |
| 20260508043925 | 3 | 0 | 0.0 | 0.0 | 0.00 | 0.00 | 0.00 | 80 | 1011.5 |
| 20260508043804 | 3 | 0 | 0.0 | 0.0 | 0.00 | 0.00 | 0.00 | 80 | 1011.4 |
| 20260508043705 | 3 | 0 | 0.0 | 0.0 | 0.00 | 0.00 | 0.00 | 80 | 1011.4 |
| 20260508043604 | 3 | 0 | 0.0 | 0.0 | 0.00 | 0.00 | 0.00 | 79 | 1011.4 |
| 20260508043504 | 3 | 0 | 0.0 | 0.0 | 0.00 | 0.00 | 0.00 | 79 | 1011.4 |
| 20260508043425 | 3 | 0 | 0.0 | 0.0 | 0.00 | 0.00 | 0.00 | 79 | 1011.4 |
| 20260508043325 | 3 | 0 | 0.0 | 0.0 | 0.00 | 0.00 | 0.00 | 79 | 1011.4 |
| 20260508043205 | 3 | 0 | 0.0 | 0.0 | 0.00 | 0.00 | 0.00 | 79 | 1011.4 |
| 20260508043104 | 3 | 0 | 0.0 | 0.0 | 0.00 | 0.00 | 0.00 | 79 | 1011.4 |
| 20260508043004 | 3 | 0 | 0.0 | 0.0 | 0.00 | 0.00 | 0.00 | 79 | 1011.4 |
| 20260508042925 | 3 | 0 | 0.0 | 0.0 | 0.00 | 0.00 | 0.00 | 79 | 1011.4 |
| 20260508042805 | 3 | 0 | 0.0 | 0.0 | 0.00 | 0.00 | 0.00 | 79 | 1011.4 |
| 20260508042704 | 3 | 0 | 0.0 | 0.0 | 0.00 | 0.00 | 0.00 | 78 | 1011.4 |
| 20260508042604 | 3 | 0 | 0.0 | 0.0 | 0.00 | 0.00 | 0.00 | 78 | 1011.4 |
| 20260508042504 | 3 | 0 | 0.0 | 0.0 | 0.00 | 0.00 | 0.00 | 78 | 1011.3 |
| 20260508042404 | 3 | 0 | 0.0 | 0.0 | 0.00 | 0.00 | 0.00 | 78 | 1011.3 |
| 20260508042307 | 3 | 0 | 0.0 | 0.0 | 0.00 | 0.00 | 0.00 | 78 | 1011.3 |
| 20260508042204 | 3 | 0 | 0.0 | 0.0 | 0.00 | 0.00 | 0.00 | 78 | 1011.3 |
| 20260508042105 | 3 | 0 | 0.0 | 0.0 | 0.00 | 0.00 | 0.00 | 78 | 1011.2 |
| 20260508042004 | 3 | 0 | 0.0 | 0.0 | 0.00 | 0.00 | 0.00 | 78 | 1011.2 |
| 20260508041925 | 3 | 0 | 0.0 | 0.0 | 0.00 | 0.00 | 0.00 | 78 | 1011.3 |
| 20260508041804 | 3 | 0 | 0.0 | 0.0 | 0.00 | 0.00 | 0.00 | 77 | 1011.3 |
| 20260508041705 | 3 | 0 | 0.0 | 0.0 | 0.00 | 0.00 | 0.00 | 77 | 1011.3 |
| 20260508041605 | 4 | 0 | 0.0 | 0.0 | 0.00 | 0.00 | 0.00 | 77 | 1011.3 |
| 20260508041505 | 4 | 0 | 0.0 | 0.0 | 0.00 | 0.00 | 0.00 | 77 | 1011.3 |
| 20260508041404 | 4 | 0 | 0.0 | 0.0 | 0.00 | 0.00 | 0.00 | 77 | 1011.3 |
| 20260508041326 | 4 | 0 | 0.0 | 0.0 | 0.00 | 0.00 | 0.00 | 77 | 1011.3 |
| 20260508041204 | 4 | 0 | 0.0 | 0.0 | 0.00 | 0.00 | 0.00 | 77 | 1011.3 |
| 20260508041104 | 4 | 0 | 0.0 | 0.0 | 0.00 | 0.00 | 0.00 | 77 | 1011.3 |
| 20260508041004 | 4 | 0 | 0.0 | 0.0 | 0.00 | 0.00 | 0.00 | 77 | 1011.3 |
| 20260508040925 | 4 | 0 | 0.0 | 0.0 | 0.00 | 0.00 | 0.00 | 77 | 1011.3 |
| 20260508040804 | 4 | 0 | 0.0 | 0.0 | 0.00 | 0.00 | 0.00 | 77 | 1011.2 |
| 20260508040704 | 4 | 0 | 0.0 | 0.0 | 0.00 | 0.00 | 0.00 | 77 | 1011.2 |
| 20260508040626 | 4 | 0 | 0.0 | 0.0 | 0.00 | 0.00 | 0.00 | 77 | 1011.3 |
| 20260508040504 | 4 | 0 | 0.0 | 0.0 | 0.00 | 0.00 | 0.00 | 77 | 1011.3 |
| 20260508040404 | 4 | 0 | 0.0 | 0.0 | 0.00 | 0.00 | 0.00 | 76 | 1011.2 |
| 20260508040305 | 4 | 0 | 0.0 | 0.0 | 0.00 | 0.00 | 0.00 | 76 | 1011.2 |
| 20260508040204 | 4 | 0 | 0.0 | 0.0 | 0.00 | 0.00 | 0.00 | 76 | 1011.2 |
| 20260508040104 | 4 | 0 | 0.0 | 0.0 | 0.00 | 0.00 | 0.00 | 76 | 1011.2 |
| 20260508040028 | 4 | 0 | 0.0 | 0.0 | 0.00 | 0.00 | 0.00 | 76 | 1011.2 |
| 20260508035904 | 4 | 0 | 0.0 | 0.0 | 0.00 | 0.00 | 0.00 | 76 | 1011.2 |
| 20260508035826 | 4 | 0 | 0.0 | 0.0 | 0.00 | 0.00 | 0.00 | 76 | 1011.2 |
| 20260508035704 | 4 | 0 | 0.0 | 0.0 | 0.00 | 0.00 | 0.00 | 75 | 1011.2 |
| 20260508035604 | 4 | 0 | 0.0 | 0.0 | 0.00 | 0.00 | 0.00 | 75 | 1011.2 |
| 20260508035504 | 4 | 0 | 0.0 | 0.0 | 0.00 | 0.00 | 0.00 | 76 | 1011.2 |
| 20260508035404 | 4 | 0 | 0.0 | 0.0 | 0.00 | 0.00 | 0.00 | 76 | 1011.2 |
| 20260508035306 | 4 | 0 | 0.0 | 0.0 | 0.00 | 0.00 | 0.00 | 76 | 1011.2 |
| 20260508035205 | 4 | 0 | 0.0 | 0.0 | 0.00 | 0.00 | 0.00 | 75 | 1011.3 |
| 20260508035104 | 4 | 0 | 0.0 | 0.0 | 0.00 | 0.00 | 0.00 | 75 | 1011.2 |
| 20260508035025 | 4 | 0 | 0.0 | 0.0 | 0.00 | 0.00 | 0.00 | 75 | 1011.2 |
| 20260508034925 | 4 | 0 | 0.0 | 0.0 | 0.00 | 0.00 | 0.00 | 75 | 1011.2 |
| 20260508034804 | 4 | 0 | 0.0 | 0.0 | 0.00 | 0.00 | 0.00 | 75 | 1011.2 |
| 20260508034704 | 4 | 0 | 0.0 | 0.0 | 0.00 | 0.00 | 0.00 | 75 | 1011.2 |
| 20260508034605 | 4 | 0 | 0.0 | 0.0 | 0.00 | 0.00 | 0.00 | 75 | 1011.2 |
| 20260508034505 | 5 | 0 | 0.0 | 0.0 | 0.00 | 0.00 | 0.00 | 75 | 1011.2 |
| 20260508034404 | 5 | 0 | 0.0 | 0.0 | 0.00 | 0.00 | 0.00 | 75 | 1011.2 |
| 20260508034306 | 5 | 0 | 0.0 | 0.0 | 0.00 | 0.00 | 0.00 | 75 | 1011.2 |
| 20260508034226 | 5 | 0 | 0.0 | 0.0 | 0.00 | 0.00 | 0.00 | 75 | 1011.2 |
| 20260508034125 | 5 | 0 | 0.0 | 0.0 | 0.00 | 0.00 | 0.00 | 75 | 1011.2 |
| 20260508034004 | 5 | 0 | 0.0 | 0.0 | 0.00 | 0.00 | 0.00 | 75 | 1011.1 |
| 20260508033925 | 5 | 0 | 0.0 | 0.0 | 0.00 | 0.00 | 0.00 | 75 | 1011.2 |
| 20260508033804 | 5 | 0 | 0.0 | 0.0 | 0.00 | 0.00 | 0.00 | 75 | 1011.2 |
| 20260508033704 | 5 | 0 | 0.0 | 0.0 | 0.00 | 0.00 | 0.00 | 74 | 1011.2 |
| 20260508033604 | 5 | 0 | 0.0 | 0.0 | 0.00 | 0.00 | 0.00 | 74 | 1011.2 |
| 20260508033504 | 5 | 0 | 0.0 | 0.0 | 0.00 | 0.00 | 0.00 | 74 | 1011.2 |
| 20260508033425 | 5 | 0 | 0.0 | 0.0 | 0.00 | 0.00 | 0.00 | 74 | 1011.1 |
| 20260508033304 | 5 | 0 | 0.0 | 0.0 | 0.00 | 0.00 | 0.00 | 74 | 1011.1 |
| 20260508033204 | 5 | 0 | 0.0 | 0.0 | 0.00 | 0.00 | 0.00 | 74 | 1011.1 |
| 20260508033104 | 5 | 0 | 0.0 | 0.0 | 0.00 | 0.00 | 0.00 | 74 | 1011.1 |
| 20260508033004 | 5 | 0 | 0.0 | 0.0 | 0.00 | 0.00 | 0.00 | 73 | 1011.1 |
| 20260508032905 | 5 | 0 | 0.0 | 0.0 | 0.00 | 0.00 | 0.00 | 74 | 1011.1 |
| 20260508032805 | 5 | 0 | 0.0 | 0.0 | 0.00 | 0.00 | 0.00 | 74 | 1011.1 |
| 20260508032705 | 5 | 0 | 0.0 | 0.0 | 0.00 | 0.00 | 0.00 | 73 | 1011.1 |
| 20260508032604 | 5 | 0 | 0.0 | 0.0 | 0.00 | 0.00 | 0.00 | 73 | 1011.1 |
| 20260508032504 | 5 | 0 | 0.0 | 0.0 | 0.00 | 0.00 | 0.00 | 74 | 1011.1 |
| 20260508032404 | 5 | 0 | 0.0 | 0.0 | 0.00 | 0.00 | 0.00 | 74 | 1011.1 |
| 20260508032306 | 5 | 0 | 0.0 | 0.0 | 0.00 | 0.00 | 0.00 | 74 | 1011.1 |
| 20260508032204 | 5 | 0 | 0.0 | 0.0 | 0.00 | 0.00 | 0.00 | 73 | 1011.1 |
| 20260508032125 | 5 | 0 | 0.0 | 0.0 | 0.00 | 0.00 | 0.00 | 73 | 1011.1 |
| 20260508032004 | 5 | 0 | 0.0 | 0.0 | 0.00 | 0.00 | 0.00 | 73 | 1011.1 |
| 20260508031904 | 5 | 0 | 0.0 | 0.0 | 0.00 | 0.00 | 0.00 | 73 | 1011.1 |
| 20260508031804 | 5 | 0 | 0.0 | 0.0 | 0.00 | 0.00 | 0.00 | 73 | 1011.1 |
| 20260508031704 | 5 | 0 | 0.0 | 0.0 | 0.00 | 0.00 | 0.00 | 73 | 1011.1 |
| 20260508031604 | 5 | 0 | 0.0 | 0.0 | 0.00 | 0.00 | 0.00 | 73 | 1011.1 |
| 20260508031525 | 5 | 0 | 0.0 | 0.0 | 0.00 | 0.00 | 0.00 | 72 | 1011.1 |
| 20260508031404 | 5 | 0 | 0.0 | 0.0 | 0.00 | 0.00 | 0.00 | 72 | 1011.1 |
| 20260508031325 | 5 | 0 | 0.0 | 0.0 | 0.00 | 0.00 | 0.00 | 73 | 1011.0 |
| 20260508031204 | 5 | 0 | 0.0 | 0.0 | 0.00 | 0.00 | 0.00 | 73 | 1011.0 |
| 20260508031104 | 5 | 0 | 0.0 | 0.0 | 0.00 | 0.00 | 0.00 | 73 | 1011.0 |
| 20260508031004 | 5 | 0 | 0.0 | 0.0 | 0.00 | 0.00 | 0.00 | 72 | 1011.1 |
| 20260508030904 | 5 | 0 | 0.0 | 0.0 | 0.00 | 0.00 | 0.00 | 72 | 1011.1 |
| 20260508030825 | 5 | 0 | 0.0 | 0.0 | 0.00 | 0.00 | 0.00 | 72 | 1011.1 |
| 20260508030704 | 5 | 0 | 0.0 | 0.0 | 0.00 | 0.00 | 0.00 | 72 | 1011.1 |
| 20260508030604 | 5 | 0 | 0.0 | 0.0 | 0.00 | 0.00 | 0.00 | 73 | 1011.1 |
| 20260508030504 | 5 | 0 | 0.0 | 0.0 | 0.00 | 0.00 | 0.00 | 73 | 1011.0 |
| 20260508030425 | 5 | 0 | 0.0 | 0.0 | 0.00 | 0.00 | 0.00 | 73 | 1011.0 |
| 20260508030304 | 5 | 0 | 0.0 | 0.0 | 0.00 | 0.00 | 0.00 | 72 | 1011.1 |
| 20260508030204 | 5 | 0 | 0.0 | 0.0 | 0.00 | 0.00 | 0.00 | 73 | 1011.1 |
| 20260508030125 | 5 | 0 | 0.0 | 0.0 | 0.00 | 0.00 | 0.00 | 73 | 1011.1 |
| 20260508030025 | 5 | 0 | 0.0 | 0.0 | 0.00 | 0.00 | 0.00 | 72 | 1011.1 |
| 20260508025905 | 5 | 0 | 0.0 | 0.0 | 0.00 | 0.00 | 0.00 | 73 | 1011.1 |
| 20260508025804 | 5 | 0 | 0.0 | 0.0 | 0.00 | 0.00 | 0.00 | 73 | 1011.1 |
| 20260508025704 | 5 | 0 | 0.0 | 0.0 | 0.00 | 0.00 | 0.00 | 73 | 1011.1 |
| 20260508025604 | 5 | 0 | 0.0 | 0.0 | 0.00 | 0.00 | 0.00 | 73 | 1011.1 |
| 20260508025525 | 5 | 0 | 0.0 | 0.0 | 0.00 | 0.00 | 0.00 | 73 | 1011.1 |
| 20260508025404 | 5 | 0 | 0.0 | 0.0 | 0.00 | 0.00 | 0.00 | 73 | 1011.1 |
| 20260508025306 | 5 | 0 | 0.0 | 0.0 | 0.00 | 0.00 | 0.00 | 73 | 1011.1 |
| 20260508025204 | 5 | 0 | 0.0 | 0.0 | 0.00 | 0.00 | 0.00 | 72 | 1011.2 |
| 20260508025104 | 5 | 0 | 0.0 | 0.0 | 0.00 | 0.00 | 0.00 | 72 | 1011.2 |
| 20260508025025 | 5 | 0 | 0.0 | 0.0 | 0.00 | 0.00 | 0.00 | 72 | 1011.1 |
| 20260508024904 | 5 | 0 | 0.0 | 0.0 | 0.00 | 0.00 | 0.00 | 72 | 1011.2 |
| 20260508024804 | 5 | 0 | 0.0 | 0.0 | 0.00 | 0.00 | 0.00 | 71 | 1011.2 |
| 20260508024704 | 5 | 0 | 0.0 | 0.0 | 0.00 | 0.00 | 0.00 | 71 | 1011.2 |
| 20260508024604 | 5 | 0 | 0.0 | 0.0 | 0.00 | 0.00 | 0.00 | 71 | 1011.2 |
| 20260508024504 | 5 | 0 | 0.0 | 0.0 | 0.00 | 0.00 | 0.00 | 71 | 1011.2 |
| 20260508024425 | 5 | 0 | 0.0 | 0.0 | 0.00 | 0.00 | 0.00 | 71 | 1011.2 |
| 20260508024304 | 5 | 0 | 0.0 | 0.0 | 0.00 | 0.00 | 0.00 | 70 | 1011.1 |
| 20260508024204 | 5 | 0 | 0.0 | 0.0 | 0.00 | 0.00 | 0.00 | 70 | 1011.1 |
| 20260508024104 | 5 | 0 | 0.0 | 0.0 | 0.00 | 0.00 | 0.00 | 70 | 1011.1 |
| 20260508024004 | 5 | 0 | 0.0 | 0.0 | 0.00 | 0.00 | 0.00 | 70 | 1011.1 |
| 20260508023904 | 5 | 0 | 0.0 | 0.0 | 0.00 | 0.00 | 0.00 | 70 | 1011.1 |
| 20260508023804 | 5 | 0 | 0.0 | 0.0 | 0.00 | 0.00 | 0.00 | 70 | 1011.1 |
| 20260508023704 | 5 | 0 | 0.0 | 0.0 | 0.00 | 0.00 | 0.00 | 70 | 1011.1 |
| 20260508023604 | 5 | 0 | 0.0 | 0.0 | 0.00 | 0.00 | 0.00 | 70 | 1011.1 |
| 20260508023525 | 5 | 0 | 0.0 | 0.0 | 0.00 | 0.00 | 0.00 | 70 | 1011.1 |
| 20260508023405 | 5 | 0 | 0.0 | 0.0 | 0.00 | 0.00 | 0.00 | 70 | 1011.1 |
| 20260508023325 | 5 | 0 | 0.0 | 0.0 | 0.00 | 0.00 | 0.00 | 70 | 1011.1 |
| 20260508023204 | 5 | 0 | 0.0 | 0.0 | 0.00 | 0.00 | 0.00 | 69 | 1011.1 |
| 20260508023125 | 5 | 0 | 0.0 | 0.0 | 0.00 | 0.00 | 0.00 | 69 | 1011.1 |
| 20260508023004 | 5 | 0 | 0.0 | 0.0 | 0.00 | 0.00 | 0.00 | 69 | 1011.1 |
| 20260508022904 | 5 | 0 | 0.0 | 0.0 | 0.00 | 0.00 | 0.00 | 69 | 1011.0 |
| 20260508022804 | 5 | 0 | 0.0 | 0.0 | 0.00 | 0.00 | 0.00 | 69 | 1011.0 |
| 20260508022704 | 5 | 0 | 0.0 | 0.0 | 0.00 | 0.00 | 0.00 | 69 | 1011.0 |
| 20260508022604 | 5 | 0 | 0.0 | 0.0 | 0.00 | 0.00 | 0.00 | 68 | 1011.0 |
| 20260508022504 | 5 | 0 | 0.0 | 0.0 | 0.00 | 0.00 | 0.00 | 67 | 1011.0 |
| 20260508022426 | 6 | 0 | 0.0 | 0.0 | 0.00 | 0.00 | 0.00 | 67 | 1011.0 |
| 20260508022307 | 6 | 0 | 0.0 | 0.0 | 0.00 | 0.00 | 0.00 | 67 | 1011.0 |
| 20260508022225 | 6 | 0 | 0.0 | 0.0 | 0.00 | 0.00 | 0.00 | 67 | 1010.9 |
| 20260508022104 | 6 | 0 | 0.0 | 0.0 | 0.00 | 0.00 | 0.00 | 67 | 1010.9 |
| 20260508022004 | 6 | 0 | 0.0 | 0.0 | 0.00 | 0.00 | 0.00 | 67 | 1010.9 |
| 20260508021925 | 6 | 0 | 0.0 | 0.0 | 0.00 | 0.00 | 0.00 | 67 | 1010.9 |
| 20260508021804 | 6 | 0 | 0.0 | 0.0 | 0.00 | 0.00 | 0.00 | 67 | 1010.9 |
| 20260508021704 | 6 | 0 | 0.0 | 0.0 | 0.00 | 0.00 | 0.00 | 67 | 1010.9 |
| 20260508021604 | 6 | 0 | 0.0 | 0.0 | 0.00 | 0.00 | 0.00 | 67 | 1010.9 |
| 20260508021504 | 6 | 0 | 0.0 | 0.0 | 0.00 | 0.00 | 0.00 | 67 | 1010.9 |
| 20260508021405 | 6 | 0 | 0.0 | 0.0 | 0.00 | 0.00 | 0.00 | 67 | 1010.9 |
| 20260508021325 | 6 | 0 | 0.0 | 0.0 | 0.00 | 0.00 | 0.00 | 66 | 1010.9 |
| 20260508021205 | 6 | 0 | 0.0 | 0.0 | 0.00 | 0.00 | 0.00 | 67 | 1010.8 |
| 20260508021125 | 6 | 0 | 0.0 | 0.0 | 0.00 | 0.00 | 0.00 | 67 | 1010.8 |
| 20260508021004 | 6 | 0 | 0.0 | 0.0 | 0.00 | 0.00 | 0.00 | 66 | 1010.8 |
| 20260508020904 | 6 | 0 | 0.0 | 0.0 | 0.00 | 0.00 | 0.00 | 66 | 1010.8 |
| 20260508020804 | 6 | 0 | 0.0 | 0.0 | 0.00 | 0.00 | 0.00 | 66 | 1010.8 |
| 20260508020704 | 6 | 0 | 0.0 | 0.0 | 0.00 | 0.00 | 0.00 | 66 | 1010.8 |
| 20260508020604 | 6 | 0 | 0.0 | 0.0 | 0.00 | 0.00 | 0.00 | 66 | 1010.8 |
| 20260508020504 | 6 | 0 | 0.0 | 0.0 | 0.00 | 0.00 | 0.00 | 66 | 1010.8 |
| 20260508020404 | 6 | 0 | 0.0 | 0.0 | 0.00 | 0.00 | 0.00 | 66 | 1010.8 |
| 20260508020305 | 6 | 0 | 0.0 | 0.0 | 0.00 | 0.00 | 0.00 | 66 | 1010.8 |
| 20260508020204 | 6 | 0 | 0.0 | 0.0 | 0.00 | 0.00 | 0.00 | 66 | 1010.8 |
| 20260508020125 | 6 | 0 | 0.0 | 0.0 | 0.00 | 0.00 | 0.00 | 66 | 1010.7 |
| 20260508020004 | 6 | 0 | 0.0 | 0.0 | 0.00 | 0.00 | 0.00 | 66 | 1010.7 |
| 20260508015925 | 6 | 0 | 0.0 | 0.0 | 0.00 | 0.00 | 0.00 | 66 | 1010.7 |
| 20260508015804 | 6 | 0 | 0.0 | 0.0 | 0.00 | 0.00 | 0.00 | 66 | 1010.7 |
| 20260508015704 | 6 | 0 | 0.0 | 0.0 | 0.00 | 0.00 | 0.00 | 65 | 1010.7 |
| 20260508015604 | 6 | 0 | 0.0 | 0.0 | 0.00 | 0.00 | 0.00 | 65 | 1010.7 |
| 20260508015505 | 6 | 0 | 0.0 | 0.0 | 0.00 | 0.00 | 0.00 | 66 | 1010.7 |
| 20260508015404 | 6 | 0 | 0.0 | 0.0 | 0.00 | 0.00 | 0.00 | 66 | 1010.7 |
| 20260508015306 | 6 | 0 | 0.0 | 0.0 | 0.00 | 0.00 | 0.00 | 65 | 1010.7 |
| 20260508015204 | 6 | 0 | 0.0 | 0.0 | 0.00 | 0.00 | 0.00 | 65 | 1010.7 |
| 20260508015104 | 6 | 0 | 0.0 | 0.0 | 0.00 | 0.00 | 0.00 | 65 | 1010.7 |
| 20260508015004 | 6 | 0 | 0.0 | 0.0 | 0.00 | 0.00 | 0.00 | 66 | 1010.7 |
| 20260508014904 | 6 | 0 | 0.0 | 0.0 | 0.00 | 0.00 | 0.00 | 66 | 1010.7 |
| 20260508014825 | 6 | 0 | 0.0 | 0.0 | 0.00 | 0.00 | 0.00 | 66 | 1010.7 |
| 20260508014725 | 6 | 0 | 0.0 | 0.0 | 0.00 | 0.00 | 0.00 | 66 | 1010.7 |
| 20260508014604 | 6 | 0 | 0.0 | 0.0 | 0.00 | 0.00 | 0.00 | 66 | 1010.6 |
| 20260508014525 | 6 | 0 | 0.0 | 0.0 | 0.00 | 0.00 | 0.00 | 66 | 1010.6 |
| 20260508014404 | 7 | 0 | 0.0 | 0.0 | 0.00 | 0.00 | 0.00 | 65 | 1010.6 |
| 20260508014304 | 7 | 0 | 0.0 | 0.0 | 0.00 | 0.00 | 0.00 | 65 | 1010.6 |
| 20260508014204 | 7 | 0 | 0.0 | 0.0 | 0.00 | 0.00 | 0.00 | 64 | 1010.5 |
| 20260508014125 | 7 | 0 | 0.0 | 0.0 | 0.00 | 0.00 | 0.00 | 64 | 1010.5 |
| 20260508014004 | 7 | 0 | 0.0 | 0.0 | 0.00 | 0.00 | 0.00 | 64 | 1010.5 |
| 20260508013904 | 7 | 0 | 0.0 | 0.0 | 0.00 | 0.00 | 0.00 | 64 | 1010.5 |
| 20260508013804 | 7 | 0 | 0.0 | 0.0 | 0.00 | 0.00 | 0.00 | 64 | 1010.5 |
| 20260508013725 | 7 | 0 | 0.0 | 0.0 | 0.00 | 0.00 | 0.00 | 64 | 1010.5 |
| 20260508013604 | 7 | 0 | 0.0 | 0.0 | 0.00 | 0.00 | 0.00 | 63 | 1010.5 |
| 20260508013504 | 7 | 0 | 0.0 | 0.0 | 0.00 | 0.00 | 0.00 | 63 | 1010.5 |
| 20260508013404 | 7 | 0 | 0.0 | 0.0 | 0.00 | 0.00 | 0.00 | 63 | 1010.5 |
| 20260508013304 | 7 | 0 | 0.0 | 0.0 | 0.00 | 0.00 | 0.00 | 62 | 1010.4 |
| 20260508013205 | 7 | 0 | 0.0 | 0.0 | 0.00 | 0.00 | 0.00 | 62 | 1010.4 |
| 20260508013125 | 7 | 0 | 0.0 | 0.0 | 0.00 | 0.00 | 0.00 | 62 | 1010.4 |
| 20260508013004 | 7 | 0 | 0.0 | 0.0 | 0.00 | 0.00 | 0.00 | 62 | 1010.4 |
| 20260508012904 | 7 | 0 | 0.0 | 0.0 | 0.00 | 0.00 | 0.00 | 62 | 1010.4 |
| 20260508012825 | 7 | 0 | 0.0 | 0.0 | 0.00 | 0.00 | 0.00 | 62 | 1010.4 |
| 20260508012704 | 7 | 0 | 0.0 | 0.0 | 0.00 | 0.00 | 0.00 | 62 | 1010.3 |
| 20260508012625 | 7 | 0 | 0.0 | 0.0 | 0.00 | 0.00 | 0.00 | 62 | 1010.3 |
| 20260508012504 | 7 | 0 | 0.0 | 0.0 | 0.00 | 0.00 | 0.00 | 61 | 1010.3 |
| 20260508012404 | 7 | 0 | 0.0 | 0.0 | 0.00 | 0.00 | 0.00 | 62 | 1010.3 |
| 20260508012307 | 7 | 0 | 0.0 | 0.0 | 0.00 | 0.00 | 0.00 | 62 | 1010.3 |
| 20260508012204 | 7 | 0 | 0.0 | 0.0 | 0.00 | 0.00 | 0.00 | 61 | 1010.3 |
| 20260508012104 | 7 | 0 | 0.0 | 0.0 | 0.00 | 0.00 | 0.00 | 61 | 1010.3 |
| 20260508012004 | 7 | 0 | 0.0 | 0.0 | 0.00 | 0.00 | 0.00 | 61 | 1010.3 |
| 20260508011904 | 7 | 0 | 0.0 | 0.0 | 0.00 | 0.00 | 0.00 | 61 | 1010.3 |
| 20260508011804 | 7 | 0 | 0.0 | 0.0 | 0.00 | 0.00 | 0.00 | 60 | 1010.3 |
| 20260508011704 | 8 | 0 | 0.0 | 0.0 | 0.00 | 0.00 | 0.00 | 60 | 1010.2 |
| 20260508011604 | 8 | 0 | 0.0 | 0.0 | 0.00 | 0.00 | 0.00 | 60 | 1010.2 |
| 20260508011504 | 8 | 0 | 0.0 | 0.0 | 0.00 | 0.00 | 0.00 | 58 | 1010.2 |
| 20260508011404 | 8 | 0 | 0.0 | 0.0 | 0.00 | 0.00 | 0.00 | 58 | 1010.2 |
| 20260508011325 | 8 | 0 | 0.0 | 0.0 | 0.00 | 0.00 | 0.00 | 58 | 1010.2 |
| 20260508011204 | 8 | 0 | 0.0 | 0.0 | 0.00 | 0.00 | 0.00 | 58 | 1010.2 |
| 20260508011125 | 8 | 0 | 0.0 | 0.0 | 0.00 | 0.00 | 0.00 | 58 | 1010.2 |
| 20260508011004 | 8 | 0 | 0.0 | 0.0 | 0.00 | 0.00 | 0.00 | 58 | 1010.2 |
| 20260508010904 | 8 | 0 | 0.0 | 0.0 | 0.00 | 0.00 | 0.00 | 57 | 1010.2 |
| 20260508010825 | 8 | 0 | 0.0 | 0.0 | 0.00 | 0.00 | 0.00 | 57 | 1010.2 |
| 20260508010705 | 8 | 0 | 0.0 | 0.0 | 0.00 | 0.00 | 0.00 | 57 | 1010.2 |
| 20260508010604 | 8 | 0 | 0.0 | 0.0 | 0.00 | 0.00 | 0.00 | 57 | 1010.2 |
| 20260508010504 | 8 | 0 | 0.0 | 0.0 | 0.00 | 0.00 | 0.00 | 57 | 1010.2 |
| 20260508010404 | 8 | 0 | 0.0 | 0.0 | 0.00 | 0.00 | 0.00 | 57 | 1010.2 |
| 20260508010304 | 8 | 0 | 0.0 | 0.0 | 0.00 | 0.00 | 0.00 | 57 | 1010.2 |
| 20260508010204 | 8 | 0 | 0.0 | 0.0 | 0.00 | 0.00 | 0.00 | 56 | 1010.1 |
| 20260508010125 | 8 | 0 | 0.0 | 0.0 | 0.00 | 0.00 | 0.00 | 56 | 1010.1 |
| 20260508010004 | 8 | 0 | 0.0 | 0.0 | 0.00 | 0.00 | 0.00 | 56 | 1010.1 |
| 20260508005904 | 8 | 0 | 0.0 | 0.0 | 0.00 | 0.00 | 0.00 | 56 | 1010.1 |
| 20260508005804 | 8 | 0 | 0.0 | 0.0 | 0.00 | 0.00 | 0.00 | 56 | 1010.1 |
| 20260508005704 | 8 | 0 | 0.0 | 0.0 | 0.00 | 0.00 | 0.00 | 55 | 1010.1 |
| 20260508005604 | 8 | 0 | 0.0 | 0.0 | 0.00 | 0.00 | 0.00 | 55 | 1010.1 |
| 20260508005504 | 8 | 0 | 0.0 | 0.0 | 0.00 | 0.00 | 0.00 | 55 | 1010.1 |
| 20260508005425 | 8 | 0 | 0.0 | 0.0 | 0.00 | 0.00 | 0.00 | 55 | 1010.1 |
| 20260508005306 | 8 | 0 | 0.0 | 0.0 | 0.00 | 0.00 | 0.00 | 55 | 1010.1 |
| 20260508005204 | 8 | 0 | 0.0 | 0.0 | 0.00 | 0.00 | 0.00 | 55 | 1010.1 |
| 20260508005104 | 8 | 0 | 0.0 | 0.0 | 0.00 | 0.00 | 0.00 | 54 | 1010.0 |
| 20260508005004 | 8 | 0 | 0.0 | 0.0 | 0.00 | 0.00 | 0.00 | 54 | 1010.0 |
| 20260508004904 | 8 | 0 | 0.0 | 0.0 | 0.00 | 0.00 | 0.00 | 54 | 1010.1 |
| 20260508004804 | 9 | 0 | 0.0 | 0.0 | 0.00 | 0.00 | 0.00 | 55 | 1010.1 |
| 20260508004725 | 9 | 0 | 0.0 | 0.0 | 0.00 | 0.00 | 0.00 | 54 | 1010.1 |
| 20260508004604 | 9 | 0 | 0.0 | 0.0 | 0.00 | 0.00 | 0.00 | 54 | 1010.0 |
| 20260508004504 | 9 | 0 | 0.0 | 0.0 | 0.00 | 0.00 | 0.00 | 54 | 1010.0 |
| 20260508004404 | 9 | 0 | 0.0 | 0.0 | 0.00 | 0.00 | 0.00 | 54 | 1010.0 |
| 20260508004304 | 9 | 0 | 0.0 | 0.0 | 0.00 | 0.00 | 0.00 | 53 | 1009.9 |
| 20260508004204 | 9 | 0 | 0.0 | 0.0 | 0.00 | 0.00 | 0.00 | 53 | 1009.9 |
| 20260508004104 | 9 | 0 | 0.0 | 0.0 | 0.00 | 0.00 | 0.00 | 53 | 1009.9 |
| 20260508004025 | 9 | 0 | 0.0 | 0.0 | 0.00 | 0.00 | 0.00 | 53 | 1009.9 |
| 20260508003904 | 9 | 0 | 0.0 | 0.0 | 0.00 | 0.00 | 0.00 | 53 | 1009.9 |
| 20260508003825 | 9 | 0 | 0.0 | 0.0 | 0.00 | 0.00 | 0.00 | 53 | 1009.9 |
| 20260508003704 | 9 | 0 | 0.0 | 0.0 | 0.00 | 0.00 | 0.00 | 54 | 1009.9 |
| 20260508003604 | 9 | 0 | 0.0 | 0.0 | 0.00 | 0.00 | 0.00 | 54 | 1009.9 |
| 20260508003504 | 9 | 0 | 0.0 | 0.0 | 0.00 | 0.00 | 0.00 | 54 | 1009.9 |
| 20260508003404 | 9 | 0 | 0.0 | 0.0 | 0.00 | 0.00 | 0.00 | 53 | 1009.9 |
| 20260508003304 | 10 | 0 | 0.0 | 0.0 | 0.00 | 0.00 | 0.00 | 53 | 1009.9 |
| 20260508003204 | 10 | 0 | 0.0 | 0.0 | 0.00 | 0.00 | 0.00 | 53 | 1009.9 |
| 20260508003126 | 10 | 0 | 0.0 | 0.0 | 0.00 | 0.00 | 0.00 | 52 | 1009.9 |
| 20260508003026 | 10 | 0 | 0.0 | 0.0 | 0.00 | 0.00 | 0.00 | 52 | 1009.9 |
| 20260508002904 | 10 | 0 | 0.0 | 0.0 | 0.00 | 0.00 | 0.00 | 53 | 1009.9 |
| 20260508002804 | 10 | 0 | 0.0 | 0.0 | 0.00 | 0.00 | 0.00 | 53 | 1009.9 |
| 20260508002704 | 10 | 0 | 0.0 | 0.0 | 0.00 | 0.00 | 0.00 | 52 | 1009.9 |
| 20260508002625 | 10 | 0 | 0.0 | 0.0 | 0.00 | 0.00 | 0.00 | 52 | 1009.9 |
| 20260508002504 | 10 | 0 | 0.0 | 0.0 | 0.00 | 0.00 | 0.00 | 52 | 1009.9 |
| 20260508002404 | 10 | 0 | 0.0 | 0.0 | 0.00 | 0.00 | 0.00 | 52 | 1009.9 |
| 20260508002306 | 10 | 0 | 0.0 | 0.0 | 0.00 | 0.00 | 0.00 | 52 | 1009.9 |
| 20260508002225 | 10 | 0 | 0.0 | 0.0 | 0.00 | 0.00 | 0.00 | 51 | 1009.9 |
| 20260508002104 | 10 | 0 | 0.0 | 0.0 | 0.00 | 0.00 | 0.00 | 52 | 1010.0 |
| 20260508002004 | 10 | 0 | 0.0 | 0.0 | 0.00 | 0.00 | 0.00 | 51 | 1009.9 |
| 20260508001904 | 10 | 0 | 0.0 | 0.0 | 0.00 | 0.00 | 0.00 | 50 | 1009.9 |
| 20260508001804 | 10 | 0 | 0.0 | 0.0 | 0.00 | 0.00 | 0.00 | 50 | 1009.9 |
| 20260508001704 | 10 | 0 | 0.0 | 0.0 | 0.00 | 0.00 | 0.00 | 50 | 1009.9 |
| 20260508001604 | 10 | 0 | 0.0 | 0.0 | 0.00 | 0.00 | 0.00 | 50 | 1009.9 |
| 20260508001525 | 10 | 0 | 0.0 | 0.0 | 0.00 | 0.00 | 0.00 | 50 | 1009.9 |
| 20260508001404 | 10 | 0 | 0.0 | 0.0 | 0.00 | 0.00 | 0.00 | 50 | 1009.9 |
| 20260508001304 | 10 | 0 | 0.0 | 1.6 | 0.00 | 0.00 | 0.00 | 49 | 1009.9 |
| 20260508001204 | 10 | 0 | 0.0 | 1.6 | 0.00 | 0.00 | 0.00 | 49 | 1009.9 |
| 20260508001104 | 10 | 0 | 0.0 | 1.6 | 0.00 | 0.00 | 0.00 | 49 | 1009.9 |
| 20260508001004 | 10 | 0 | 0.0 | 1.6 | 0.00 | 0.00 | 0.00 | 49 | 1009.9 |
| 20260508000904 | 10 | 0 | 0.0 | 1.6 | 0.00 | 0.00 | 0.00 | 49 | 1009.9 |
| 20260508000804 | 10 | 0 | 0.0 | 1.6 | 0.00 | 0.00 | 0.00 | 49 | 1009.9 |
| 20260508000704 | 10 | 0 | 0.0 | 1.6 | 0.00 | 0.00 | 0.00 | 49 | 1009.9 |
| 20260508000604 | 10 | 0 | 0.0 | 1.6 | 0.00 | 0.00 | 0.00 | 49 | 1009.9 |
| 20260508000505 | 10 | 0 | 0.0 | 1.6 | 0.00 | 0.00 | 0.00 | 49 | 1009.9 |
| 20260508000427 | 10 | 0 | 0.0 | 1.6 | 0.00 | 0.00 | 0.00 | 48 | 1009.9 |
| 20260508000305 | 10 | 0 | 0.0 | 1.6 | 0.00 | 0.00 | 0.00 | 48 | 1009.9 |
| 20260508000205 | 10 | 0 | 0.0 | 4.8 | 0.00 | 0.00 | 0.00 | 48 | 1010.0 |
| 20260508000104 | 10 | 0 | 0.0 | 4.8 | 0.00 | 0.00 | 0.00 | 49 | 1010.0 |
| 20260508000025 | 10 | 0 | 0.0 | 4.8 | 0.00 | 0.00 | 0.00 | 49 | 1010.0 |
| 20260507235904 | 10 | 281 | 1.6 | 4.8 | 0.00 | 0.00 | 0.00 | 49 | 1010.0 |
| 20260507235825 | 10 | 282 | 1.6 | 4.8 | 0.00 | 0.00 | 0.00 | 49 | 1010.0 |
| 20260507235725 | 10 | 278 | 1.6 | 4.8 | 0.00 | 0.00 | 0.00 | 49 | 1010.0 |
| 20260507235604 | 10 | 278 | 1.6 | 4.8 | 0.00 | 0.00 | 0.00 | 49 | 1010.0 |
| 20260507235525 | 10 | 277 | 1.6 | 4.8 | 0.00 | 0.00 | 0.00 | 49 | 1010.1 |
| 20260507235404 | 10 | 278 | 1.6 | 4.8 | 0.00 | 0.00 | 0.00 | 48 | 1010.0 |
| 20260507235306 | 10 | 279 | 1.6 | 4.8 | 0.00 | 0.00 | 0.00 | 48 | 1010.0 |
| 20260507235204 | 10 | 278 | 1.6 | 3.2 | 0.00 | 0.00 | 0.00 | 48 | 1010.1 |
| 20260507235104 | 11 | 276 | 1.6 | 3.2 | 0.00 | 0.00 | 0.00 | 48 | 1010.1 |
| 20260507235004 | 11 | 0 | 0.0 | 3.2 | 0.00 | 0.00 | 0.00 | 48 | 1010.0 |
| 20260507234925 | 11 | 0 | 0.0 | 3.2 | 0.00 | 0.00 | 0.00 | 47 | 1010.0 |
| 20260507234804 | 11 | 0 | 0.0 | 3.2 | 0.00 | 0.00 | 0.00 | 47 | 1010.0 |
| 20260507234704 | 11 | 0 | 0.0 | 3.2 | 0.00 | 0.00 | 0.00 | 47 | 1010.0 |
| 20260507234604 | 11 | 0 | 0.0 | 3.2 | 0.00 | 0.00 | 0.00 | 48 | 1010.0 |
| 20260507234504 | 11 | 0 | 0.0 | 1.6 | 0.00 | 0.00 | 0.00 | 47 | 1010.0 |
| 20260507234404 | 11 | 0 | 0.0 | 3.2 | 0.00 | 0.00 | 0.00 | 47 | 1010.1 |
| 20260507234325 | 11 | 0 | 0.0 | 3.2 | 0.00 | 0.00 | 0.00 | 46 | 1010.1 |
| 20260507234204 | 11 | 0 | 0.0 | 3.2 | 0.00 | 0.00 | 0.00 | 46 | 1010.0 |
| 20260507234104 | 11 | 0 | 0.0 | 3.2 | 0.00 | 0.00 | 0.00 | 45 | 1010.1 |
| 20260507234004 | 11 | 0 | 0.0 | 3.2 | 0.00 | 0.00 | 0.00 | 45 | 1010.1 |
| 20260507233925 | 11 | 0 | 0.0 | 3.2 | 0.00 | 0.00 | 0.00 | 45 | 1010.1 |
| 20260507233804 | 11 | 0 | 0.0 | 3.2 | 0.00 | 0.00 | 0.00 | 45 | 1010.1 |
| 20260507233725 | 11 | 0 | 0.0 | 3.2 | 0.00 | 0.00 | 0.00 | 45 | 1010.0 |
| 20260507233604 | 11 | 0 | 0.0 | 3.2 | 0.00 | 0.00 | 0.00 | 45 | 1010.0 |
| 20260507233504 | 11 | 0 | 0.0 | 3.2 | 0.00 | 0.00 | 0.00 | 45 | 1010.0 |
| 20260507233404 | 11 | 0 | 0.0 | 3.2 | 0.00 | 0.00 | 0.00 | 45 | 1010.1 |
| 20260507233304 | 11 | 0 | 0.0 | 3.2 | 0.00 | 0.00 | 0.00 | 45 | 1010.1 |
| 20260507233204 | 11 | 0 | 0.0 | 3.2 | 0.00 | 0.00 | 0.00 | 45 | 1010.1 |
| 20260507233125 | 11 | 0 | 0.0 | 4.8 | 0.00 | 0.00 | 0.00 | 45 | 1010.2 |
| 20260507233024 | 11 | 0 | 0.0 | 4.8 | 0.00 | 0.00 | 0.00 | 46 | 1010.2 |
| 20260507232904 | 11 | 279 | 1.6 | 4.8 | 0.00 | 0.00 | 0.00 | 46 | 1010.2 |
| 20260507232804 | 11 | 273 | 1.6 | 6.4 | 0.00 | 0.00 | 0.00 | 46 | 1010.2 |
| 20260507232704 | 11 | 277 | 1.6 | 6.4 | 0.00 | 0.00 | 0.00 | 46 | 1010.2 |
| 20260507232603 | 11 | 278 | 1.6 | 6.4 | 0.00 | 0.00 | 0.00 | 46 | 1010.2 |
| 20260507232504 | 11 | 280 | 1.6 | 6.4 | 0.00 | 0.00 | 0.00 | 46 | 1010.2 |
| 20260507232404 | 11 | 280 | 1.6 | 6.4 | 0.00 | 0.00 | 0.00 | 45 | 1010.3 |
| 20260507232306 | 11 | 279 | 1.6 | 6.4 | 0.00 | 0.00 | 0.00 | 45 | 1010.1 |
| 20260507232204 | 11 | 279 | 1.6 | 6.4 | 0.00 | 0.00 | 0.00 | 46 | 1010.1 |
| 20260507232104 | 11 | 0 | 0.0 | 6.4 | 0.00 | 0.00 | 0.00 | 45 | 1010.1 |
| 20260507232004 | 11 | 0 | 0.0 | 6.4 | 0.00 | 0.00 | 0.00 | 45 | 1010.2 |
| 20260507231904 | 11 | 0 | 0.0 | 6.4 | 0.00 | 0.00 | 0.00 | 45 | 1010.2 |
| 20260507231803 | 11 | 0 | 0.0 | 4.8 | 0.00 | 0.00 | 0.00 | 45 | 1010.2 |
| 20260507231704 | 11 | 0 | 0.0 | 3.2 | 0.00 | 0.00 | 0.00 | 46 | 1010.3 |
| 20260507231604 | 11 | 0 | 0.0 | 3.2 | 0.00 | 0.00 | 0.00 | 46 | 1010.3 |
| 20260507231504 | 11 | 0 | 0.0 | 1.6 | 0.00 | 0.00 | 0.00 | 46 | 1010.4 |
| 20260507231404 | 11 | 0 | 0.0 | 4.8 | 0.00 | 0.00 | 0.00 | 47 | 1010.4 |
| 20260507231304 | 11 | 0 | 0.0 | 4.8 | 0.00 | 0.00 | 0.00 | 47 | 1010.4 |
| 20260507231204 | 11 | 0 | 0.0 | 4.8 | 0.00 | 0.00 | 0.00 | 49 | 1010.4 |
| 20260507231104 | 11 | 0 | 0.0 | 4.8 | 0.00 | 0.00 | 0.00 | 47 | 1010.4 |
| 20260507231004 | 11 | 0 | 0.0 | 4.8 | 0.00 | 0.00 | 0.00 | 47 | 1010.4 |
| 20260507230904 | 11 | 254 | 1.6 | 4.8 | 0.00 | 0.00 | 0.00 | 47 | 1010.4 |
| 20260507230804 | 11 | 254 | 1.6 | 4.8 | 0.00 | 0.00 | 0.00 | 48 | 1010.4 |
| 20260507230704 | 11 | 254 | 1.6 | 4.8 | 0.00 | 0.00 | 0.00 | 48 | 1010.4 |
| 20260507230604 | 11 | 255 | 1.6 | 4.8 | 0.00 | 0.00 | 0.00 | 48 | 1010.4 |
| 20260507230503 | 11 | 255 | 1.6 | 4.8 | 0.00 | 0.00 | 0.00 | 47 | 1010.5 |
| 20260507230403 | 11 | 256 | 1.6 | 4.8 | 0.00 | 0.00 | 0.00 | 47 | 1010.5 |
| 20260507230325 | 11 | 256 | 1.6 | 4.8 | 0.00 | 0.00 | 0.00 | 47 | 1010.5 |
| 20260507230204 | 11 | 256 | 1.6 | 4.8 | 0.00 | 0.00 | 0.00 | 47 | 1010.4 |
| 20260507230104 | 11 | 257 | 1.6 | 4.8 | 0.00 | 0.00 | 0.00 | 47 | 1010.4 |
| 20260507230004 | 11 | 256 | 1.6 | 4.8 | 0.00 | 0.00 | 0.00 | 47 | 1010.4 |
| 20260507225904 | 11 | 256 | 1.6 | 4.8 | 0.00 | 0.00 | 0.00 | 47 | 1010.5 |
| 20260507225804 | 11 | 257 | 1.6 | 4.8 | 0.00 | 0.00 | 0.00 | 47 | 1010.5 |
| 20260507225703 | 11 | 0 | 0.0 | 4.8 | 0.00 | 0.00 | 0.00 | 46 | 1010.5 |
| 20260507225625 | 11 | 0 | 0.0 | 4.8 | 0.00 | 0.00 | 0.00 | 46 | 1010.5 |
| 20260507225504 | 11 | 0 | 0.0 | 4.8 | 0.00 | 0.00 | 0.00 | 46 | 1010.5 |
| 20260507225404 | 11 | 0 | 0.0 | 4.8 | 0.00 | 0.00 | 0.00 | 46 | 1010.6 |
| 20260507225325 | 11 | 0 | 0.0 | 1.6 | 0.00 | 0.00 | 0.00 | 46 | 1010.6 |
| 20260507225203 | 11 | 0 | 0.0 | 1.6 | 0.00 | 0.00 | 0.00 | 46 | 1010.6 |
| 20260507225104 | 11 | 0 | 0.0 | 3.2 | 0.00 | 0.00 | 0.00 | 46 | 1010.6 |
| 20260507225004 | 11 | 222 | 1.6 | 4.8 | 0.00 | 0.00 | 0.00 | 45 | 1010.6 |
| 20260507224904 | 11 | 226 | 1.6 | 4.8 | 0.00 | 0.00 | 0.00 | 45 | 1010.6 |
| 20260507224804 | 11 | 218 | 1.6 | 4.8 | 0.00 | 0.00 | 0.00 | 45 | 1010.6 |
| 20260507224704 | 11 | 229 | 1.6 | 4.8 | 0.00 | 0.00 | 0.00 | 44 | 1010.6 |
| 20260507224604 | 11 | 239 | 1.6 | 4.8 | 0.00 | 0.00 | 0.00 | 44 | 1010.6 |
| 20260507224504 | 11 | 251 | 1.6 | 4.8 | 0.00 | 0.00 | 0.00 | 44 | 1010.6 |
| 20260507224425 | 11 | 258 | 1.6 | 4.8 | 0.00 | 0.00 | 0.00 | 44 | 1010.7 |
| 20260507224303 | 11 | 263 | 1.6 | 4.8 | 0.00 | 0.00 | 0.00 | 44 | 1010.7 |
| 20260507224203 | 11 | 270 | 1.6 | 4.8 | 0.00 | 0.00 | 0.00 | 45 | 1010.7 |
| 20260507224104 | 11 | 284 | 1.6 | 8.0 | 0.00 | 0.00 | 0.00 | 45 | 1010.8 |
| 20260507224004 | 11 | 286 | 3.2 | 8.0 | 0.00 | 0.00 | 0.00 | 46 | 1010.8 |
| 20260507223903 | 11 | 280 | 3.2 | 8.0 | 0.00 | 0.00 | 0.00 | 45 | 1010.9 |
| 20260507223804 | 11 | 280 | 3.2 | 8.0 | 0.00 | 0.00 | 0.00 | 45 | 1010.9 |
| 20260507223704 | 11 | 277 | 3.2 | 8.0 | 0.00 | 0.00 | 0.00 | 45 | 1010.9 |
| 20260507223604 | 11 | 276 | 3.2 | 8.0 | 0.00 | 0.00 | 0.00 | 44 | 1010.9 |
| 20260507223503 | 11 | 274 | 3.2 | 8.0 | 0.00 | 0.00 | 0.00 | 44 | 1010.9 |
| 20260507223403 | 11 | 273 | 3.2 | 8.0 | 0.00 | 0.00 | 0.00 | 44 | 1010.9 |
| 20260507223304 | 11 | 274 | 3.2 | 8.0 | 0.00 | 0.00 | 0.00 | 43 | 1010.9 |
| 20260507223204 | 11 | 272 | 3.2 | 8.0 | 0.00 | 0.00 | 0.00 | 43 | 1010.9 |
| 20260507223124 | 11 | 268 | 3.2 | 8.0 | 0.00 | 0.00 | 0.00 | 43 | 1010.9 |
| 20260507223025 | 11 | 268 | 1.6 | 8.0 | 0.00 | 0.00 | 0.00 | 43 | 1010.9 |
| 20260507222905 | 11 | 277 | 3.2 | 8.0 | 0.00 | 0.00 | 0.00 | 45 | 1010.9 |
| 20260507222804 | 11 | 274 | 3.2 | 8.0 | 0.00 | 0.00 | 0.00 | 43 | 1010.9 |
| 20260507222703 | 11 | 273 | 3.2 | 9.7 | 0.00 | 0.00 | 0.00 | 44 | 1010.9 |
| 20260507222604 | 11 | 274 | 3.2 | 9.7 | 0.00 | 0.00 | 0.00 | 43 | 1010.9 |
| 20260507222504 | 12 | 270 | 3.2 | 9.7 | 0.00 | 0.00 | 0.00 | 44 | 1010.9 |
| 20260507222404 | 12 | 265 | 3.2 | 9.7 | 0.00 | 0.00 | 0.00 | 43 | 1010.9 |
| 20260507222306 | 12 | 264 | 3.2 | 9.7 | 0.00 | 0.00 | 0.00 | 43 | 1011.0 |
| 20260507222204 | 12 | 264 | 3.2 | 9.7 | 0.00 | 0.00 | 0.00 | 43 | 1011.0 |
| 20260507222104 | 12 | 267 | 3.2 | 9.7 | 0.00 | 0.00 | 0.00 | 43 | 1011.0 |
| 20260507222004 | 12 | 269 | 3.2 | 9.7 | 0.00 | 0.00 | 0.00 | 43 | 1011.0 |
| 20260507221924 | 12 | 269 | 3.2 | 9.7 | 0.00 | 0.00 | 0.00 | 44 | 1011.0 |
| 20260507221804 | 12 | 276 | 3.2 | 9.7 | 0.00 | 0.00 | 0.00 | 43 | 1010.9 |
| 20260507221725 | 12 | 279 | 3.2 | 8.0 | 0.00 | 0.00 | 0.00 | 43 | 1010.9 |
| 20260507221625 | 12 | 281 | 3.2 | 8.0 | 0.00 | 0.00 | 0.00 | 43 | 1011.0 |
| 20260507221503 | 12 | 290 | 1.6 | 8.0 | 0.00 | 0.00 | 0.00 | 44 | 1010.9 |
| 20260507221404 | 11 | 294 | 1.6 | 8.0 | 0.00 | 0.00 | 0.00 | 44 | 1010.9 |
| 20260507221304 | 11 | 301 | 1.6 | 8.0 | 0.00 | 0.00 | 0.00 | 42 | 1010.9 |
| 20260507221204 | 12 | 304 | 1.6 | 8.0 | 0.00 | 0.00 | 0.00 | 42 | 1010.9 |
| 20260507221103 | 12 | 300 | 1.6 | 8.0 | 0.00 | 0.00 | 0.00 | 42 | 1011.0 |
| 20260507221004 | 12 | 300 | 1.6 | 6.4 | 0.00 | 0.00 | 0.00 | 42 | 1011.0 |
| 20260507220904 | 12 | 300 | 1.6 | 6.4 | 0.00 | 0.00 | 0.00 | 42 | 1011.0 |
| 20260507220824 | 12 | 296 | 1.6 | 6.4 | 0.00 | 0.00 | 0.00 | 42 | 1010.9 |
| 20260507220724 | 12 | 275 | 1.6 | 6.4 | 0.00 | 0.00 | 0.00 | 44 | 1010.9 |
| 20260507220603 | 12 | 260 | 1.6 | 6.4 | 0.00 | 0.00 | 0.00 | 44 | 1011.0 |
| 20260507220504 | 12 | 263 | 1.6 | 6.4 | 0.00 | 0.00 | 0.00 | 44 | 1011.0 |
| 20260507220425 | 12 | 265 | 1.6 | 6.4 | 0.00 | 0.00 | 0.00 | 43 | 1011.0 |
| 20260507220304 | 12 | 264 | 1.6 | 6.4 | 0.00 | 0.00 | 0.00 | 43 | 1010.9 |
| 20260507220204 | 12 | 264 | 1.6 | 6.4 | 0.00 | 0.00 | 0.00 | 43 | 1010.9 |
| 20260507220104 | 12 | 262 | 1.6 | 6.4 | 0.00 | 0.00 | 0.00 | 43 | 1011.0 |
| 20260507220004 | 12 | 261 | 1.6 | 6.4 | 0.00 | 0.00 | 0.00 | 43 | 1010.9 |
| 20260507215903 | 12 | 252 | 1.6 | 6.4 | 0.00 | 0.00 | 0.00 | 43 | 1010.9 |
| 20260507215804 | 12 | 254 | 1.6 | 6.4 | 0.00 | 0.00 | 0.00 | 42 | 1010.9 |
| 20260507215704 | 12 | 264 | 1.6 | 4.8 | 0.00 | 0.00 | 0.00 | 43 | 1010.9 |
| 20260507215604 | 12 | 271 | 1.6 | 4.8 | 0.00 | 0.00 | 0.00 | 44 | 1010.9 |
| 20260507215503 | 12 | 0 | 0.0 | 4.8 | 0.00 | 0.00 | 0.00 | 44 | 1010.8 |
| 20260507215425 | 12 | 0 | 0.0 | 4.8 | 0.00 | 0.00 | 0.00 | 44 | 1010.8 |
| 20260507215306 | 11 | 280 | 1.6 | 4.8 | 0.00 | 0.00 | 0.00 | 45 | 1010.8 |
| 20260507215224 | 11 | 285 | 1.6 | 4.8 | 0.00 | 0.00 | 0.00 | 44 | 1010.8 |
| 20260507215124 | 11 | 291 | 1.6 | 4.8 | 0.00 | 0.00 | 0.00 | 44 | 1010.9 |
| 20260507215003 | 11 | 0 | 0.0 | 4.8 | 0.00 | 0.00 | 0.00 | 45 | 1010.9 |
| 20260507214904 | 11 | 311 | 1.6 | 4.8 | 0.00 | 0.00 | 0.00 | 45 | 1010.9 |
| 20260507214803 | 11 | 309 | 1.6 | 4.8 | 0.00 | 0.00 | 0.00 | 45 | 1010.8 |
| 20260507214704 | 11 | 305 | 1.6 | 4.8 | 0.00 | 0.00 | 0.00 | 45 | 1010.9 |
| 20260507214604 | 11 | 299 | 1.6 | 6.4 | 0.00 | 0.00 | 0.00 | 44 | 1010.9 |
| 20260507214525 | 11 | 301 | 1.6 | 6.4 | 0.00 | 0.00 | 0.00 | 44 | 1011.0 |
| 20260507214404 | 11 | 301 | 1.6 | 6.4 | 0.00 | 0.00 | 0.00 | 45 | 1011.0 |
| 20260507214303 | 11 | 305 | 1.6 | 6.4 | 0.00 | 0.00 | 0.00 | 45 | 1011.0 |
| 20260507214204 | 11 | 297 | 1.6 | 6.4 | 0.00 | 0.00 | 0.00 | 45 | 1011.0 |
| 20260507214104 | 11 | 293 | 1.6 | 6.4 | 0.00 | 0.00 | 0.00 | 45 | 1011.0 |
| 20260507214003 | 10 | 291 | 1.6 | 6.4 | 0.00 | 0.00 | 0.00 | 45 | 1011.0 |
| 20260507213924 | 10 | 285 | 1.6 | 9.7 | 0.00 | 0.00 | 0.00 | 46 | 1011.0 |
| 20260507213804 | 10 | 275 | 1.6 | 9.7 | 0.00 | 0.00 | 0.00 | 45 | 1010.9 |
| 20260507213725 | 10 | 274 | 1.6 | 9.7 | 0.00 | 0.00 | 0.00 | 45 | 1010.9 |
| 20260507213603 | 10 | 273 | 1.6 | 9.7 | 0.00 | 0.00 | 0.00 | 45 | 1011.0 |
| 20260507213503 | 10 | 268 | 1.6 | 9.7 | 0.00 | 0.00 | 0.00 | 45 | 1011.0 |
| 20260507213404 | 10 | 260 | 1.6 | 9.7 | 0.00 | 0.00 | 0.00 | 45 | 1011.0 |
| 20260507213304 | 10 | 250 | 1.6 | 9.7 | 0.00 | 0.00 | 0.00 | 45 | 1011.0 |
| 20260507213203 | 10 | 250 | 1.6 | 9.7 | 0.00 | 0.00 | 0.00 | 44 | 1011.1 |
| 20260507213103 | 11 | 244 | 3.2 | 9.7 | 0.00 | 0.00 | 0.00 | 43 | 1011.1 |
| 20260507213004 | 11 | 247 | 3.2 | 9.7 | 0.00 | 0.00 | 0.00 | 43 | 1011.0 |
| 20260507212905 | 11 | 247 | 3.2 | 9.7 | 0.00 | 0.00 | 0.00 | 43 | 1011.0 |
| 20260507212803 | 11 | 250 | 3.2 | 9.7 | 0.00 | 0.00 | 0.00 | 43 | 1011.0 |
| 20260507212704 | 11 | 257 | 3.2 | 9.7 | 0.00 | 0.00 | 0.00 | 44 | 1010.9 |
| 20260507212625 | 11 | 261 | 3.2 | 9.7 | 0.00 | 0.00 | 0.00 | 44 | 1010.9 |
| 20260507212504 | 10 | 262 | 3.2 | 9.7 | 0.00 | 0.00 | 0.00 | 44 | 1011.0 |
| 20260507212425 | 10 | 264 | 3.2 | 9.7 | 0.00 | 0.00 | 0.00 | 44 | 1011.0 |
| 20260507212306 | 10 | 266 | 3.2 | 9.7 | 0.00 | 0.00 | 0.00 | 44 | 1011.0 |
| 20260507212204 | 10 | 264 | 3.2 | 9.7 | 0.00 | 0.00 | 0.00 | 44 | 1011.1 |
| 20260507212103 | 10 | 269 | 3.2 | 9.7 | 0.00 | 0.00 | 0.00 | 44 | 1011.0 |
| 20260507212004 | 10 | 266 | 3.2 | 9.7 | 0.00 | 0.00 | 0.00 | 44 | 1011.0 |
| 20260507211903 | 11 | 263 | 3.2 | 9.7 | 0.00 | 0.00 | 0.00 | 44 | 1011.1 |
| 20260507211804 | 11 | 266 | 3.2 | 9.7 | 0.00 | 0.00 | 0.00 | 43 | 1011.1 |
| 20260507211725 | 11 | 267 | 3.2 | 9.7 | 0.00 | 0.00 | 0.00 | 44 | 1011.0 |
| 20260507211603 | 11 | 266 | 3.2 | 9.7 | 0.00 | 0.00 | 0.00 | 44 | 1011.1 |
| 20260507211503 | 11 | 266 | 3.2 | 9.7 | 0.00 | 0.00 | 0.00 | 43 | 1011.1 |
| 20260507211404 | 11 | 267 | 3.2 | 9.7 | 0.00 | 0.00 | 0.00 | 45 | 1011.1 |
| 20260507211304 | 10 | 271 | 3.2 | 9.7 | 0.00 | 0.00 | 0.00 | 44 | 1011.1 |
| 20260507211203 | 10 | 271 | 3.2 | 9.7 | 0.00 | 0.00 | 0.00 | 43 | 1011.2 |
| 20260507211103 | 11 | 271 | 3.2 | 9.7 | 0.00 | 0.00 | 0.00 | 43 | 1011.2 |
| 20260507211004 | 11 | 276 | 3.2 | 9.7 | 0.00 | 0.00 | 0.00 | 43 | 1011.2 |
| 20260507210904 | 11 | 289 | 1.6 | 8.0 | 0.00 | 0.00 | 0.00 | 43 | 1011.2 |
| 20260507210803 | 11 | 288 | 1.6 | 6.4 | 0.00 | 0.00 | 0.00 | 43 | 1011.2 |
| 20260507210703 | 11 | 293 | 1.6 | 4.8 | 0.00 | 0.00 | 0.00 | 43 | 1011.3 |
| 20260507210604 | 11 | 290 | 1.6 | 4.8 | 0.00 | 0.00 | 0.00 | 44 | 1011.3 |
| 20260507210504 | 11 | 291 | 1.6 | 9.7 | 0.00 | 0.00 | 0.00 | 45 | 1011.3 |
| 20260507210403 | 11 | 282 | 3.2 | 11.3 | 0.00 | 0.00 | 0.00 | 45 | 1011.3 |
| 20260507210303 | 11 | 276 | 3.2 | 11.3 | 0.00 | 0.00 | 0.00 | 43 | 1011.2 |
| 20260507210203 | 11 | 277 | 3.2 | 11.3 | 0.00 | 0.00 | 0.00 | 44 | 1011.2 |
| 20260507210104 | 11 | 279 | 3.2 | 11.3 | 0.00 | 0.00 | 0.00 | 44 | 1011.3 |
| 20260507210004 | 11 | 275 | 3.2 | 11.3 | 0.00 | 0.00 | 0.00 | 45 | 1011.3 |
| 20260507205903 | 10 | 272 | 3.2 | 11.3 | 0.00 | 0.00 | 0.00 | 45 | 1011.3 |
| 20260507205803 | 10 | 270 | 3.2 | 11.3 | 0.00 | 0.00 | 0.00 | 43 | 1011.3 |
| 20260507205704 | 10 | 267 | 4.8 | 11.3 | 0.00 | 0.00 | 0.00 | 44 | 1011.3 |
| 20260507205604 | 10 | 262 | 4.8 | 11.3 | 0.00 | 0.00 | 0.00 | 44 | 1011.3 |
| 20260507205504 | 10 | 262 | 4.8 | 11.3 | 0.00 | 0.00 | 0.00 | 44 | 1011.3 |
| 20260507205404 | 11 | 261 | 3.2 | 9.7 | 0.00 | 0.00 | 0.00 | 44 | 1011.3 |
| 20260507205324 | 11 | 258 | 3.2 | 9.7 | 0.00 | 0.00 | 0.00 | 44 | 1011.3 |
| 20260507205204 | 11 | 255 | 3.2 | 9.7 | 0.00 | 0.00 | 0.00 | 44 | 1011.3 |
| 20260507205104 | 11 | 252 | 3.2 | 9.7 | 0.00 | 0.00 | 0.00 | 44 | 1011.4 |
| 20260507205004 | 11 | 248 | 3.2 | 9.7 | 0.00 | 0.00 | 0.00 | 43 | 1011.4 |
| 20260507204903 | 11 | 246 | 3.2 | 9.7 | 0.00 | 0.00 | 0.00 | 43 | 1011.4 |
| 20260507204804 | 11 | 243 | 3.2 | 9.7 | 0.00 | 0.00 | 0.00 | 43 | 1011.3 |
| 20260507204704 | 11 | 245 | 3.2 | 9.7 | 0.00 | 0.00 | 0.00 | 43 | 1011.3 |
| 20260507204624 | 11 | 244 | 3.2 | 9.7 | 0.00 | 0.00 | 0.00 | 44 | 1011.3 |
| 20260507204504 | 11 | 238 | 1.6 | 8.0 | 0.00 | 0.00 | 0.00 | 42 | 1011.3 |
| 20260507204424 | 11 | 234 | 1.6 | 8.0 | 0.00 | 0.00 | 0.00 | 42 | 1011.3 |
| 20260507204303 | 11 | 240 | 1.6 | 11.3 | 0.00 | 0.00 | 0.00 | 43 | 1011.3 |
| 20260507204203 | 11 | 219 | 1.6 | 11.3 | 0.00 | 0.00 | 0.00 | 44 | 1011.3 |
| 20260507204103 | 10 | 199 | 1.6 | 11.3 | 0.00 | 0.00 | 0.00 | 43 | 1011.2 |
| 20260507204003 | 10 | 191 | 3.2 | 11.3 | 0.00 | 0.00 | 0.00 | 44 | 1011.2 |
| 20260507203903 | 10 | 197 | 3.2 | 11.3 | 0.00 | 0.00 | 0.00 | 44 | 1011.2 |
| 20260507203803 | 10 | 206 | 3.2 | 11.3 | 0.00 | 0.00 | 0.00 | 45 | 1011.3 |
| 20260507203703 | 10 | 207 | 3.2 | 11.3 | 0.00 | 0.00 | 0.00 | 44 | 1011.3 |
| 20260507203603 | 10 | 206 | 3.2 | 11.3 | 0.00 | 0.00 | 0.00 | 44 | 1011.3 |
| 20260507203503 | 10 | 200 | 3.2 | 11.3 | 0.00 | 0.00 | 0.00 | 43 | 1011.3 |
| 20260507203403 | 10 | 197 | 3.2 | 11.3 | 0.00 | 0.00 | 0.00 | 43 | 1011.3 |
| 20260507203303 | 10 | 171 | 3.2 | 8.0 | 0.00 | 0.00 | 0.00 | 43 | 1011.4 |
| 20260507203203 | 10 | 186 | 4.8 | 11.3 | 0.00 | 0.00 | 0.00 | 42 | 1011.4 |
| 20260507203104 | 10 | 225 | 4.8 | 17.7 | 0.00 | 0.00 | 0.00 | 43 | 1011.4 |
| 20260507203004 | 10 | 239 | 4.8 | 17.7 | 0.00 | 0.00 | 0.00 | 43 | 1011.4 |
| 20260507202903 | 10 | 244 | 4.8 | 17.7 | 0.00 | 0.00 | 0.00 | 45 | 1011.4 |
| 20260507202803 | 10 | 249 | 4.8 | 17.7 | 0.00 | 0.00 | 0.00 | 44 | 1011.4 |
| 20260507202703 | 10 | 250 | 4.8 | 17.7 | 0.00 | 0.00 | 0.00 | 44 | 1011.5 |
| 20260507202603 | 10 | 250 | 4.8 | 17.7 | 0.00 | 0.00 | 0.00 | 45 | 1011.5 |
| 20260507202503 | 10 | 253 | 4.8 | 17.7 | 0.00 | 0.00 | 0.00 | 45 | 1011.6 |
| 20260507202403 | 10 | 256 | 4.8 | 17.7 | 0.00 | 0.00 | 0.00 | 45 | 1011.6 |
| 20260507202306 | 10 | 257 | 4.8 | 17.7 | 0.00 | 0.00 | 0.00 | 45 | 1011.6 |
| 20260507202224 | 10 | 253 | 4.8 | 17.7 | 0.00 | 0.00 | 0.00 | 44 | 1011.6 |
| 20260507202103 | 10 | 236 | 4.8 | 12.9 | 0.00 | 0.00 | 0.00 | 44 | 1011.6 |
| 20260507202004 | 10 | 229 | 4.8 | 12.9 | 0.00 | 0.00 | 0.00 | 44 | 1011.6 |
| 20260507201903 | 10 | 218 | 4.8 | 12.9 | 0.00 | 0.00 | 0.00 | 46 | 1011.6 |
| 20260507201824 | 10 | 218 | 4.8 | 12.9 | 0.00 | 0.00 | 0.00 | 45 | 1011.7 |
| 20260507201703 | 10 | 224 | 4.8 | 12.9 | 0.00 | 0.00 | 0.00 | 45 | 1011.7 |
| 20260507201625 | 10 | 228 | 4.8 | 12.9 | 0.00 | 0.00 | 0.00 | 44 | 1011.7 |
| 20260507201504 | 10 | 228 | 4.8 | 12.9 | 0.00 | 0.00 | 0.00 | 45 | 1011.8 |
| 20260507201403 | 10 | 226 | 4.8 | 12.9 | 0.00 | 0.00 | 0.00 | 45 | 1011.8 |
| 20260507201303 | 10 | 228 | 4.8 | 12.9 | 0.00 | 0.00 | 0.00 | 44 | 1011.9 |
| 20260507201203 | 10 | 235 | 4.8 | 12.9 | 0.00 | 0.00 | 0.00 | 45 | 1011.9 |
| 20260507201103 | 10 | 242 | 4.8 | 12.9 | 0.00 | 0.00 | 0.00 | 45 | 1011.9 |
| 20260507201004 | 10 | 244 | 4.8 | 12.9 | 0.00 | 0.00 | 0.00 | 45 | 1012.0 |
| 20260507200903 | 10 | 249 | 4.8 | 12.9 | 0.00 | 0.00 | 0.00 | 45 | 1012.0 |
| 20260507200803 | 10 | 248 | 4.8 | 12.9 | 0.00 | 0.00 | 0.00 | 45 | 1012.0 |
| 20260507200724 | 10 | 246 | 4.8 | 11.3 | 0.00 | 0.00 | 0.00 | 44 | 1012.1 |
| 20260507200603 | 10 | 241 | 3.2 | 11.3 | 0.00 | 0.00 | 0.00 | 45 | 1012.1 |
| 20260507200503 | 10 | 242 | 3.2 | 11.3 | 0.00 | 0.00 | 0.00 | 45 | 1012.1 |
| 20260507200424 | 10 | 242 | 3.2 | 11.3 | 0.00 | 0.00 | 0.00 | 44 | 1012.1 |
| 20260507200303 | 10 | 240 | 3.2 | 11.3 | 0.00 | 0.00 | 0.00 | 45 | 1012.1 |
| 20260507200204 | 10 | 234 | 3.2 | 11.3 | 0.00 | 0.00 | 0.00 | 45 | 1012.2 |
| 20260507200125 | 10 | 235 | 3.2 | 11.3 | 0.00 | 0.00 | 0.00 | 44 | 1012.2 |
| 20260507200004 | 10 | 237 | 3.2 | 11.3 | 0.00 | 0.00 | 0.00 | 44 | 1012.2 |
| 20260507195903 | 10 | 238 | 3.2 | 14.5 | 0.00 | 0.00 | 0.00 | 44 | 1012.2 |
| 20260507195804 | 10 | 238 | 3.2 | 14.5 | 0.00 | 0.00 | 0.00 | 44 | 1012.2 |
| 20260507195703 | 10 | 240 | 3.2 | 14.5 | 0.00 | 0.00 | 0.00 | 46 | 1012.2 |
| 20260507195603 | 10 | 244 | 4.8 | 16.1 | 0.00 | 0.00 | 0.00 | 45 | 1012.2 |
| 20260507195503 | 10 | 243 | 4.8 | 16.1 | 0.00 | 0.00 | 0.00 | 46 | 1012.2 |
| 20260507195403 | 10 | 245 | 4.8 | 16.1 | 0.00 | 0.00 | 0.00 | 45 | 1012.2 |
| 20260507195324 | 10 | 245 | 4.8 | 16.1 | 0.00 | 0.00 | 0.00 | 45 | 1012.2 |
| 20260507195203 | 9 | 255 | 4.8 | 16.1 | 0.00 | 0.00 | 0.00 | 46 | 1012.2 |
| 20260507195103 | 9 | 256 | 4.8 | 16.1 | 0.00 | 0.00 | 0.00 | 45 | 1012.3 |
| 20260507195003 | 9 | 256 | 4.8 | 16.1 | 0.00 | 0.00 | 0.00 | 45 | 1012.3 |
| 20260507194904 | 9 | 258 | 4.8 | 16.1 | 0.00 | 0.00 | 0.00 | 44 | 1012.3 |
| 20260507194804 | 10 | 256 | 4.8 | 16.1 | 0.00 | 0.00 | 0.00 | 44 | 1012.3 |
| 20260507194703 | 10 | 251 | 4.8 | 16.1 | 0.00 | 0.00 | 0.00 | 45 | 1012.3 |
| 20260507194624 | 10 | 249 | 4.8 | 16.1 | 0.00 | 0.00 | 0.00 | 45 | 1012.3 |
| 20260507194507 | 10 | 249 | 4.8 | 11.3 | 0.00 | 0.00 | 0.00 | 46 | 1012.3 |
| 20260507194407 | 10 | 245 | 4.8 | 11.3 | 0.00 | 0.00 | 0.00 | 45 | 1012.2 |
| 20260507194306 | 10 | 243 | 4.8 | 11.3 | 0.00 | 0.00 | 0.00 | 45 | 1012.2 |
| 20260507194206 | 10 | 225 | 4.8 | 11.3 | 0.00 | 0.00 | 0.00 | 47 | 1012.3 |
| 20260507194106 | 10 | 220 | 4.8 | 11.3 | 0.00 | 0.00 | 0.00 | 47 | 1012.3 |
| 20260507194006 | 10 | 219 | 4.8 | 11.3 | 0.00 | 0.00 | 0.00 | 47 | 1012.3 |
| 20260507193928 | 9 | 219 | 4.8 | 11.3 | 0.00 | 0.00 | 0.00 | 47 | 1012.3 |
| 20260507193807 | 9 | 225 | 6.4 | 16.1 | 0.00 | 0.00 | 0.00 | 48 | 1012.3 |
| 20260507193706 | 9 | 230 | 6.4 | 16.1 | 0.00 | 0.00 | 0.00 | 48 | 1012.3 |
| 20260507193607 | 9 | 232 | 6.4 | 16.1 | 0.00 | 0.00 | 0.00 | 48 | 1012.4 |
| 20260507193528 | 9 | 232 | 6.4 | 16.1 | 0.00 | 0.00 | 0.00 | 48 | 1012.4 |
| 20260507193406 | 9 | 238 | 8.0 | 16.1 | 0.00 | 0.00 | 0.00 | 48 | 1012.4 |
| 20260507193306 | 9 | 240 | 8.0 | 16.1 | 0.00 | 0.00 | 0.00 | 49 | 1012.5 |
| 20260507193206 | 9 | 245 | 8.0 | 16.1 | 0.00 | 0.00 | 0.00 | 49 | 1012.5 |
| 20260507193107 | 9 | 247 | 8.0 | 16.1 | 0.00 | 0.00 | 0.00 | 50 | 1012.5 |
| 20260507193007 | 8 | 248 | 8.0 | 16.1 | 0.00 | 0.00 | 0.00 | 50 | 1012.5 |
| 20260507192907 | 8 | 245 | 8.0 | 16.1 | 0.00 | 0.00 | 0.00 | 49 | 1012.5 |
| 20260507192806 | 9 | 241 | 6.4 | 16.1 | 0.00 | 0.00 | 0.00 | 50 | 1012.6 |
| 20260507192706 | 9 | 239 | 6.4 | 16.1 | 0.00 | 0.00 | 0.00 | 49 | 1012.6 |
| 20260507192628 | 8 | 237 | 6.4 | 14.5 | 0.00 | 0.00 | 0.00 | 48 | 1012.6 |
| 20260507192506 | 8 | 239 | 6.4 | 16.1 | 0.00 | 0.00 | 0.00 | 48 | 1012.6 |
| 20260507192406 | 9 | 233 | 6.4 | 16.1 | 0.00 | 0.00 | 0.00 | 49 | 1012.6 |
| 20260507192327 | 9 | 230 | 6.4 | 16.1 | 0.00 | 0.00 | 0.00 | 49 | 1012.6 |
| 20260507192228 | 9 | 230 | 6.4 | 16.1 | 0.00 | 0.00 | 0.00 | 48 | 1012.6 |
| 20260507192107 | 9 | 237 | 6.4 | 16.1 | 0.00 | 0.00 | 0.00 | 47 | 1012.6 |
| 20260507192006 | 9 | 240 | 6.4 | 16.1 | 0.00 | 0.00 | 0.00 | 47 | 1012.6 |
| 20260507191906 | 8 | 241 | 6.4 | 16.1 | 0.00 | 0.00 | 0.00 | 48 | 1012.6 |
| 20260507191806 | 8 | 244 | 6.4 | 16.1 | 0.00 | 0.00 | 0.00 | 47 | 1012.7 |
| 20260507191728 | 8 | 246 | 6.4 | 16.1 | 0.00 | 0.00 | 0.00 | 45 | 1012.7 |
| 20260507191606 | 9 | 252 | 8.0 | 16.1 | 0.00 | 0.00 | 0.00 | 48 | 1012.7 |
| 20260507191527 | 9 | 249 | 8.0 | 17.7 | 0.00 | 0.00 | 0.00 | 49 | 1012.7 |
| 20260507191427 | 9 | 249 | 8.0 | 17.7 | 0.00 | 0.00 | 0.00 | 50 | 1012.7 |
| 20260507191306 | 8 | 251 | 8.0 | 17.7 | 0.00 | 0.00 | 0.00 | 49 | 1012.7 |
| 20260507191207 | 8 | 249 | 8.0 | 17.7 | 0.00 | 0.00 | 0.00 | 49 | 1012.7 |
| 20260507191107 | 8 | 246 | 8.0 | 17.7 | 0.00 | 0.00 | 0.00 | 49 | 1012.7 |
| 20260507191006 | 8 | 245 | 8.0 | 17.7 | 0.00 | 0.00 | 0.00 | 48 | 1012.8 |
| 20260507190927 | 8 | 245 | 8.0 | 17.7 | 0.00 | 0.00 | 0.00 | 50 | 1012.8 |
| 20260507190807 | 8 | 247 | 8.0 | 17.7 | 0.00 | 0.00 | 0.00 | 52 | 1012.8 |
| 20260507190707 | 8 | 242 | 8.0 | 17.7 | 0.00 | 0.00 | 0.00 | 51 | 1012.8 |
| 20260507190607 | 8 | 243 | 8.0 | 20.9 | 0.00 | 0.00 | 0.00 | 51 | 1012.8 |
| 20260507190506 | 8 | 245 | 8.0 | 20.9 | 0.00 | 0.00 | 0.00 | 50 | 1012.8 |
| 20260507190406 | 8 | 250 | 8.0 | 22.5 | 0.00 | 0.00 | 0.00 | 50 | 1012.8 |
| 20260507190307 | 9 | 249 | 8.0 | 22.5 | 0.00 | 0.00 | 0.00 | 51 | 1012.8 |
| 20260507190207 | 8 | 250 | 9.7 | 22.5 | 0.00 | 0.00 | 0.00 | 52 | 1012.8 |
| 20260507190106 | 8 | 252 | 9.7 | 22.5 | 0.00 | 0.00 | 0.00 | 52 | 1012.8 |
| 20260507190006 | 8 | 256 | 9.7 | 22.5 | 0.00 | 0.00 | 0.00 | 50 | 1012.8 |
| 20260507185907 | 8 | 258 | 9.7 | 22.5 | 0.00 | 0.00 | 0.00 | 50 | 1012.8 |
| 20260507185806 | 8 | 259 | 9.7 | 22.5 | 0.00 | 0.00 | 0.00 | 51 | 1012.8 |
| 20260507185706 | 8 | 261 | 9.7 | 22.5 | 0.00 | 0.00 | 0.00 | 50 | 1012.8 |
| 20260507185606 | 8 | 259 | 9.7 | 22.5 | 0.00 | 0.00 | 0.00 | 51 | 1012.8 |
| 20260507185506 | 8 | 258 | 8.0 | 22.5 | 0.00 | 0.00 | 0.00 | 51 | 1012.7 |
| 20260507185406 | 8 | 256 | 8.0 | 20.9 | 0.00 | 0.00 | 0.00 | 48 | 1012.7 |
| 20260507185306 | 8 | 255 | 8.0 | 17.7 | 0.00 | 0.00 | 0.00 | 48 | 1012.8 |
| 20260507185207 | 8 | 254 | 8.0 | 17.7 | 0.00 | 0.00 | 0.00 | 49 | 1012.8 |
| 20260507185106 | 8 | 252 | 9.7 | 20.9 | 0.00 | 0.00 | 0.00 | 50 | 1012.8 |
| 20260507185006 | 8 | 249 | 8.0 | 20.9 | 0.00 | 0.00 | 0.00 | 50 | 1012.8 |
| 20260507184906 | 8 | 247 | 8.0 | 20.9 | 0.00 | 0.00 | 0.00 | 49 | 1012.8 |
| 20260507184806 | 8 | 246 | 8.0 | 20.9 | 0.00 | 0.00 | 0.00 | 50 | 1012.8 |
| 20260507184728 | 8 | 246 | 8.0 | 20.9 | 0.00 | 0.00 | 0.00 | 50 | 1012.8 |
| 20260507184607 | 8 | 246 | 8.0 | 20.9 | 0.00 | 0.00 | 0.00 | 49 | 1012.7 |
| 20260507184506 | 8 | 248 | 8.0 | 20.9 | 0.00 | 0.00 | 0.00 | 49 | 1012.7 |
| 20260507184406 | 8 | 250 | 8.0 | 20.9 | 0.00 | 0.00 | 0.00 | 48 | 1012.7 |
| 20260507184327 | 8 | 251 | 8.0 | 20.9 | 0.00 | 0.00 | 0.00 | 48 | 1012.7 |
| 20260507184207 | 8 | 254 | 8.0 | 20.9 | 0.00 | 0.00 | 0.00 | 49 | 1012.7 |
| 20260507184128 | 8 | 254 | 8.0 | 20.9 | 0.00 | 0.00 | 0.00 | 49 | 1012.7 |
| 20260507184027 | 9 | 256 | 6.4 | 16.1 | 0.00 | 0.00 | 0.00 | 51 | 1012.6 |
| 20260507183927 | 9 | 255 | 6.4 | 16.1 | 0.00 | 0.00 | 0.00 | 51 | 1012.6 |
| 20260507183806 | 8 | 259 | 6.4 | 16.1 | 0.00 | 0.00 | 0.00 | 49 | 1012.6 |
| 20260507183706 | 8 | 257 | 8.0 | 16.1 | 0.00 | 0.00 | 0.00 | 48 | 1012.7 |
| 20260507183606 | 8 | 258 | 8.0 | 16.1 | 0.00 | 0.00 | 0.00 | 45 | 1012.7 |
| 20260507183506 | 8 | 256 | 8.0 | 20.9 | 0.00 | 0.00 | 0.00 | 44 | 1012.7 |
| 20260507183406 | 9 | 255 | 8.0 | 20.9 | 0.00 | 0.00 | 0.00 | 45 | 1012.6 |
| 20260507183307 | 9 | 255 | 8.0 | 20.9 | 0.00 | 0.00 | 0.00 | 46 | 1012.6 |
| 20260507183206 | 8 | 254 | 8.0 | 20.9 | 0.00 | 0.00 | 0.00 | 44 | 1012.7 |
| 20260507183127 | 8 | 252 | 8.0 | 20.9 | 0.00 | 0.00 | 0.00 | 46 | 1012.7 |
| 20260507183006 | 8 | 252 | 9.7 | 20.9 | 0.00 | 0.00 | 0.00 | 46 | 1012.7 |
| 20260507182906 | 8 | 253 | 9.7 | 20.9 | 0.00 | 0.00 | 0.00 | 45 | 1012.7 |
| 20260507182807 | 8 | 253 | 8.0 | 20.9 | 0.00 | 0.00 | 0.00 | 45 | 1012.7 |
| 20260507182706 | 8 | 252 | 8.0 | 20.9 | 0.00 | 0.00 | 0.00 | 45 | 1012.6 |
| 20260507182606 | 9 | 252 | 8.0 | 20.9 | 0.00 | 0.00 | 0.00 | 44 | 1012.6 |
| 20260507182527 | 9 | 253 | 8.0 | 19.3 | 0.00 | 0.00 | 0.00 | 45 | 1012.6 |
| 20260507182406 | 9 | 254 | 8.0 | 19.3 | 0.00 | 0.00 | 0.00 | 46 | 1012.6 |